Wetterdaten: Sonntag, 14.05.2017
Datum Zeit Temp. A. Pool Temp. Feuchte A. Luftdruck Regen Wind Richtung Richtung Sonnenschein ET UV Solar Taupunkt Windchill Windben Empfang
14.05.2017 00:00 12,1 C 18,9 C 91 % 1014,7 hPa 0,0 l/m 0,0 km/h (0 Bft) S-SW 212 0 min 0,000 mm 0,0 UV-I 0 W/m 10,7 C 12,1 C 1,6 km/h (1 Bft) 97,37 %
14.05.2017 00:02 12,0 C 18,9 C 91 % 1014,7 hPa 0,0 l/m 0,0 km/h (0 Bft) S-SW 212 0 min 0,000 mm 0,0 UV-I 0 W/m 10,6 C 12,0 C 1,6 km/h (1 Bft) 92,31 %
14.05.2017 00:04 11,9 C 18,9 C 91 % 1014,8 hPa 0,0 l/m 0,9 km/h (0 Bft) S-SW 212 0 min 0,000 mm 0,0 UV-I 0 W/m 10,5 C 11,9 C 3,2 km/h (1 Bft) 100,00 %
14.05.2017 00:06 11,9 C 18,9 C 91 % 1014,9 hPa 0,0 l/m 6,1 km/h (2 Bft) O-NO 63 0 min 0,000 mm 0,0 UV-I 0 W/m 10,5 C 11,9 C 12,9 km/h (3 Bft) 100,00 %
14.05.2017 00:08 11,9 C 18,9 C 92 % 1015,0 hPa 0,0 l/m 10,6 km/h (2 Bft) O-NO 74 0 min 0,000 mm 0,0 UV-I 0 W/m 10,6 C 9,4 C 14,5 km/h (3 Bft) 100,00 %
14.05.2017 00:10 12,0 C 18,9 C 92 % 1014,9 hPa 0,0 l/m 6,8 km/h (2 Bft) O 79 0 min 0,000 mm 0,0 UV-I 0 W/m 10,7 C 11,7 C 9,7 km/h (2 Bft) 100,00 %
14.05.2017 00:12 12,1 C 18,9 C 92 % 1014,9 hPa 0,0 l/m 5,5 km/h (1 Bft) O-NO 78 0 min 0,000 mm 0,0 UV-I 0 W/m 10,8 C 12,1 C 9,7 km/h (2 Bft) 98,00 %
14.05.2017 00:14 12,2 C 18,9 C 92 % 1014,9 hPa 0,0 l/m 2,5 km/h (1 Bft) O-NO 78 0 min 0,000 mm 0,0 UV-I 0 W/m 10,9 C 12,2 C 4,8 km/h (1 Bft) 100,00 %
14.05.2017 00:16 12,2 C 18,9 C 91 % 1014,9 hPa 0,0 l/m 0,2 km/h (0 Bft) O-NO 78 0 min 0,000 mm 0,0 UV-I 0 W/m 10,8 C 12,2 C 1,6 km/h (1 Bft) 98,11 %
14.05.2017 00:18 12,2 C 18,9 C 91 % 1014,9 hPa 0,0 l/m 3,0 km/h (1 Bft) O-NO 78 0 min 0,000 mm 0,0 UV-I 0 W/m 10,8 C 12,2 C 4,8 km/h (1 Bft) 100,00 %
14.05.2017 00:20 12,2 C 18,9 C 91 % 1014,9 hPa 0,0 l/m 4,0 km/h (1 Bft) O-NO 78 0 min 0,000 mm 0,0 UV-I 0 W/m 10,8 C 12,2 C 6,4 km/h (2 Bft) 100,00 %
14.05.2017 00:22 12,3 C 18,9 C 91 % 1014,9 hPa 0,0 l/m 3,4 km/h (1 Bft) O-NO 78 0 min 0,000 mm 0,0 UV-I 0 W/m 10,9 C 12,3 C 4,8 km/h (1 Bft) 100,00 %
14.05.2017 00:24 12,3 C 18,9 C 91 % 1014,9 hPa 0,0 l/m 2,0 km/h (1 Bft) O-NO 78 0 min 0,000 mm 0,0 UV-I 0 W/m 10,9 C 12,3 C 3,2 km/h (1 Bft) 100,00 %
14.05.2017 00:26 12,2 C 18,9 C 90 % 1015,0 hPa 0,0 l/m 1,4 km/h (1 Bft) O-NO 78 0 min 0,000 mm 0,0 UV-I 0 W/m 10,6 C 12,2 C 3,2 km/h (1 Bft) 98,00 %
14.05.2017 00:28 12,0 C 18,9 C 90 % 1015,0 hPa 0,0 l/m 2,3 km/h (1 Bft) O-NO 78 0 min 0,000 mm 0,0 UV-I 0 W/m 10,4 C 12,0 C 3,2 km/h (1 Bft) 100,00 %
14.05.2017 00:30 11,9 C 18,9 C 90 % 1015,0 hPa 0,0 l/m 1,0 km/h (0 Bft) O-NO 78 0 min 0,000 mm 0,0 UV-I 0 W/m 10,3 C 11,9 C 3,2 km/h (1 Bft) 95,12 %
14.05.2017 00:32 11,8 C 18,9 C 91 % 1015,0 hPa 0,0 l/m 0,1 km/h (0 Bft) O-NO 78 0 min 0,000 mm 0,0 UV-I 0 W/m 10,4 C 11,8 C 1,6 km/h (1 Bft) 98,00 %
14.05.2017 00:34 11,7 C 18,9 C 91 % 1015,0 hPa 0,0 l/m 0,0 km/h (0 Bft) O-NO 78 0 min 0,000 mm 0,0 UV-I 0 W/m 10,3 C 11,7 C 1,6 km/h (1 Bft) 95,12 %
14.05.2017 00:36 11,7 C 18,9 C 91 % 1015,0 hPa 0,0 l/m 0,0 km/h (0 Bft) O-NO 78 0 min 0,000 mm 0,0 UV-I 0 W/m 10,3 C 11,7 C 1,6 km/h (1 Bft) 96,23 %
14.05.2017 00:38 11,6 C 18,9 C 92 % 1015,0 hPa 0,0 l/m 2,2 km/h (1 Bft) O 96 0 min 0,000 mm 0,0 UV-I 0 W/m 10,3 C 11,6 C 4,8 km/h (1 Bft) 97,87 %
14.05.2017 00:40 11,6 C 18,9 C 92 % 1015,0 hPa 0,0 l/m 3,0 km/h (1 Bft) O 96 0 min 0,000 mm 0,0 UV-I 0 W/m 10,3 C 11,6 C 3,2 km/h (1 Bft) 96,30 %
14.05.2017 00:42 11,5 C 18,9 C 92 % 1015,0 hPa 0,0 l/m 3,7 km/h (1 Bft) S-SO 151 0 min 0,000 mm 0,0 UV-I 0 W/m 10,2 C 11,5 C 4,8 km/h (1 Bft) 96,77 %
14.05.2017 00:44 11,4 C 18,9 C 92 % 1015,0 hPa 0,0 l/m 3,5 km/h (1 Bft) S-SO 151 0 min 0,000 mm 0,0 UV-I 0 W/m 10,1 C 11,4 C 4,8 km/h (1 Bft) 96,15 %
14.05.2017 00:46 11,3 C 18,9 C 92 % 1015,0 hPa 0,0 l/m 3,1 km/h (1 Bft) S-SO 151 0 min 0,000 mm 0,0 UV-I 0 W/m 10,0 C 11,3 C 4,8 km/h (1 Bft) 97,44 %
14.05.2017 00:48 11,2 C 18,9 C 92 % 1015,1 hPa 0,0 l/m 1,0 km/h (0 Bft) S-SO 151 0 min 0,000 mm 0,0 UV-I 0 W/m 9,9 C 11,2 C 3,2 km/h (1 Bft) 97,87 %
14.05.2017 00:50 11,2 C 18,9 C 93 % 1015,1 hPa 0,0 l/m 0,8 km/h (0 Bft) S-SO 151 0 min 0,000 mm 0,0 UV-I 0 W/m 10,1 C 11,2 C 1,6 km/h (1 Bft) 98,00 %
14.05.2017 00:52 11,2 C 18,9 C 93 % 1015,1 hPa 0,0 l/m 0,0 km/h (0 Bft) S-SO 151 0 min 0,000 mm 0,0 UV-I 0 W/m 10,1 C 11,2 C 0,0 km/h (0 Bft) 92,00 %
14.05.2017 00:54 11,1 C 18,9 C 93 % 1015,1 hPa 0,0 l/m 0,0 km/h (0 Bft) S-SO 151 0 min 0,000 mm 0,0 UV-I 0 W/m 10,0 C 11,1 C 0,0 km/h (0 Bft) 97,87 %
14.05.2017 00:56 11,0 C 18,9 C 93 % 1015,1 hPa 0,0 l/m 0,0 km/h (0 Bft) S-SO 151 0 min 0,000 mm 0,0 UV-I 0 W/m 9,9 C 11,0 C 0,0 km/h (0 Bft) 95,74 %
14.05.2017 00:58 11,0 C 18,9 C 93 % 1015,2 hPa 0,0 l/m 0,0 km/h (0 Bft) S-SO 151 0 min 0,000 mm 0,0 UV-I 0 W/m 9,9 C 11,0 C 0,0 km/h (0 Bft) 98,00 %
14.05.2017 01:00 11,1 C 18,9 C 93 % 1015,1 hPa 0,0 l/m 0,0 km/h (0 Bft) S-SO 151 0 min 0,000 mm 0,0 UV-I 0 W/m 10,0 C 11,1 C 0,0 km/h (0 Bft) 94,74 %
14.05.2017 01:01 11,1 C 18,9 C 93 % 1015,1 hPa 0,0 l/m 0,0 km/h (0 Bft) S-SO 151 0 min 0,000 mm 0,0 UV-I 0 W/m 10,0 C 11,1 C 0,0 km/h (0 Bft) 94,00 %
14.05.2017 01:04 11,1 C 18,9 C 93 % 1015,1 hPa 0,0 l/m 0,0 km/h (0 Bft) S-SO 151 0 min 0,000 mm 0,0 UV-I 0 W/m 10,0 C 11,1 C 0,0 km/h (0 Bft) 95,74 %
14.05.2017 01:06 11,1 C 18,9 C 94 % 1015,1 hPa 0,0 l/m 0,0 km/h (0 Bft) S-SO 151 0 min 0,000 mm 0,0 UV-I 0 W/m 10,2 C 11,1 C 0,0 km/h (0 Bft) 95,74 %
14.05.2017 01:08 11,1 C 18,9 C 93 % 1015,2 hPa 0,0 l/m 0,0 km/h (0 Bft) S-SO 151 0 min 0,000 mm 0,0 UV-I 0 W/m 10,0 C 11,1 C 0,0 km/h (0 Bft) 93,62 %
14.05.2017 01:10 11,0 C 18,9 C 93 % 1015,2 hPa 0,0 l/m 0,0 km/h (0 Bft) S-SO 151 0 min 0,000 mm 0,0 UV-I 0 W/m 9,9 C 11,0 C 0,0 km/h (0 Bft) 96,00 %
14.05.2017 01:12 11,0 C 18,9 C 93 % 1015,3 hPa 0,0 l/m 1,2 km/h (1 Bft) S-SO 151 0 min 0,000 mm 0,0 UV-I 0 W/m 9,9 C 11,0 C 3,2 km/h (1 Bft) 97,56 %
14.05.2017 01:14 11,0 C 18,9 C 93 % 1015,3 hPa 0,0 l/m 3,1 km/h (1 Bft) S-SO 155 0 min 0,000 mm 0,0 UV-I 0 W/m 9,9 C 11,0 C 4,8 km/h (1 Bft) 94,34 %
14.05.2017 01:16 10,9 C 18,9 C 93 % 1015,3 hPa 0,0 l/m 3,7 km/h (1 Bft) S-SO 165 0 min 0,000 mm 0,0 UV-I 0 W/m 9,8 C 10,9 C 6,4 km/h (2 Bft) 95,74 %
14.05.2017 01:19 10,8 C 18,9 C 93 % 1015,3 hPa 0,0 l/m 1,5 km/h (1 Bft) S-SO 165 0 min 0,000 mm 0,0 UV-I 0 W/m 9,7 C 10,8 C 3,2 km/h (1 Bft) 98,59 %
14.05.2017 01:20 10,8 C 18,9 C 93 % 1015,3 hPa 0,0 l/m 1,3 km/h (1 Bft) S-SO 165 0 min 0,000 mm 0,0 UV-I 0 W/m 9,7 C 10,8 C 3,2 km/h (1 Bft) 95,65 %
14.05.2017 01:22 10,8 C 18,9 C 94 % 1015,4 hPa 0,0 l/m 0,8 km/h (0 Bft) S-SO 165 0 min 0,000 mm 0,0 UV-I 0 W/m 9,9 C 10,8 C 3,2 km/h (1 Bft) 98,00 %
14.05.2017 01:24 10,7 C 18,9 C 93 % 1015,4 hPa 0,0 l/m 0,0 km/h (0 Bft) S-SO 165 0 min 0,000 mm 0,0 UV-I 0 W/m 9,6 C 10,7 C 1,6 km/h (1 Bft) 95,74 %
14.05.2017 01:26 10,6 C 18,9 C 93 % 1015,4 hPa 0,0 l/m 0,0 km/h (0 Bft) S-SO 165 0 min 0,000 mm 0,0 UV-I 0 W/m 9,5 C 10,6 C 0,0 km/h (0 Bft) 97,62 %
14.05.2017 01:29 10,4 C 18,9 C 94 % 1015,4 hPa 0,0 l/m 0,0 km/h (0 Bft) S-SO 165 0 min 0,000 mm 0,0 UV-I 0 W/m 9,5 C 10,4 C 0,0 km/h (0 Bft) 98,51 %
14.05.2017 01:30 10,4 C 18,9 C 94 % 1015,4 hPa 0,0 l/m 1,2 km/h (1 Bft) S-SO 165 0 min 0,000 mm 0,0 UV-I 0 W/m 9,5 C 10,4 C 3,2 km/h (1 Bft) 100,00 %
14.05.2017 01:32 10,4 C 18,9 C 94 % 1015,4 hPa 0,0 l/m 0,5 km/h (0 Bft) S-SO 165 0 min 0,000 mm 0,0 UV-I 0 W/m 9,5 C 10,4 C 3,2 km/h (1 Bft) 95,74 %
14.05.2017 01:34 10,5 C 18,9 C 94 % 1015,4 hPa 0,0 l/m 0,0 km/h (0 Bft) S-SO 165 0 min 0,000 mm 0,0 UV-I 0 W/m 9,6 C 10,5 C 0,0 km/h (0 Bft) 98,00 %
14.05.2017 01:36 10,6 C 18,9 C 95 % 1015,4 hPa 0,0 l/m 0,0 km/h (0 Bft) S-SO 165 0 min 0,000 mm 0,0 UV-I 0 W/m 9,8 C 10,6 C 1,6 km/h (1 Bft) 92,68 %
14.05.2017 01:38 10,7 C 18,9 C 95 % 1015,4 hPa 0,0 l/m 0,0 km/h (0 Bft) S-SO 165 0 min 0,000 mm 0,0 UV-I 0 W/m 9,9 C 10,7 C 1,6 km/h (1 Bft) 95,74 %
14.05.2017 01:40 10,8 C 18,9 C 95 % 1015,4 hPa 0,0 l/m 1,9 km/h (1 Bft) S-SO 165 0 min 0,000 mm 0,0 UV-I 0 W/m 10,0 C 10,8 C 3,2 km/h (1 Bft) 96,00 %
14.05.2017 01:42 10,8 C 18,9 C 95 % 1015,4 hPa 0,0 l/m 3,5 km/h (1 Bft) S-SO 165 0 min 0,000 mm 0,0 UV-I 0 W/m 10,0 C 10,8 C 6,4 km/h (2 Bft) 94,87 %
14.05.2017 01:44 10,8 C 18,9 C 94 % 1015,4 hPa 0,0 l/m 5,0 km/h (1 Bft) S-SO 165 0 min 0,000 mm 0,0 UV-I 0 W/m 9,9 C 10,8 C 6,4 km/h (2 Bft) 96,00 %
14.05.2017 01:46 10,7 C 18,9 C 94 % 1015,4 hPa 0,0 l/m 2,0 km/h (1 Bft) S-SO 165 0 min 0,000 mm 0,0 UV-I 0 W/m 9,8 C 10,7 C 6,4 km/h (2 Bft) 96,43 %
14.05.2017 01:48 10,7 C 18,9 C 94 % 1015,5 hPa 0,0 l/m 1,8 km/h (1 Bft) S-SO 165 0 min 0,000 mm 0,0 UV-I 0 W/m 9,8 C 10,7 C 3,2 km/h (1 Bft) 94,74 %
14.05.2017 01:50 10,5 C 18,9 C 94 % 1015,4 hPa 0,0 l/m 1,1 km/h (1 Bft) S-SO 165 0 min 0,000 mm 0,0 UV-I 0 W/m 9,6 C 10,5 C 3,2 km/h (1 Bft) 93,62 %
14.05.2017 01:52 10,4 C 18,9 C 94 % 1015,4 hPa 0,0 l/m 2,2 km/h (1 Bft) S-SO 165 0 min 0,000 mm 0,0 UV-I 0 W/m 9,5 C 10,4 C 6,4 km/h (2 Bft) 98,04 %
14.05.2017 01:54 10,3 C 18,9 C 94 % 1015,4 hPa 0,0 l/m 1,3 km/h (1 Bft) S-SO 165 0 min 0,000 mm 0,0 UV-I 0 W/m 9,4 C 10,3 C 3,2 km/h (1 Bft) 96,00 %
14.05.2017 01:56 10,4 C 18,9 C 95 % 1015,4 hPa 0,0 l/m 2,3 km/h (1 Bft) S 175 0 min 0,000 mm 0,0 UV-I 0 W/m 9,6 C 10,4 C 6,4 km/h (2 Bft) 97,37 %
14.05.2017 01:58 10,6 C 18,9 C 95 % 1015,4 hPa 0,0 l/m 4,2 km/h (1 Bft) S 175 0 min 0,000 mm 0,0 UV-I 0 W/m 9,8 C 10,6 C 6,4 km/h (2 Bft) 95,74 %
14.05.2017 02:00 10,7 C 18,9 C 95 % 1015,4 hPa 0,0 l/m 5,0 km/h (1 Bft) S 176 0 min 0,000 mm 0,0 UV-I 0 W/m 9,9 C 10,7 C 6,4 km/h (2 Bft) 96,00 %
14.05.2017 02:02 10,8 C 18,9 C 95 % 1015,3 hPa 0,0 l/m 3,5 km/h (1 Bft) S 176 0 min 0,000 mm 0,0 UV-I 0 W/m 10,0 C 10,8 C 6,4 km/h (2 Bft) 95,74 %
14.05.2017 02:04 10,8 C 18,9 C 94 % 1015,3 hPa 0,0 l/m 2,1 km/h (1 Bft) S 176 0 min 0,000 mm 0,0 UV-I 0 W/m 9,9 C 10,8 C 4,8 km/h (1 Bft) 95,74 %
14.05.2017 02:06 10,8 C 18,9 C 94 % 1015,3 hPa 0,0 l/m 0,4 km/h (0 Bft) S 176 0 min 0,000 mm 0,0 UV-I 0 W/m 9,9 C 10,8 C 1,6 km/h (1 Bft) 94,34 %
14.05.2017 02:08 10,7 C 18,9 C 94 % 1015,3 hPa 0,0 l/m 0,1 km/h (0 Bft) S 176 0 min 0,000 mm 0,0 UV-I 0 W/m 9,8 C 10,7 C 1,6 km/h (1 Bft) 97,62 %
14.05.2017 02:10 10,6 C 18,9 C 94 % 1015,3 hPa 0,0 l/m 0,0 km/h (0 Bft) S 176 0 min 0,000 mm 0,0 UV-I 0 W/m 9,7 C 10,6 C 0,0 km/h (0 Bft) 100,00 %
14.05.2017 02:12 10,5 C 18,9 C 94 % 1015,3 hPa 0,0 l/m 0,4 km/h (0 Bft) S 176 0 min 0,000 mm 0,0 UV-I 0 W/m 9,6 C 10,5 C 1,6 km/h (1 Bft) 100,00 %
14.05.2017 02:14 10,5 C 18,9 C 94 % 1015,3 hPa 0,0 l/m 0,1 km/h (0 Bft) S 176 0 min 0,000 mm 0,0 UV-I 0 W/m 9,6 C 10,5 C 1,6 km/h (1 Bft) 100,00 %
14.05.2017 02:16 10,6 C 18,9 C 94 % 1015,3 hPa 0,0 l/m 0,0 km/h (0 Bft) S 176 0 min 0,000 mm 0,0 UV-I 0 W/m 9,7 C 10,6 C 1,6 km/h (1 Bft) 100,00 %
14.05.2017 02:18 10,6 C 18,9 C 94 % 1015,3 hPa 0,0 l/m 0,6 km/h (0 Bft) S 176 0 min 0,000 mm 0,0 UV-I 0 W/m 9,7 C 10,6 C 1,6 km/h (1 Bft) 98,00 %
14.05.2017 02:20 10,7 C 18,9 C 94 % 1015,3 hPa 0,0 l/m 1,0 km/h (0 Bft) S 176 0 min 0,000 mm 0,0 UV-I 0 W/m 9,8 C 10,7 C 1,6 km/h (1 Bft) 98,00 %
14.05.2017 02:22 10,7 C 18,9 C 94 % 1015,3 hPa 0,0 l/m 0,3 km/h (0 Bft) S 176 0 min 0,000 mm 0,0 UV-I 0 W/m 9,8 C 10,7 C 1,6 km/h (1 Bft) 100,00 %
14.05.2017 02:24 10,7 C 18,9 C 94 % 1015,3 hPa 0,0 l/m 0,2 km/h (0 Bft) S 176 0 min 0,000 mm 0,0 UV-I 0 W/m 9,8 C 10,7 C 1,6 km/h (1 Bft) 98,00 %
14.05.2017 02:26 10,7 C 18,9 C 94 % 1015,4 hPa 0,0 l/m 1,1 km/h (1 Bft) S 176 0 min 0,000 mm 0,0 UV-I 0 W/m 9,8 C 10,7 C 3,2 km/h (1 Bft) 97,73 %
14.05.2017 02:28 10,7 C 18,9 C 94 % 1015,3 hPa 0,0 l/m 0,4 km/h (0 Bft) S 176 0 min 0,000 mm 0,0 UV-I 0 W/m 9,8 C 10,7 C 1,6 km/h (1 Bft) 98,11 %
14.05.2017 02:30 10,7 C 18,9 C 93 % 1015,4 hPa 0,0 l/m 0,0 km/h (0 Bft) S 176 0 min 0,000 mm 0,0 UV-I 0 W/m 9,6 C 10,7 C 1,6 km/h (1 Bft) 97,87 %
14.05.2017 02:32 10,7 C 18,9 C 94 % 1015,4 hPa 0,0 l/m 2,1 km/h (1 Bft) S 176 0 min 0,000 mm 0,0 UV-I 0 W/m 9,8 C 10,7 C 3,2 km/h (1 Bft) 97,14 %
14.05.2017 02:34 10,7 C 18,9 C 94 % 1015,4 hPa 0,0 l/m 3,3 km/h (1 Bft) S 176 0 min 0,000 mm 0,0 UV-I 0 W/m 9,8 C 10,7 C 4,8 km/h (1 Bft) 100,00 %
14.05.2017 02:36 10,6 C 18,9 C 93 % 1015,4 hPa 0,0 l/m 3,6 km/h (1 Bft) S 176 0 min 0,000 mm 0,0 UV-I 0 W/m 9,5 C 10,6 C 4,8 km/h (1 Bft) 98,11 %
14.05.2017 02:38 10,6 C 18,9 C 93 % 1015,4 hPa 0,0 l/m 3,4 km/h (1 Bft) S 176 0 min 0,000 mm 0,0 UV-I 0 W/m 9,5 C 10,6 C 4,8 km/h (1 Bft) 100,00 %
14.05.2017 02:40 10,5 C 18,9 C 93 % 1015,4 hPa 0,0 l/m 3,4 km/h (1 Bft) S 176 0 min 0,000 mm 0,0 UV-I 0 W/m 9,4 C 10,5 C 4,8 km/h (1 Bft) 97,92 %
14.05.2017 02:42 10,4 C 18,9 C 94 % 1015,5 hPa 0,0 l/m 3,4 km/h (1 Bft) S 176 0 min 0,000 mm 0,0 UV-I 0 W/m 9,5 C 10,4 C 4,8 km/h (1 Bft) 96,15 %
14.05.2017 02:44 10,4 C 18,9 C 93 % 1015,5 hPa 0,0 l/m 3,1 km/h (1 Bft) S 176 0 min 0,000 mm 0,0 UV-I 0 W/m 9,3 C 10,4 C 4,8 km/h (1 Bft) 100,00 %
14.05.2017 02:46 10,4 C 18,9 C 94 % 1015,6 hPa 0,0 l/m 1,9 km/h (1 Bft) S 176 0 min 0,000 mm 0,0 UV-I 0 W/m 9,5 C 10,4 C 3,2 km/h (1 Bft) 98,00 %
14.05.2017 02:48 10,4 C 18,9 C 94 % 1015,6 hPa 0,0 l/m 1,9 km/h (1 Bft) S 176 0 min 0,000 mm 0,0 UV-I 0 W/m 9,5 C 10,4 C 3,2 km/h (1 Bft) 94,44 %
14.05.2017 02:50 10,4 C 18,9 C 94 % 1015,6 hPa 0,0 l/m 2,4 km/h (1 Bft) S 176 0 min 0,000 mm 0,0 UV-I 0 W/m 9,5 C 10,4 C 4,8 km/h (1 Bft) 98,00 %
14.05.2017 02:52 10,4 C 18,9 C 94 % 1015,6 hPa 0,0 l/m 2,8 km/h (1 Bft) S 176 0 min 0,000 mm 0,0 UV-I 0 W/m 9,5 C 10,4 C 4,8 km/h (1 Bft) 100,00 %
14.05.2017 02:54 10,3 C 18,9 C 93 % 1015,7 hPa 0,0 l/m 2,5 km/h (1 Bft) S 176 0 min 0,000 mm 0,0 UV-I 0 W/m 9,2 C 10,3 C 3,2 km/h (1 Bft) 98,00 %
14.05.2017 02:56 10,3 C 18,9 C 94 % 1015,6 hPa 0,0 l/m 1,5 km/h (1 Bft) S 176 0 min 0,000 mm 0,0 UV-I 0 W/m 9,4 C 10,3 C 3,2 km/h (1 Bft) 98,11 %
14.05.2017 02:58 10,3 C 18,3 C 94 % 1015,6 hPa 0,0 l/m 1,9 km/h (1 Bft) S 176 0 min 0,000 mm 0,0 UV-I 0 W/m 9,4 C 10,3 C 3,2 km/h (1 Bft) 100,00 %
14.05.2017 03:00 10,3 C 18,3 C 94 % 1015,7 hPa 0,0 l/m 2,1 km/h (1 Bft) S 176 0 min 0,000 mm 0,0 UV-I 0 W/m 9,4 C 10,3 C 3,2 km/h (1 Bft) 97,37 %
14.05.2017 03:02 10,3 C 18,3 C 94 % 1015,7 hPa 0,0 l/m 2,0 km/h (1 Bft) S 176 0 min 0,000 mm 0,0 UV-I 0 W/m 9,4 C 10,3 C 3,2 km/h (1 Bft) 96,55 %
14.05.2017 03:04 10,3 C 18,3 C 94 % 1015,7 hPa 0,0 l/m 2,2 km/h (1 Bft) S 176 0 min 0,000 mm 0,0 UV-I 0 W/m 9,4 C 10,3 C 4,8 km/h (1 Bft) 100,00 %
14.05.2017 03:06 10,4 C 18,3 C 94 % 1015,7 hPa 0,0 l/m 1,4 km/h (1 Bft) S 176 0 min 0,000 mm 0,0 UV-I 0 W/m 9,5 C 10,4 C 3,2 km/h (1 Bft) 98,00 %
14.05.2017 03:08 10,4 C 18,3 C 94 % 1015,7 hPa 0,0 l/m 2,3 km/h (1 Bft) S 176 0 min 0,000 mm 0,0 UV-I 0 W/m 9,5 C 10,4 C 3,2 km/h (1 Bft) 97,37 %
14.05.2017 03:10 10,4 C 18,3 C 93 % 1015,7 hPa 0,0 l/m 0,8 km/h (0 Bft) S 176 0 min 0,000 mm 0,0 UV-I 0 W/m 9,3 C 10,4 C 3,2 km/h (1 Bft) 98,00 %
14.05.2017 03:12 10,3 C 18,3 C 93 % 1015,8 hPa 0,0 l/m 1,7 km/h (1 Bft) S 176 0 min 0,000 mm 0,0 UV-I 0 W/m 9,2 C 10,3 C 3,2 km/h (1 Bft) 97,87 %
14.05.2017 03:14 10,4 C 18,3 C 94 % 1015,9 hPa 0,0 l/m 1,4 km/h (1 Bft) S 176 0 min 0,000 mm 0,0 UV-I 0 W/m 9,5 C 10,4 C 3,2 km/h (1 Bft) 100,00 %
14.05.2017 03:16 10,4 C 18,3 C 94 % 1015,9 hPa 0,0 l/m 1,3 km/h (1 Bft) S 176 0 min 0,000 mm 0,0 UV-I 0 W/m 9,5 C 10,4 C 3,2 km/h (1 Bft) 97,87 %
14.05.2017 03:18 10,4 C 18,3 C 93 % 1015,9 hPa 0,0 l/m 0,9 km/h (0 Bft) S 176 0 min 0,000 mm 0,0 UV-I 0 W/m 9,3 C 10,4 C 1,6 km/h (1 Bft) 95,74 %
14.05.2017 03:20 10,5 C 18,3 C 93 % 1015,9 hPa 0,0 l/m 1,0 km/h (0 Bft) S 176 0 min 0,000 mm 0,0 UV-I 0 W/m 9,4 C 10,5 C 3,2 km/h (1 Bft) 100,00 %
14.05.2017 03:22 10,6 C 18,3 C 93 % 1015,9 hPa 0,0 l/m 0,5 km/h (0 Bft) S 176 0 min 0,000 mm 0,0 UV-I 0 W/m 9,5 C 10,6 C 1,6 km/h (1 Bft) 97,44 %
14.05.2017 03:24 10,6 C 18,3 C 93 % 1015,9 hPa 0,0 l/m 0,9 km/h (0 Bft) S 176 0 min 0,000 mm 0,0 UV-I 0 W/m 9,5 C 10,6 C 3,2 km/h (1 Bft) 100,00 %
14.05.2017 03:26 10,6 C 18,3 C 93 % 1015,9 hPa 0,0 l/m 1,3 km/h (1 Bft) S 176 0 min 0,000 mm 0,0 UV-I 0 W/m 9,5 C 10,6 C 4,8 km/h (1 Bft) 97,37 %
14.05.2017 03:28 10,6 C 18,3 C 93 % 1015,9 hPa 0,0 l/m 1,2 km/h (1 Bft) S 176 0 min 0,000 mm 0,0 UV-I 0 W/m 9,5 C 10,6 C 3,2 km/h (1 Bft) 100,00 %
14.05.2017 03:30 10,5 C 18,3 C 92 % 1015,9 hPa 0,0 l/m 1,4 km/h (1 Bft) S 176 0 min 0,000 mm 0,0 UV-I 0 W/m 9,3 C 10,5 C 3,2 km/h (1 Bft) 94,64 %
14.05.2017 03:32 10,4 C 18,3 C 92 % 1015,9 hPa 0,0 l/m 1,5 km/h (1 Bft) S 176 0 min 0,000 mm 0,0 UV-I 0 W/m 9,2 C 10,4 C 3,2 km/h (1 Bft) 96,00 %
14.05.2017 03:34 10,3 C 18,3 C 92 % 1015,9 hPa 0,0 l/m 1,7 km/h (1 Bft) S 176 0 min 0,000 mm 0,0 UV-I 0 W/m 9,1 C 10,3 C 3,2 km/h (1 Bft) 97,87 %
14.05.2017 03:36 10,2 C 18,3 C 92 % 1015,9 hPa 0,0 l/m 1,7 km/h (1 Bft) S 176 0 min 0,000 mm 0,0 UV-I 0 W/m 9,0 C 10,2 C 3,2 km/h (1 Bft) 98,11 %
14.05.2017 03:38 10,0 C 18,3 C 93 % 1015,9 hPa 0,0 l/m 3,2 km/h (1 Bft) S 176 0 min 0,000 mm 0,0 UV-I 0 W/m 8,9 C 10,0 C 4,8 km/h (1 Bft) 97,37 %
14.05.2017 03:40 9,9 C 18,3 C 93 % 1016,0 hPa 0,0 l/m 4,4 km/h (1 Bft) S 176 0 min 0,000 mm 0,0 UV-I 0 W/m 8,8 C 9,9 C 6,4 km/h (2 Bft) 96,00 %
14.05.2017 03:42 9,9 C 18,3 C 93 % 1016,0 hPa 0,0 l/m 4,4 km/h (1 Bft) S 176 0 min 0,000 mm 0,0 UV-I 0 W/m 8,8 C 9,9 C 6,4 km/h (2 Bft) 96,00 %
14.05.2017 03:44 9,9 C 18,3 C 94 % 1016,0 hPa 0,0 l/m 4,1 km/h (1 Bft) S 176 0 min 0,000 mm 0,0 UV-I 0 W/m 9,0 C 9,9 C 6,4 km/h (2 Bft) 97,87 %
14.05.2017 03:46 9,9 C 18,3 C 94 % 1016,1 hPa 0,0 l/m 3,8 km/h (1 Bft) S 176 0 min 0,000 mm 0,0 UV-I 0 W/m 9,0 C 9,9 C 4,8 km/h (1 Bft) 95,74 %
14.05.2017 03:48 9,9 C 18,3 C 94 % 1016,1 hPa 0,0 l/m 4,6 km/h (1 Bft) S 176 0 min 0,000 mm 0,0 UV-I 0 W/m 9,0 C 9,9 C 6,4 km/h (2 Bft) 96,00 %
14.05.2017 03:50 9,9 C 18,3 C 94 % 1016,1 hPa 0,0 l/m 3,0 km/h (1 Bft) S 176 0 min 0,000 mm 0,0 UV-I 0 W/m 9,0 C 9,9 C 4,8 km/h (1 Bft) 97,37 %
14.05.2017 03:52 9,9 C 18,3 C 94 % 1016,1 hPa 0,0 l/m 2,7 km/h (1 Bft) S 176 0 min 0,000 mm 0,0 UV-I 0 W/m 9,0 C 9,9 C 6,4 km/h (2 Bft) 92,45 %
14.05.2017 03:54 9,9 C 18,3 C 94 % 1016,1 hPa 0,0 l/m 2,7 km/h (1 Bft) S 177 0 min 0,000 mm 0,0 UV-I 0 W/m 9,0 C 9,9 C 4,8 km/h (1 Bft) 94,74 %
14.05.2017 03:56 10,0 C 18,3 C 94 % 1016,1 hPa 0,0 l/m 2,7 km/h (1 Bft) S 178 0 min 0,000 mm 0,0 UV-I 0 W/m 9,1 C 10,0 C 8,0 km/h (2 Bft) 91,49 %
14.05.2017 03:58 10,1 C 18,3 C 94 % 1016,1 hPa 0,0 l/m 3,1 km/h (1 Bft) S 178 0 min 0,000 mm 0,0 UV-I 0 W/m 9,2 C 10,1 C 4,8 km/h (1 Bft) 94,44 %
14.05.2017 04:00 10,2 C 18,3 C 94 % 1016,1 hPa 0,0 l/m 3,5 km/h (1 Bft) S 180 0 min 0,000 mm 0,0 UV-I 0 W/m 9,3 C 10,2 C 8,0 km/h (2 Bft) 96,88 %
14.05.2017 04:02 10,2 C 18,3 C 94 % 1016,2 hPa 0,0 l/m 5,7 km/h (1 Bft) S 180 0 min 0,000 mm 0,0 UV-I 0 W/m 9,3 C 10,2 C 6,4 km/h (2 Bft) 91,67 %
14.05.2017 04:04 10,3 C 18,3 C 94 % 1016,2 hPa 0,0 l/m 2,7 km/h (1 Bft) S 180 0 min 0,000 mm 0,0 UV-I 0 W/m 9,4 C 10,3 C 4,8 km/h (1 Bft) 95,83 %
14.05.2017 04:06 10,4 C 18,3 C 93 % 1016,1 hPa 0,0 l/m 3,8 km/h (1 Bft) S 182 0 min 0,000 mm 0,0 UV-I 0 W/m 9,3 C 10,4 C 8,0 km/h (2 Bft) 95,45 %
14.05.2017 04:08 10,4 C 18,3 C 93 % 1016,1 hPa 0,0 l/m 2,6 km/h (1 Bft) S 182 0 min 0,000 mm 0,0 UV-I 0 W/m 9,3 C 10,4 C 4,8 km/h (1 Bft) 92,68 %
14.05.2017 04:10 10,5 C 18,3 C 93 % 1016,1 hPa 0,0 l/m 3,0 km/h (1 Bft) S 182 0 min 0,000 mm 0,0 UV-I 0 W/m 9,4 C 10,5 C 4,8 km/h (1 Bft) 94,00 %
14.05.2017 04:12 10,6 C 18,3 C 93 % 1016,2 hPa 0,0 l/m 3,4 km/h (1 Bft) S 183 0 min 0,000 mm 0,0 UV-I 0 W/m 9,5 C 10,6 C 8,0 km/h (2 Bft) 92,00 %
14.05.2017 04:14 10,7 C 18,3 C 93 % 1016,2 hPa 0,0 l/m 4,0 km/h (1 Bft) S 183 0 min 0,000 mm 0,0 UV-I 0 W/m 9,6 C 10,7 C 6,4 km/h (2 Bft) 96,00 %
14.05.2017 04:16 10,7 C 18,3 C 92 % 1016,2 hPa 0,0 l/m 1,9 km/h (1 Bft) S 183 0 min 0,000 mm 0,0 UV-I 0 W/m 9,5 C 10,7 C 4,8 km/h (1 Bft) 97,37 %
14.05.2017 04:18 10,7 C 18,3 C 92 % 1016,2 hPa 0,0 l/m 1,7 km/h (1 Bft) S 183 0 min 0,000 mm 0,0 UV-I 0 W/m 9,5 C 10,7 C 4,8 km/h (1 Bft) 96,00 %
14.05.2017 04:20 10,7 C 18,3 C 92 % 1016,3 hPa 0,0 l/m 2,4 km/h (1 Bft) S 183 0 min 0,000 mm 0,0 UV-I 0 W/m 9,5 C 10,7 C 4,8 km/h (1 Bft) 98,11 %
14.05.2017 04:22 10,7 C 18,3 C 92 % 1016,3 hPa 0,0 l/m 1,7 km/h (1 Bft) S 183 0 min 0,000 mm 0,0 UV-I 0 W/m 9,5 C 10,7 C 3,2 km/h (1 Bft) 95,45 %
14.05.2017 04:24 10,6 C 18,3 C 92 % 1016,3 hPa 0,0 l/m 1,3 km/h (1 Bft) S 183 0 min 0,000 mm 0,0 UV-I 0 W/m 9,4 C 10,6 C 3,2 km/h (1 Bft) 97,56 %
14.05.2017 04:26 10,3 C 18,3 C 91 % 1016,5 hPa 0,0 l/m 1,0 km/h (0 Bft) S 183 0 min 0,000 mm 0,0 UV-I 0 W/m 8,9 C 10,3 C 3,2 km/h (1 Bft) 96,23 %
14.05.2017 04:28 10,1 C 18,3 C 91 % 1016,4 hPa 0,0 l/m 0,9 km/h (0 Bft) S 183 0 min 0,000 mm 0,0 UV-I 0 W/m 8,7 C 10,1 C 3,2 km/h (1 Bft) 95,74 %
14.05.2017 04:30 9,9 C 18,3 C 92 % 1016,5 hPa 0,0 l/m 2,1 km/h (1 Bft) S 183 0 min 0,000 mm 0,0 UV-I 0 W/m 8,7 C 9,9 C 4,8 km/h (1 Bft) 95,74 %
14.05.2017 04:32 9,9 C 18,3 C 92 % 1016,5 hPa 0,0 l/m 2,8 km/h (1 Bft) S 183 0 min 0,000 mm 0,0 UV-I 0 W/m 8,7 C 9,9 C 4,8 km/h (1 Bft) 98,00 %
14.05.2017 04:34 9,8 C 18,3 C 92 % 1016,5 hPa 0,0 l/m 1,4 km/h (1 Bft) S 183 0 min 0,000 mm 0,0 UV-I 0 W/m 8,6 C 9,8 C 3,2 km/h (1 Bft) 95,12 %
14.05.2017 04:36 9,9 C 18,3 C 93 % 1016,4 hPa 0,0 l/m 1,9 km/h (1 Bft) S 183 0 min 0,000 mm 0,0 UV-I 0 W/m 8,8 C 9,9 C 3,2 km/h (1 Bft) 96,30 %
14.05.2017 04:38 9,9 C 18,3 C 93 % 1016,4 hPa 0,0 l/m 0,6 km/h (0 Bft) S 183 0 min 0,000 mm 0,0 UV-I 0 W/m 8,8 C 9,9 C 3,2 km/h (1 Bft) 96,92 %
14.05.2017 04:40 10,0 C 18,3 C 93 % 1016,3 hPa 0,0 l/m 0,4 km/h (0 Bft) S 183 0 min 0,000 mm 0,0 UV-I 0 W/m 8,9 C 10,0 C 1,6 km/h (1 Bft) 93,88 %
14.05.2017 04:42 10,0 C 18,3 C 93 % 1016,4 hPa 0,0 l/m 0,0 km/h (0 Bft) S 183 0 min 0,000 mm 0,0 UV-I 0 W/m 8,9 C 10,0 C 0,0 km/h (0 Bft) 98,00 %
14.05.2017 04:44 10,0 C 18,3 C 93 % 1016,4 hPa 0,0 l/m 0,1 km/h (0 Bft) S 183 0 min 0,000 mm 0,0 UV-I 0 W/m 8,9 C 10,0 C 1,6 km/h (1 Bft) 93,75 %
14.05.2017 04:46 10,0 C 18,3 C 93 % 1016,4 hPa 0,0 l/m 0,0 km/h (0 Bft) S 183 0 min 0,000 mm 0,0 UV-I 0 W/m 8,9 C 10,0 C 0,0 km/h (0 Bft) 100,00 %
14.05.2017 04:48 9,9 C 18,3 C 93 % 1016,5 hPa 0,0 l/m 0,0 km/h (0 Bft) S 183 0 min 0,000 mm 0,0 UV-I 0 W/m 8,8 C 9,9 C 0,0 km/h (0 Bft) 94,55 %
14.05.2017 04:50 9,9 C 18,3 C 93 % 1016,5 hPa 0,0 l/m 0,0 km/h (0 Bft) S 183 0 min 0,000 mm 0,0 UV-I 0 W/m 8,8 C 9,9 C 0,0 km/h (0 Bft) 96,00 %
14.05.2017 04:52 9,8 C 18,3 C 93 % 1016,5 hPa 0,0 l/m 0,0 km/h (0 Bft) S 183 0 min 0,000 mm 0,0 UV-I 0 W/m 8,7 C 9,8 C 0,0 km/h (0 Bft) 95,12 %
14.05.2017 04:54 9,7 C 18,3 C 93 % 1016,6 hPa 0,0 l/m 0,8 km/h (0 Bft) S 183 0 min 0,000 mm 0,0 UV-I 0 W/m 8,6 C 9,7 C 3,2 km/h (1 Bft) 98,00 %
14.05.2017 04:56 9,6 C 18,3 C 93 % 1016,6 hPa 0,0 l/m 1,3 km/h (1 Bft) S 183 0 min 0,000 mm 0,0 UV-I 0 W/m 8,5 C 9,6 C 1,6 km/h (1 Bft) 98,00 %
14.05.2017 04:58 9,5 C 18,3 C 93 % 1016,7 hPa 0,0 l/m 1,6 km/h (1 Bft) S 183 0 min 0,000 mm 0,0 UV-I 0 W/m 8,4 C 9,5 C 3,2 km/h (1 Bft) 100,00 %
14.05.2017 05:00 9,4 C 18,3 C 94 % 1016,7 hPa 0,0 l/m 2,5 km/h (1 Bft) S 183 0 min 0,000 mm 0,0 UV-I 0 W/m 8,5 C 9,4 C 3,2 km/h (1 Bft) 97,87 %
14.05.2017 05:02 9,4 C 18,3 C 94 % 1016,7 hPa 0,0 l/m 3,1 km/h (1 Bft) S 183 0 min 0,000 mm 0,0 UV-I 0 W/m 8,5 C 9,4 C 6,4 km/h (2 Bft) 97,87 %
14.05.2017 05:04 9,4 C 18,3 C 94 % 1016,8 hPa 0,0 l/m 2,8 km/h (1 Bft) S 183 0 min 0,000 mm 0,0 UV-I 0 W/m 8,5 C 9,4 C 4,8 km/h (1 Bft) 98,00 %
14.05.2017 05:06 9,4 C 18,3 C 94 % 1016,8 hPa 0,0 l/m 2,7 km/h (1 Bft) S 183 0 min 0,000 mm 0,0 UV-I 0 W/m 8,5 C 9,4 C 4,8 km/h (1 Bft) 97,87 %
14.05.2017 05:08 9,5 C 18,3 C 94 % 1016,9 hPa 0,0 l/m 0,9 km/h (0 Bft) S 183 0 min 0,000 mm 0,0 UV-I 0 W/m 8,6 C 9,5 C 3,2 km/h (1 Bft) 100,00 %
14.05.2017 05:10 9,3 C 18,3 C 93 % 1016,9 hPa 0,0 l/m 1,4 km/h (1 Bft) S 183 0 min 0,000 mm 0,0 UV-I 1 W/m 8,2 C 9,3 C 3,2 km/h (1 Bft) 100,00 %
14.05.2017 05:12 8,9 C 18,3 C 93 % 1017,0 hPa 0,0 l/m 0,5 km/h (0 Bft) S 183 0 min 0,000 mm 0,0 UV-I 5 W/m 7,8 C 8,9 C 1,6 km/h (1 Bft) 100,00 %
14.05.2017 05:14 8,7 C 18,3 C 93 % 1017,0 hPa 0,0 l/m 0,7 km/h (0 Bft) S 183 0 min 0,000 mm 0,0 UV-I 5 W/m 7,6 C 8,7 C 1,6 km/h (1 Bft) 97,87 %
14.05.2017 05:16 8,6 C 18,3 C 94 % 1017,0 hPa 0,0 l/m 1,3 km/h (1 Bft) S 183 0 min 0,000 mm 0,0 UV-I 5 W/m 7,7 C 8,6 C 3,2 km/h (1 Bft) 100,00 %
14.05.2017 05:18 8,7 C 18,3 C 94 % 1017,0 hPa 0,0 l/m 3,1 km/h (1 Bft) S 183 0 min 0,000 mm 0,0 UV-I 5 W/m 7,8 C 8,7 C 4,8 km/h (1 Bft) 98,18 %
14.05.2017 05:20 8,8 C 18,3 C 95 % 1017,1 hPa 0,0 l/m 3,8 km/h (1 Bft) S 183 0 min 0,000 mm 0,0 UV-I 7 W/m 8,0 C 8,8 C 4,8 km/h (1 Bft) 100,00 %
14.05.2017 05:22 8,9 C 18,3 C 95 % 1017,1 hPa 0,0 l/m 3,4 km/h (1 Bft) S 183 0 min 0,000 mm 0,0 UV-I 7 W/m 8,1 C 8,9 C 4,8 km/h (1 Bft) 97,22 %
14.05.2017 05:24 9,0 C 18,3 C 95 % 1017,1 hPa 0,0 l/m 4,0 km/h (1 Bft) S 183 0 min 0,000 mm 0,0 UV-I 8 W/m 8,2 C 9,0 C 4,8 km/h (1 Bft) 100,00 %
14.05.2017 05:26 8,9 C 18,3 C 95 % 1017,1 hPa 0,0 l/m 3,5 km/h (1 Bft) S 183 0 min 0,000 mm 0,0 UV-I 9 W/m 8,1 C 8,9 C 4,8 km/h (1 Bft) 98,04 %
14.05.2017 05:28 8,9 C 18,3 C 95 % 1017,1 hPa 0,0 l/m 2,3 km/h (1 Bft) S 183 0 min 0,000 mm 0,0 UV-I 10 W/m 8,1 C 8,9 C 4,8 km/h (1 Bft) 98,00 %
14.05.2017 05:30 8,9 C 18,3 C 95 % 1017,1 hPa 0,0 l/m 1,2 km/h (1 Bft) S 183 0 min 0,000 mm 0,0 UV-I 11 W/m 8,1 C 8,9 C 3,2 km/h (1 Bft) 100,00 %
14.05.2017 05:32 9,0 C 18,3 C 95 % 1017,2 hPa 0,0 l/m 1,1 km/h (1 Bft) S 183 0 min 0,000 mm 0,0 UV-I 12 W/m 8,2 C 9,0 C 3,2 km/h (1 Bft) 96,23 %
14.05.2017 05:34 9,1 C 18,3 C 95 % 1017,1 hPa 0,0 l/m 1,1 km/h (1 Bft) S 183 0 min 0,000 mm 0,0 UV-I 14 W/m 8,3 C 9,1 C 1,6 km/h (1 Bft) 97,56 %
14.05.2017 05:36 9,1 C 18,3 C 95 % 1017,1 hPa 0,0 l/m 1,7 km/h (1 Bft) S 183 0 min 0,000 mm 0,0 UV-I 18 W/m 8,3 C 9,1 C 3,2 km/h (1 Bft) 100,00 %
14.05.2017 05:38 9,1 C 18,3 C 95 % 1017,2 hPa 0,0 l/m 1,8 km/h (1 Bft) S 183 2 min 0,000 mm 0,0 UV-I 20 W/m 8,3 C 9,1 C 3,2 km/h (1 Bft) 100,00 %
14.05.2017 05:40 9,2 C 18,3 C 95 % 1017,2 hPa 0,0 l/m 2,3 km/h (1 Bft) S 183 2 min 0,000 mm 0,0 UV-I 24 W/m 8,4 C 9,2 C 4,8 km/h (1 Bft) 100,00 %
14.05.2017 05:42 9,3 C 18,3 C 95 % 1017,2 hPa 0,0 l/m 3,0 km/h (1 Bft) S 183 2 min 0,000 mm 0,0 UV-I 27 W/m 8,5 C 9,3 C 4,8 km/h (1 Bft) 93,62 %
14.05.2017 05:44 9,4 C 18,3 C 95 % 1017,2 hPa 0,0 l/m 2,7 km/h (1 Bft) S 183 2 min 0,000 mm 0,0 UV-I 31 W/m 8,6 C 9,4 C 4,8 km/h (1 Bft) 97,87 %
14.05.2017 05:46 9,5 C 18,3 C 95 % 1017,3 hPa 0,0 l/m 3,3 km/h (1 Bft) S 183 2 min 0,000 mm 0,0 UV-I 33 W/m 8,7 C 9,5 C 4,8 km/h (1 Bft) 95,74 %
14.05.2017 05:48 9,6 C 18,3 C 95 % 1017,4 hPa 0,0 l/m 3,5 km/h (1 Bft) S 183 2 min 0,000 mm 0,0 UV-I 37 W/m 8,8 C 9,6 C 4,8 km/h (1 Bft) 97,56 %
14.05.2017 05:50 9,7 C 18,3 C 95 % 1017,4 hPa 0,0 l/m 5,3 km/h (1 Bft) SW 219 2 min 0,000 mm 0,0 UV-I 39 W/m 8,9 C 9,7 C 6,4 km/h (2 Bft) 94,87 %
14.05.2017 05:52 9,7 C 18,3 C 95 % 1017,5 hPa 0,0 l/m 5,6 km/h (1 Bft) SW 234 2 min 0,000 mm 0,0 UV-I 36 W/m 8,9 C 9,7 C 8,0 km/h (2 Bft) 96,88 %
14.05.2017 05:54 9,7 C 18,3 C 95 % 1017,6 hPa 0,0 l/m 5,1 km/h (1 Bft) SW 232 0 min 0,000 mm 0,0 UV-I 30 W/m 8,9 C 9,7 C 6,4 km/h (2 Bft) 98,00 %
14.05.2017 05:56 9,7 C 18,3 C 94 % 1017,7 hPa 0,0 l/m 5,2 km/h (1 Bft) SW 228 0 min 0,000 mm 0,0 UV-I 29 W/m 8,8 C 9,7 C 6,4 km/h (2 Bft) 95,74 %
14.05.2017 05:58 9,6 C 18,3 C 94 % 1017,7 hPa 0,0 l/m 5,4 km/h (1 Bft) SW 227 0 min 0,000 mm 0,0 UV-I 31 W/m 8,7 C 9,6 C 8,0 km/h (2 Bft) 97,73 %
14.05.2017 06:00 9,6 C 18,3 C 94 % 1017,7 hPa 0,0 l/m 5,0 km/h (1 Bft) SW 225 0 min 0,000 mm 0,0 UV-I 34 W/m 8,7 C 9,6 C 8,0 km/h (2 Bft) 95,24 %
14.05.2017 06:02 9,6 C 18,3 C 94 % 1017,8 hPa 0,0 l/m 4,8 km/h (1 Bft) SW 225 0 min 0,000 mm 0,0 UV-I 42 W/m 8,7 C 9,6 C 6,4 km/h (2 Bft) 97,87 %
14.05.2017 06:04 9,7 C 18,3 C 95 % 1017,9 hPa 0,0 l/m 5,9 km/h (2 Bft) SW 217 0 min 0,000 mm 0,0 UV-I 39 W/m 8,9 C 9,7 C 9,7 km/h (2 Bft) 96,23 %
14.05.2017 06:06 9,8 C 18,3 C 94 % 1017,9 hPa 0,0 l/m 6,8 km/h (2 Bft) SW 217 0 min 0,000 mm 0,0 UV-I 45 W/m 8,9 C 9,5 C 9,7 km/h (2 Bft) 97,37 %
14.05.2017 06:08 9,8 C 18,3 C 94 % 1017,9 hPa 0,0 l/m 5,8 km/h (2 Bft) S-SW 213 0 min 0,000 mm 0,0 UV-I 49 W/m 8,9 C 9,8 C 8,0 km/h (2 Bft) 96,23 %
14.05.2017 06:10 9,9 C 18,3 C 94 % 1018,0 hPa 0,0 l/m 4,5 km/h (1 Bft) SW 228 0 min 0,000 mm 0,0 UV-I 51 W/m 9,0 C 9,9 C 6,4 km/h (2 Bft) 93,62 %
14.05.2017 06:12 10,0 C 18,3 C 95 % 1018,0 hPa 0,0 l/m 5,7 km/h (1 Bft) SW 236 2 min 0,000 mm 0,0 UV-I 67 W/m 9,2 C 10,0 C 9,7 km/h (2 Bft) 93,62 %
14.05.2017 06:14 10,1 C 18,3 C 94 % 1018,0 hPa 0,0 l/m 5,1 km/h (1 Bft) SW 234 2 min 0,000 mm 0,0 UV-I 73 W/m 9,2 C 10,1 C 6,4 km/h (2 Bft) 94,00 %
14.05.2017 06:16 10,2 C 18,3 C 94 % 1018,0 hPa 0,0 l/m 5,0 km/h (1 Bft) SW 232 2 min 0,000 mm 0,0 UV-I 92 W/m 9,3 C 10,2 C 8,0 km/h (2 Bft) 97,14 %
14.05.2017 06:18 10,3 C 18,3 C 94 % 1018,0 hPa 0,0 l/m 7,4 km/h (2 Bft) W-SW 240 2 min 0,000 mm 0,0 UV-I 138 W/m 9,4 C 9,6 C 12,9 km/h (3 Bft) 96,00 %
14.05.2017 06:20 10,4 C 18,3 C 94 % 1018,1 hPa 0,0 l/m 8,3 km/h (2 Bft) S-SW 208 2 min 0,000 mm 0,0 UV-I 153 W/m 9,5 C 9,1 C 16,1 km/h (3 Bft) 98,21 %
14.05.2017 06:22 10,5 C 18,3 C 94 % 1018,1 hPa 0,0 l/m 9,7 km/h (2 Bft) SW 225 2 min 0,000 mm 0,0 UV-I 144 W/m 9,6 C 8,3 C 16,1 km/h (3 Bft) 97,87 %
14.05.2017 06:24 10,6 C 18,3 C 94 % 1018,1 hPa 0,0 l/m 8,9 km/h (2 Bft) W-SW 243 2 min 0,000 mm 0,0 UV-I 121 W/m 9,7 C 8,9 C 14,5 km/h (3 Bft) 97,14 %
14.05.2017 06:26 10,7 C 18,3 C 93 % 1018,1 hPa 0,0 l/m 7,9 km/h (2 Bft) SW 235 2 min 0,000 mm 0,0 UV-I 118 W/m 9,6 C 9,7 C 12,9 km/h (3 Bft) 96,43 %
14.05.2017 06:28 10,8 C 18,3 C 93 % 1018,1 hPa 0,0 l/m 7,1 km/h (2 Bft) W-SW 242 2 min 0,000 mm 0,0 UV-I 111 W/m 9,7 C 10,3 C 12,9 km/h (3 Bft) 96,00 %
14.05.2017 06:30 10,9 C 18,3 C 93 % 1018,2 hPa 0,0 l/m 11,1 km/h (2 Bft) SW 228 2 min 0,000 mm 0,0 UV-I 103 W/m 9,8 C 8,0 C 16,1 km/h (3 Bft) 100,00 %
14.05.2017 06:32 10,9 C 18,3 C 93 % 1018,2 hPa 0,0 l/m 12,4 km/h (3 Bft) SW 223 2 min 0,000 mm 0,0 UV-I 99 W/m 9,8 C 7,4 C 19,3 km/h (3 Bft) 100,00 %
14.05.2017 06:34 10,9 C 18,3 C 93 % 1018,3 hPa 0,0 l/m 10,9 km/h (2 Bft) W-SW 250 2 min 0,000 mm 0,0 UV-I 98 W/m 9,8 C 8,1 C 17,7 km/h (3 Bft) 100,00 %
14.05.2017 06:36 10,9 C 18,3 C 93 % 1018,4 hPa 0,0 l/m 12,7 km/h (3 Bft) W-SW 250 2 min 0,000 mm 0,0 UV-I 97 W/m 9,8 C 7,2 C 19,3 km/h (3 Bft) 97,62 %
14.05.2017 06:38 11,0 C 18,3 C 93 % 1018,5 hPa 0,0 l/m 12,0 km/h (2 Bft) SW 217 0 min 0,000 mm 0,0 UV-I 90 W/m 9,9 C 7,7 C 17,7 km/h (3 Bft) 98,18 %
14.05.2017 06:40 11,0 C 18,3 C 92 % 1018,5 hPa 0,0 l/m 11,3 km/h (2 Bft) SW 234 0 min 0,000 mm 0,0 UV-I 89 W/m 9,8 C 8,0 C 19,3 km/h (3 Bft) 97,44 %
14.05.2017 06:42 11,1 C 18,3 C 93 % 1018,5 hPa 0,0 l/m 7,1 km/h (2 Bft) W-SW 258 0 min 0,000 mm 0,0 UV-I 80 W/m 10,0 C 10,6 C 11,3 km/h (2 Bft) 100,00 %
14.05.2017 06:44 11,1 C 18,3 C 92 % 1018,6 hPa 0,0 l/m 11,0 km/h (2 Bft) W-SW 243 0 min 0,000 mm 0,0 UV-I 73 W/m 9,8 C 8,3 C 16,1 km/h (3 Bft) 97,87 %
14.05.2017 06:46 11,1 C 18,3 C 92 % 1018,6 hPa 0,0 l/m 11,6 km/h (2 Bft) W-SW 238 0 min 0,000 mm 0,0 UV-I 69 W/m 9,8 C 8,0 C 17,7 km/h (3 Bft) 100,00 %
14.05.2017 06:48 11,1 C 18,3 C 92 % 1018,7 hPa 0,0 l/m 9,5 km/h (2 Bft) W-SW 238 0 min 0,000 mm 0,0 UV-I 70 W/m 9,8 C 9,1 C 14,5 km/h (3 Bft) 100,00 %
14.05.2017 06:50 11,1 C 18,3 C 92 % 1018,7 hPa 0,0 l/m 10,0 km/h (2 Bft) SW 228 0 min 0,000 mm 0,0 UV-I 73 W/m 9,8 C 8,8 C 14,5 km/h (3 Bft) 100,00 %
14.05.2017 06:52 11,2 C 18,3 C 92 % 1018,8 hPa 0,0 l/m 10,3 km/h (2 Bft) S-SW 211 0 min 0,000 mm 0,0 UV-I 116 W/m 9,9 C 8,8 C 14,5 km/h (3 Bft) 100,00 %
14.05.2017 06:54 11,2 C 18,3 C 92 % 1018,8 hPa 0,0 l/m 9,6 km/h (2 Bft) SW 224 2 min 0,000 mm 0,0 UV-I 183 W/m 9,9 C 9,1 C 16,1 km/h (3 Bft) 95,74 %
14.05.2017 06:56 11,3 C 18,3 C 92 % 1018,8 hPa 0,0 l/m 8,6 km/h (2 Bft) W-SW 249 2 min 0,000 mm 0,0 UV-I 186 W/m 10,0 C 9,8 C 12,9 km/h (3 Bft) 100,00 %
14.05.2017 06:58 11,4 C 18,3 C 92 % 1018,8 hPa 0,0 l/m 9,9 km/h (2 Bft) W-SW 250 2 min 0,000 mm 0,0 UV-I 196 W/m 10,1 C 9,2 C 16,1 km/h (3 Bft) 98,11 %
14.05.2017 07:00 11,6 C 18,3 C 92 % 1018,8 hPa 0,0 l/m 9,7 km/h (2 Bft) W-SW 248 2 min 0,051 mm 0,0 UV-I 206 W/m 10,3 C 9,5 C 14,5 km/h (3 Bft) 100,00 %
14.05.2017 07:03 11,9 C 18,3 C 92 % 1018,8 hPa 0,0 l/m 11,1 km/h (2 Bft) W 259 3 min 0,000 mm 0,0 UV-I 208 W/m 10,6 C 9,1 C 14,5 km/h (3 Bft) 95,77 %
14.05.2017 07:04 12,0 C 18,3 C 91 % 1018,8 hPa 0,0 l/m 10,5 km/h (2 Bft) W-SW 255 1 min 0,000 mm 0,0 UV-I 206 W/m 10,6 C 9,5 C 14,5 km/h (3 Bft) 100,00 %
14.05.2017 07:06 12,1 C 18,3 C 91 % 1018,8 hPa 0,0 l/m 11,4 km/h (2 Bft) SW 229 2 min 0,000 mm 0,0 UV-I 208 W/m 10,7 C 9,2 C 17,7 km/h (3 Bft) 100,00 %
14.05.2017 07:08 12,3 C 18,3 C 91 % 1018,8 hPa 0,0 l/m 11,3 km/h (2 Bft) W-SW 240 2 min 0,000 mm 0,0 UV-I 218 W/m 10,9 C 9,5 C 17,7 km/h (3 Bft) 98,00 %
14.05.2017 07:10 12,4 C 18,3 C 90 % 1018,8 hPa 0,0 l/m 12,3 km/h (3 Bft) SW 217 2 min 0,000 mm 0,0 UV-I 233 W/m 10,8 C 9,1 C 17,7 km/h (3 Bft) 98,00 %
14.05.2017 07:12 12,6 C 18,3 C 90 % 1018,8 hPa 0,0 l/m 9,5 km/h (2 Bft) S-SW 210 2 min 0,000 mm 0,0 UV-I 240 W/m 11,0 C 10,7 C 12,9 km/h (3 Bft) 95,83 %
14.05.2017 07:14 12,7 C 18,3 C 90 % 1018,8 hPa 0,0 l/m 9,8 km/h (2 Bft) W 270 2 min 0,000 mm 0,0 UV-I 243 W/m 11,1 C 10,7 C 14,5 km/h (3 Bft) 98,57 %
14.05.2017 07:16 12,9 C 18,3 C 89 % 1018,9 hPa 0,0 l/m 11,5 km/h (2 Bft) SW 226 2 min 0,000 mm 0,0 UV-I 240 W/m 11,1 C 10,1 C 17,7 km/h (3 Bft) 100,00 %
14.05.2017 07:18 13,0 C 18,3 C 89 % 1018,8 hPa 0,0 l/m 9,0 km/h (2 Bft) W 261 2 min 0,000 mm 0,0 UV-I 246 W/m 11,2 C 11,4 C 12,9 km/h (3 Bft) 97,01 %
14.05.2017 07:20 13,1 C 18,3 C 88 % 1018,9 hPa 0,0 l/m 11,8 km/h (2 Bft) W-SW 237 2 min 0,000 mm 0,0 UV-I 255 W/m 11,2 C 10,2 C 17,7 km/h (3 Bft) 95,83 %
14.05.2017 07:22 13,2 C 18,3 C 88 % 1018,9 hPa 0,0 l/m 10,0 km/h (2 Bft) S 188 2 min 0,000 mm 0,0 UV-I 263 W/m 11,3 C 11,1 C 16,1 km/h (3 Bft) 97,96 %
14.05.2017 07:24 13,3 C 18,3 C 88 % 1018,9 hPa 0,0 l/m 11,6 km/h (2 Bft) S-SW 196 2 min 0,000 mm 0,0 UV-I 269 W/m 11,4 C 10,5 C 19,3 km/h (3 Bft) 100,00 %
14.05.2017 07:26 13,3 C 18,3 C 88 % 1018,9 hPa 0,0 l/m 10,1 km/h (2 Bft) W 263 2 min 0,000 mm 0,0 UV-I 268 W/m 11,4 C 11,2 C 16,1 km/h (3 Bft) 100,00 %
14.05.2017 07:28 13,4 C 18,3 C 87 % 1018,9 hPa 0,0 l/m 8,1 km/h (2 Bft) W-SW 244 2 min 0,000 mm 0,0 UV-I 205 W/m 11,3 C 12,4 C 12,9 km/h (3 Bft) 97,56 %
14.05.2017 07:30 13,3 C 18,3 C 87 % 1018,9 hPa 0,0 l/m 8,4 km/h (2 Bft) SW 232 0 min 0,000 mm 0,0 UV-I 132 W/m 11,2 C 12,1 C 12,9 km/h (3 Bft) 98,00 %
14.05.2017 07:32 13,3 C 18,3 C 87 % 1019,0 hPa 0,0 l/m 8,9 km/h (2 Bft) W-SW 246 2 min 0,000 mm 0,5 UV-I 192 W/m 11,2 C 11,8 C 14,5 km/h (3 Bft) 94,00 %
14.05.2017 07:34 13,4 C 18,3 C 88 % 1019,0 hPa 0,0 l/m 9,3 km/h (2 Bft) W-SW 240 2 min 0,000 mm 0,5 UV-I 327 W/m 11,5 C 11,7 C 14,5 km/h (3 Bft) 95,45 %
14.05.2017 07:36 13,5 C 18,3 C 88 % 1019,0 hPa 0,0 l/m 8,2 km/h (2 Bft) S-SW 211 2 min 0,000 mm 0,5 UV-I 344 W/m 11,6 C 12,4 C 12,9 km/h (3 Bft) 95,74 %
14.05.2017 07:39 13,6 C 18,3 C 87 % 1019,0 hPa 0,0 l/m 7,9 km/h (2 Bft) W-SW 244 3 min 0,000 mm 0,6 UV-I 282 W/m 11,5 C 12,7 C 14,5 km/h (3 Bft) 96,92 %
14.05.2017 07:40 13,7 C 18,3 C 87 % 1019,0 hPa 0,0 l/m 9,7 km/h (2 Bft) SW 214 1 min 0,000 mm 0,5 UV-I 311 W/m 11,6 C 11,8 C 14,5 km/h (3 Bft) 92,31 %
14.05.2017 07:44 13,7 C 18,3 C 87 % 1019,0 hPa 0,0 l/m 10,0 km/h (2 Bft) W-SW 240 4 min 0,000 mm 0,6 UV-I 226 W/m 11,6 C 11,7 C 16,1 km/h (3 Bft) 94,51 %
14.05.2017 07:46 13,7 C 18,3 C 88 % 1019,0 hPa 0,0 l/m 10,3 km/h (2 Bft) S-SW 208 0 min 0,000 mm 0,6 UV-I 131 W/m 11,7 C 11,5 C 14,5 km/h (3 Bft) 95,74 %
14.05.2017 07:48 13,8 C 18,3 C 88 % 1019,0 hPa 0,0 l/m 11,2 km/h (2 Bft) W-SW 238 2 min 0,000 mm 0,6 UV-I 258 W/m 11,8 C 11,2 C 16,1 km/h (3 Bft) 90,00 %
14.05.2017 07:50 14,0 C 18,3 C 88 % 1019,0 hPa 0,0 l/m 8,9 km/h (2 Bft) SW 236 2 min 0,000 mm 0,7 UV-I 325 W/m 12,0 C 12,6 C 12,9 km/h (3 Bft) 96,23 %
14.05.2017 07:52 14,2 C 18,3 C 87 % 1019,1 hPa 0,0 l/m 12,7 km/h (3 Bft) S-SW 209 2 min 0,000 mm 0,7 UV-I 310 W/m 12,1 C 11,1 C 17,7 km/h (3 Bft) 94,74 %
14.05.2017 07:54 14,3 C 18,3 C 87 % 1019,1 hPa 0,0 l/m 11,1 km/h (2 Bft) SW 234 2 min 0,000 mm 0,7 UV-I 351 W/m 12,2 C 11,8 C 16,1 km/h (3 Bft) 91,07 %
14.05.2017 07:56 14,4 C 18,3 C 85 % 1019,1 hPa 0,0 l/m 10,9 km/h (2 Bft) W-SW 252 2 min 0,000 mm 0,7 UV-I 350 W/m 11,9 C 12,0 C 17,7 km/h (3 Bft) 88,64 %
14.05.2017 07:58 14,5 C 18,3 C 85 % 1019,1 hPa 0,0 l/m 8,9 km/h (2 Bft) SW 236 2 min 0,000 mm 0,8 UV-I 349 W/m 12,0 C 13,1 C 19,3 km/h (3 Bft) 95,24 %
14.05.2017 08:00 14,6 C 18,3 C 85 % 1019,1 hPa 0,0 l/m 11,9 km/h (2 Bft) W-SW 256 2 min 0,152 mm 0,8 UV-I 338 W/m 12,1 C 11,9 C 17,7 km/h (3 Bft) 96,55 %
14.05.2017 08:02 14,7 C 18,3 C 85 % 1019,2 hPa 0,0 l/m 10,6 km/h (2 Bft) S-SW 207 2 min 0,000 mm 0,8 UV-I 357 W/m 12,2 C 12,5 C 17,7 km/h (3 Bft) 87,69 %
14.05.2017 08:04 14,8 C 18,3 C 85 % 1019,2 hPa 0,0 l/m 9,0 km/h (2 Bft) W-SW 242 2 min 0,000 mm 0,8 UV-I 372 W/m 12,3 C 13,4 C 16,1 km/h (3 Bft) 96,23 %
14.05.2017 08:06 14,9 C 18,3 C 84 % 1019,2 hPa 0,0 l/m 9,2 km/h (2 Bft) SW 218 2 min 0,000 mm 0,9 UV-I 379 W/m 12,2 C 13,4 C 14,5 km/h (3 Bft) 95,74 %
14.05.2017 08:08 14,9 C 18,3 C 84 % 1019,3 hPa 0,0 l/m 11,1 km/h (2 Bft) SW 214 2 min 0,000 mm 0,9 UV-I 366 W/m 12,2 C 12,5 C 16,1 km/h (3 Bft) 91,49 %
14.05.2017 08:10 15,1 C 18,3 C 84 % 1019,3 hPa 0,0 l/m 10,7 km/h (2 Bft) S-SW 213 2 min 0,000 mm 0,9 UV-I 395 W/m 12,4 C 12,9 C 17,7 km/h (3 Bft) 89,47 %
14.05.2017 08:12 15,2 C 18,3 C 84 % 1019,2 hPa 0,0 l/m 9,8 km/h (2 Bft) W-SW 237 2 min 0,000 mm 0,9 UV-I 318 W/m 12,5 C 13,4 C 16,1 km/h (3 Bft) 85,71 %
14.05.2017 08:14 15,2 C 18,3 C 84 % 1019,3 hPa 0,0 l/m 8,2 km/h (2 Bft) S-SW 196 2 min 0,000 mm 0,9 UV-I 325 W/m 12,5 C 14,2 C 12,9 km/h (3 Bft) 92,11 %
14.05.2017 08:16 15,3 C 18,3 C 83 % 1019,3 hPa 0,0 l/m 10,9 km/h (2 Bft) W-SW 242 2 min 0,000 mm 0,9 UV-I 420 W/m 12,4 C 13,1 C 17,7 km/h (3 Bft) 90,91 %
14.05.2017 08:18 15,3 C 18,3 C 83 % 1019,3 hPa 0,0 l/m 11,3 km/h (2 Bft) W-SW 238 2 min 0,000 mm 1,0 UV-I 452 W/m 12,4 C 12,9 C 17,7 km/h (3 Bft) 96,23 %
14.05.2017 08:20 15,3 C 18,3 C 83 % 1019,3 hPa 0,0 l/m 8,2 km/h (2 Bft) SW 215 2 min 0,000 mm 1,0 UV-I 377 W/m 12,4 C 14,3 C 14,5 km/h (3 Bft) 98,00 %
14.05.2017 08:22 15,3 C 18,3 C 83 % 1019,3 hPa 0,0 l/m 10,2 km/h (2 Bft) S-SW 197 2 min 0,000 mm 0,9 UV-I 412 W/m 12,4 C 13,4 C 19,3 km/h (3 Bft) 97,37 %
14.05.2017 08:24 15,3 C 18,3 C 83 % 1019,3 hPa 0,0 l/m 12,2 km/h (2 Bft) W-SW 244 2 min 0,000 mm 0,9 UV-I 308 W/m 12,4 C 12,5 C 19,3 km/h (3 Bft) 89,47 %
14.05.2017 08:26 15,4 C 18,3 C 83 % 1019,4 hPa 0,0 l/m 9,4 km/h (2 Bft) SW 234 2 min 0,000 mm 0,9 UV-I 309 W/m 12,5 C 13,8 C 16,1 km/h (3 Bft) 98,46 %
14.05.2017 08:28 15,4 C 18,3 C 83 % 1019,4 hPa 0,0 l/m 10,1 km/h (2 Bft) S 182 2 min 0,000 mm 0,9 UV-I 302 W/m 12,5 C 13,5 C 16,1 km/h (3 Bft) 100,00 %
14.05.2017 08:30 15,4 C 18,3 C 82 % 1019,4 hPa 0,0 l/m 10,2 km/h (2 Bft) SW 223 2 min 0,000 mm 0,9 UV-I 314 W/m 12,3 C 13,5 C 16,1 km/h (3 Bft) 96,00 %
14.05.2017 08:32 15,4 C 18,3 C 83 % 1019,4 hPa 0,0 l/m 7,8 km/h (2 Bft) SW 215 2 min 0,000 mm 0,9 UV-I 285 W/m 12,5 C 14,6 C 11,3 km/h (2 Bft) 95,12 %
14.05.2017 08:34 15,4 C 18,3 C 82 % 1019,4 hPa 0,0 l/m 13,5 km/h (3 Bft) SW 230 2 min 0,000 mm 1,1 UV-I 278 W/m 12,3 C 12,2 C 20,9 km/h (4 Bft) 100,00 %
14.05.2017 08:36 15,4 C 18,3 C 82 % 1019,4 hPa 0,0 l/m 11,5 km/h (2 Bft) SW 220 2 min 0,000 mm 1,0 UV-I 382 W/m 12,3 C 12,9 C 20,9 km/h (4 Bft) 96,00 %
14.05.2017 08:39 15,3 C 18,3 C 82 % 1019,4 hPa 0,0 l/m 11,5 km/h (2 Bft) S-SW 211 0 min 0,000 mm 1,0 UV-I 166 W/m 12,2 C 12,8 C 22,5 km/h (4 Bft) 96,92 %
14.05.2017 08:40 15,2 C 18,3 C 83 % 1019,4 hPa 0,0 l/m 11,6 km/h (2 Bft) W-SW 237 0 min 0,000 mm 1,1 UV-I 173 W/m 12,3 C 12,7 C 16,1 km/h (3 Bft) 100,00 %
14.05.2017 08:42 15,2 C 18,3 C 83 % 1019,5 hPa 0,0 l/m 10,2 km/h (2 Bft) SW 214 0 min 0,000 mm 1,1 UV-I 193 W/m 12,3 C 13,2 C 17,7 km/h (3 Bft) 98,00 %
14.05.2017 08:44 15,1 C 18,3 C 83 % 1019,5 hPa 0,0 l/m 10,5 km/h (2 Bft) W-SW 248 0 min 0,000 mm 1,1 UV-I 235 W/m 12,2 C 13,0 C 17,7 km/h (3 Bft) 93,62 %
14.05.2017 08:46 15,2 C 18,3 C 83 % 1019,5 hPa 0,0 l/m 11,8 km/h (2 Bft) SW 218 2 min 0,000 mm 1,3 UV-I 399 W/m 12,3 C 12,6 C 17,7 km/h (3 Bft) 100,00 %
14.05.2017 08:48 15,3 C 18,3 C 83 % 1019,6 hPa 0,0 l/m 8,5 km/h (2 Bft) S-SW 206 2 min 0,000 mm 1,2 UV-I 343 W/m 12,4 C 14,2 C 12,9 km/h (3 Bft) 100,00 %
14.05.2017 08:50 15,3 C 18,3 C 83 % 1019,6 hPa 0,0 l/m 13,1 km/h (3 Bft) SW 216 0 min 0,000 mm 1,1 UV-I 223 W/m 12,4 C 12,2 C 17,7 km/h (3 Bft) 94,74 %
14.05.2017 08:52 15,3 C 18,3 C 83 % 1019,6 hPa 0,0 l/m 11,6 km/h (2 Bft) S-SW 207 0 min 0,000 mm 1,0 UV-I 188 W/m 12,4 C 12,8 C 16,1 km/h (3 Bft) 95,45 %
14.05.2017 08:54 15,3 C 18,3 C 82 % 1019,7 hPa 0,0 l/m 9,7 km/h (2 Bft) W-SW 247 0 min 0,000 mm 1,1 UV-I 200 W/m 12,2 C 13,6 C 14,5 km/h (3 Bft) 100,00 %
14.05.2017 08:56 15,2 C 18,3 C 83 % 1019,6 hPa 0,0 l/m 9,1 km/h (2 Bft) W-SW 251 0 min 0,000 mm 1,2 UV-I 241 W/m 12,3 C 13,8 C 14,5 km/h (3 Bft) 97,37 %
14.05.2017 08:58 15,3 C 18,3 C 83 % 1019,7 hPa 0,0 l/m 11,7 km/h (2 Bft) SW 227 0 min 0,000 mm 1,2 UV-I 259 W/m 12,4 C 12,7 C 16,1 km/h (3 Bft) 96,23 %
14.05.2017 09:00 15,3 C 18,3 C 83 % 1019,7 hPa 0,0 l/m 8,3 km/h (2 Bft) S-SW 213 0 min 0,178 mm 1,2 UV-I 260 W/m 12,4 C 14,3 C 14,5 km/h (3 Bft) 94,74 %
14.05.2017 09:02 15,4 C 18,3 C 83 % 1019,7 hPa 0,0 l/m 7,9 km/h (2 Bft) SW 227 0 min 0,000 mm 1,2 UV-I 255 W/m 12,5 C 14,6 C 16,1 km/h (3 Bft) 100,00 %
14.05.2017 09:04 15,4 C 18,3 C 83 % 1019,7 hPa 0,0 l/m 12,1 km/h (2 Bft) W 265 0 min 0,000 mm 1,1 UV-I 239 W/m 12,5 C 12,7 C 19,3 km/h (3 Bft) 98,00 %
14.05.2017 09:06 15,5 C 18,3 C 83 % 1019,7 hPa 0,0 l/m 8,5 km/h (2 Bft) W-SW 257 0 min 0,000 mm 1,2 UV-I 234 W/m 12,6 C 14,4 C 12,9 km/h (3 Bft) 97,14 %
14.05.2017 09:08 15,6 C 18,3 C 83 % 1019,7 hPa 0,0 l/m 6,9 km/h (2 Bft) SW 219 0 min 0,000 mm 1,3 UV-I 228 W/m 12,7 C 15,3 C 12,9 km/h (3 Bft) 92,86 %
14.05.2017 09:10 15,6 C 18,3 C 83 % 1019,7 hPa 0,0 l/m 11,2 km/h (2 Bft) SW 236 0 min 0,000 mm 1,3 UV-I 255 W/m 12,7 C 13,3 C 17,7 km/h (3 Bft) 88,64 %
14.05.2017 09:12 15,7 C 18,3 C 83 % 1019,7 hPa 0,0 l/m 9,1 km/h (2 Bft) SW 215 0 min 0,000 mm 1,4 UV-I 273 W/m 12,8 C 14,3 C 12,9 km/h (3 Bft) 94,34 %
14.05.2017 09:14 15,7 C 18,3 C 82 % 1019,7 hPa 0,0 l/m 12,7 km/h (3 Bft) W 274 0 min 0,000 mm 1,4 UV-I 275 W/m 12,6 C 12,8 C 19,3 km/h (3 Bft) 100,00 %
14.05.2017 09:16 15,7 C 18,3 C 82 % 1019,8 hPa 0,0 l/m 9,8 km/h (2 Bft) SW 221 2 min 0,000 mm 1,6 UV-I 390 W/m 12,6 C 14,0 C 14,5 km/h (3 Bft) 100,00 %
14.05.2017 09:18 15,8 C 18,3 C 82 % 1019,7 hPa 0,0 l/m 14,7 km/h (3 Bft) W-NW 287 2 min 0,000 mm 1,5 UV-I 342 W/m 12,7 C 12,3 C 19,3 km/h (3 Bft) 97,87 %
14.05.2017 09:20 15,8 C 18,3 C 82 % 1019,8 hPa 0,0 l/m 9,0 km/h (2 Bft) W 275 0 min 0,000 mm 1,4 UV-I 319 W/m 12,7 C 14,5 C 19,3 km/h (3 Bft) 97,87 %
14.05.2017 09:22 15,9 C 18,3 C 82 % 1019,9 hPa 0,0 l/m 10,6 km/h (2 Bft) W-SW 247 0 min 0,000 mm 1,4 UV-I 307 W/m 12,8 C 13,9 C 17,7 km/h (3 Bft) 100,00 %
14.05.2017 09:24 16,0 C 18,3 C 82 % 1019,9 hPa 0,0 l/m 10,9 km/h (2 Bft) S 189 2 min 0,000 mm 1,5 UV-I 360 W/m 12,9 C 13,8 C 17,7 km/h (3 Bft) 97,87 %
14.05.2017 09:26 16,1 C 18,3 C 81 % 1019,9 hPa 0,0 l/m 13,9 km/h (3 Bft) SW 229 2 min 0,000 mm 1,6 UV-I 386 W/m 12,8 C 12,9 C 19,3 km/h (3 Bft) 92,45 %
14.05.2017 09:28 16,2 C 18,3 C 82 % 1019,9 hPa 0,0 l/m 9,2 km/h (2 Bft) SW 227 2 min 0,000 mm 1,6 UV-I 404 W/m 13,1 C 14,8 C 14,5 km/h (3 Bft) 100,00 %
14.05.2017 09:30 16,3 C 18,3 C 82 % 1019,9 hPa 0,0 l/m 10,8 km/h (2 Bft) S-SW 209 2 min 0,000 mm 1,5 UV-I 353 W/m 13,2 C 14,2 C 19,3 km/h (3 Bft) 97,56 %
14.05.2017 09:32 16,4 C 18,3 C 81 % 1019,9 hPa 0,0 l/m 11,7 km/h (2 Bft) W 260 2 min 0,000 mm 1,7 UV-I 385 W/m 13,1 C 14,0 C 19,3 km/h (3 Bft) 98,11 %
14.05.2017 09:34 16,5 C 18,3 C 81 % 1019,9 hPa 0,0 l/m 5,7 km/h (1 Bft) W-SW 242 2 min 0,000 mm 2,1 UV-I 394 W/m 13,2 C 16,5 C 9,7 km/h (2 Bft) 91,49 %
14.05.2017 09:36 16,8 C 18,3 C 81 % 1019,9 hPa 0,0 l/m 9,6 km/h (2 Bft) W 262 2 min 0,000 mm 2,0 UV-I 394 W/m 13,5 C 15,3 C 14,5 km/h (3 Bft) 97,14 %
14.05.2017 09:38 17,0 C 18,3 C 81 % 1019,9 hPa 0,0 l/m 9,2 km/h (2 Bft) W-SW 243 0 min 0,000 mm 1,5 UV-I 340 W/m 13,7 C 15,7 C 16,1 km/h (3 Bft) 88,68 %
14.05.2017 09:40 17,1 C 18,3 C 80 % 1020,0 hPa 0,0 l/m 14,2 km/h (3 Bft) W-SW 254 0 min 0,000 mm 1,5 UV-I 312 W/m 13,6 C 14,0 C 17,7 km/h (3 Bft) 94,00 %
14.05.2017 09:42 16,9 C 18,3 C 77 % 1019,9 hPa 0,0 l/m 17,4 km/h (3 Bft) W 274 0 min 0,000 mm 1,7 UV-I 344 W/m 12,8 C 12,8 C 27,4 km/h (4 Bft) 95,12 %
14.05.2017 09:44 16,8 C 18,3 C 77 % 1020,0 hPa 0,0 l/m 10,9 km/h (2 Bft) W-SW 242 0 min 0,000 mm 1,7 UV-I 352 W/m 12,7 C 14,8 C 16,1 km/h (3 Bft) 94,00 %
14.05.2017 09:46 16,7 C 18,3 C 77 % 1020,0 hPa 0,0 l/m 11,9 km/h (2 Bft) W 281 2 min 0,000 mm 1,7 UV-I 406 W/m 12,6 C 14,3 C 16,1 km/h (3 Bft) 92,45 %
14.05.2017 09:48 16,7 C 18,3 C 79 % 1020,1 hPa 0,0 l/m 7,7 km/h (2 Bft) W-SW 256 0 min 0,000 mm 1,6 UV-I 349 W/m 13,0 C 16,0 C 12,9 km/h (3 Bft) 89,47 %
14.05.2017 09:50 16,8 C 18,3 C 78 % 1020,1 hPa 0,0 l/m 11,1 km/h (2 Bft) W 262 0 min 0,000 mm 1,6 UV-I 349 W/m 12,9 C 14,7 C 14,5 km/h (3 Bft) 95,24 %
14.05.2017 09:52 16,8 C 18,3 C 78 % 1020,1 hPa 0,0 l/m 12,4 km/h (3 Bft) W 262 2 min 0,000 mm 1,7 UV-I 368 W/m 12,9 C 14,2 C 16,1 km/h (3 Bft) 93,18 %
14.05.2017 09:54 16,8 C 18,3 C 78 % 1020,0 hPa 0,0 l/m 11,7 km/h (2 Bft) W-SW 254 2 min 0,000 mm 1,7 UV-I 372 W/m 12,9 C 14,5 C 22,5 km/h (4 Bft) 98,11 %
14.05.2017 09:56 16,8 C 18,3 C 78 % 1020,0 hPa 0,0 l/m 10,9 km/h (2 Bft) W-SW 254 2 min 0,000 mm 1,9 UV-I 403 W/m 12,9 C 14,8 C 20,9 km/h (4 Bft) 92,68 %
14.05.2017 09:58 16,9 C 18,3 C 78 % 1020,1 hPa 0,0 l/m 10,6 km/h (2 Bft) SW 225 2 min 0,000 mm 2,0 UV-I 424 W/m 13,0 C 15,0 C 14,5 km/h (3 Bft) 96,61 %
14.05.2017 10:00 16,9 C 18,3 C 78 % 1020,0 hPa 0,0 l/m 11,4 km/h (2 Bft) W-SW 240 2 min 0,203 mm 1,8 UV-I 387 W/m 13,0 C 14,7 C 22,5 km/h (4 Bft) 89,47 %
14.05.2017 10:02 16,9 C 18,3 C 77 % 1020,1 hPa 0,0 l/m 19,9 km/h (4 Bft) W-SW 253 2 min 0,000 mm 2,0 UV-I 404 W/m 12,8 C 12,2 C 27,4 km/h (4 Bft) 96,23 %
14.05.2017 10:04 16,9 C 18,3 C 77 % 1020,3 hPa 0,0 l/m 18,5 km/h (3 Bft) SW 229 2 min 0,000 mm 2,0 UV-I 413 W/m 12,8 C 12,6 C 24,1 km/h (4 Bft) 95,74 %
14.05.2017 10:06 16,9 C 18,3 C 77 % 1020,3 hPa 0,0 l/m 17,4 km/h (3 Bft) W 269 2 min 0,000 mm 2,1 UV-I 386 W/m 12,8 C 12,8 C 27,4 km/h (4 Bft) 96,00 %
14.05.2017 10:08 16,9 C 18,3 C 78 % 1020,3 hPa 0,0 l/m 14,3 km/h (3 Bft) W-SW 246 2 min 0,000 mm 2,3 UV-I 450 W/m 13,0 C 13,7 C 19,3 km/h (3 Bft) 100,00 %
14.05.2017 10:10 17,0 C 18,3 C 78 % 1020,3 hPa 0,0 l/m 8,4 km/h (2 Bft) W 274 2 min 0,000 mm 2,4 UV-I 432 W/m 13,1 C 16,0 C 16,1 km/h (3 Bft) 93,22 %
14.05.2017 10:12 17,0 C 18,3 C 77 % 1020,3 hPa 0,0 l/m 8,6 km/h (2 Bft) W 279 2 min 0,000 mm 2,5 UV-I 420 W/m 12,9 C 15,9 C 16,1 km/h (3 Bft) 92,11 %
14.05.2017 10:14 17,1 C 18,3 C 77 % 1020,4 hPa 0,0 l/m 10,1 km/h (2 Bft) W 280 2 min 0,000 mm 2,6 UV-I 451 W/m 13,0 C 15,4 C 14,5 km/h (3 Bft) 94,34 %
14.05.2017 10:16 17,2 C 18,3 C 78 % 1020,4 hPa 0,0 l/m 6,8 km/h (2 Bft) W-SW 242 2 min 0,000 mm 3,1 UV-I 422 W/m 13,3 C 17,0 C 14,5 km/h (3 Bft) 100,00 %
14.05.2017 10:18 17,4 C 18,3 C 78 % 1020,4 hPa 0,0 l/m 12,8 km/h (3 Bft) W-SW 248 2 min 0,000 mm 3,2 UV-I 422 W/m 13,5 C 14,8 C 22,5 km/h (4 Bft) 97,56 %
14.05.2017 10:20 17,5 C 18,3 C 76 % 1020,4 hPa 0,0 l/m 10,2 km/h (2 Bft) SW 223 2 min 0,000 mm 2,6 UV-I 422 W/m 13,2 C 15,8 C 19,3 km/h (3 Bft) 100,00 %
14.05.2017 10:22 17,4 C 18,3 C 76 % 1020,4 hPa 0,0 l/m 10,5 km/h (2 Bft) W 263 2 min 0,000 mm 3,0 UV-I 478 W/m 13,1 C 15,6 C 19,3 km/h (3 Bft) 93,18 %
14.05.2017 10:24 17,3 C 18,3 C 76 % 1020,4 hPa 0,0 l/m 10,0 km/h (2 Bft) W-SW 239 0 min 0,000 mm 2,5 UV-I 395 W/m 13,0 C 15,7 C 16,1 km/h (3 Bft) 96,55 %
14.05.2017 10:26 17,3 C 18,3 C 77 % 1020,4 hPa 0,0 l/m 12,7 km/h (3 Bft) W-SW 241 0 min 0,000 mm 3,1 UV-I 294 W/m 13,2 C 14,7 C 22,5 km/h (4 Bft) 97,37 %
14.05.2017 10:28 17,2 C 18,3 C 77 % 1020,4 hPa 0,0 l/m 12,1 km/h (2 Bft) W-SW 258 2 min 0,000 mm 3,6 UV-I 608 W/m 13,1 C 14,8 C 22,5 km/h (4 Bft) 93,22 %
14.05.2017 10:30 17,3 C 18,3 C 78 % 1020,5 hPa 0,0 l/m 11,6 km/h (2 Bft) W 263 2 min 0,000 mm 3,8 UV-I 754 W/m 13,4 C 15,1 C 19,3 km/h (3 Bft) 89,36 %
14.05.2017 10:32 17,4 C 18,3 C 75 % 1020,4 hPa 0,0 l/m 15,5 km/h (3 Bft) W 263 2 min 0,000 mm 3,8 UV-I 714 W/m 12,9 C 14,0 C 25,7 km/h (4 Bft) 94,44 %
14.05.2017 10:34 17,5 C 18,3 C 76 % 1020,4 hPa 0,0 l/m 15,0 km/h (3 Bft) W 267 2 min 0,000 mm 3,8 UV-I 733 W/m 13,2 C 14,2 C 22,5 km/h (4 Bft) 98,00 %
14.05.2017 10:36 17,5 C 18,3 C 75 % 1020,4 hPa 0,0 l/m 13,5 km/h (3 Bft) W-NW 288 2 min 0,000 mm 3,9 UV-I 759 W/m 13,0 C 14,7 C 22,5 km/h (4 Bft) 95,74 %
14.05.2017 10:38 17,5 C 18,3 C 76 % 1020,4 hPa 0,0 l/m 10,2 km/h (2 Bft) W-NW 301 2 min 0,000 mm 3,9 UV-I 758 W/m 13,2 C 15,8 C 20,9 km/h (4 Bft) 98,21 %
14.05.2017 10:40 17,6 C 18,3 C 76 % 1020,4 hPa 0,0 l/m 10,2 km/h (2 Bft) W 274 2 min 0,000 mm 3,9 UV-I 773 W/m 13,3 C 15,9 C 16,1 km/h (3 Bft) 97,73 %
14.05.2017 10:42 17,6 C 18,3 C 74 % 1020,4 hPa 0,0 l/m 12,8 km/h (3 Bft) W 262 2 min 0,000 mm 4,0 UV-I 792 W/m 12,9 C 15,0 C 29,0 km/h (5 Bft) 100,00 %
14.05.2017 10:44 17,6 C 18,3 C 74 % 1020,5 hPa 0,0 l/m 11,3 km/h (2 Bft) N-NW 340 2 min 0,000 mm 4,0 UV-I 810 W/m 12,9 C 15,5 C 19,3 km/h (3 Bft) 98,21 %
14.05.2017 10:46 17,6 C 18,3 C 75 % 1020,5 hPa 0,0 l/m 13,9 km/h (3 Bft) W 269 2 min 0,000 mm 4,1 UV-I 816 W/m 13,1 C 14,7 C 24,1 km/h (4 Bft) 97,14 %
14.05.2017 10:48 17,6 C 18,3 C 75 % 1020,5 hPa 0,0 l/m 11,1 km/h (2 Bft) N-NW 332 2 min 0,000 mm 4,0 UV-I 818 W/m 13,1 C 15,6 C 17,7 km/h (3 Bft) 98,11 %
14.05.2017 10:50 17,7 C 18,3 C 75 % 1020,5 hPa 0,0 l/m 11,9 km/h (2 Bft) SW 235 2 min 0,000 mm 3,8 UV-I 810 W/m 13,2 C 15,4 C 19,3 km/h (3 Bft) 100,00 %
14.05.2017 10:52 17,6 C 18,3 C 75 % 1020,5 hPa 0,0 l/m 7,0 km/h (2 Bft) W 267 2 min 0,000 mm 2,9 UV-I 612 W/m 13,1 C 17,3 C 14,5 km/h (3 Bft) 100,00 %
14.05.2017 10:54 17,6 C 18,3 C 76 % 1020,6 hPa 0,0 l/m 11,1 km/h (2 Bft) W-SW 251 2 min 0,000 mm 3,9 UV-I 500 W/m 13,3 C 15,6 C 19,3 km/h (3 Bft) 100,00 %
14.05.2017 10:56 17,8 C 18,3 C 76 % 1020,6 hPa 0,0 l/m 17,2 km/h (3 Bft) W-NW 292 2 min 0,000 mm 4,0 UV-I 770 W/m 13,5 C 14,0 C 29,0 km/h (5 Bft) 100,00 %
14.05.2017 10:58 17,7 C 18,3 C 74 % 1020,6 hPa 0,0 l/m 15,7 km/h (3 Bft) W-SW 238 2 min 0,000 mm 3,1 UV-I 667 W/m 13,0 C 14,3 C 29,0 km/h (5 Bft) 95,74 %
14.05.2017 11:00 17,4 C 18,3 C 74 % 1020,6 hPa 0,0 l/m 13,1 km/h (3 Bft) SW 232 0 min 0,356 mm 2,9 UV-I 340 W/m 12,7 C 14,7 C 24,1 km/h (4 Bft) 97,87 %
14.05.2017 11:02 17,3 C 18,3 C 75 % 1020,5 hPa 0,0 l/m 14,2 km/h (3 Bft) W 265 0 min 0,000 mm 3,2 UV-I 285 W/m 12,8 C 14,2 C 20,9 km/h (4 Bft) 91,43 %
14.05.2017 11:04 17,4 C 18,3 C 76 % 1020,5 hPa 0,0 l/m 7,8 km/h (2 Bft) W-SW 246 0 min 0,000 mm 3,9 UV-I 285 W/m 13,1 C 16,7 C 14,5 km/h (3 Bft) 96,43 %
14.05.2017 11:06 17,6 C 18,3 C 77 % 1020,5 hPa 0,0 l/m 11,8 km/h (2 Bft) W 261 0 min 0,000 mm 3,5 UV-I 362 W/m 13,5 C 15,3 C 22,5 km/h (4 Bft) 91,49 %
14.05.2017 11:08 17,7 C 18,3 C 76 % 1020,5 hPa 0,0 l/m 13,0 km/h (3 Bft) W-SW 244 0 min 0,000 mm 3,6 UV-I 394 W/m 13,4 C 15,1 C 22,5 km/h (4 Bft) 95,12 %
14.05.2017 11:10 17,6 C 18,3 C 75 % 1020,5 hPa 0,0 l/m 17,2 km/h (3 Bft) W 264 2 min 0,000 mm 4,2 UV-I 535 W/m 13,1 C 13,8 C 24,1 km/h (4 Bft) 96,00 %
14.05.2017 11:12 17,6 C 18,3 C 75 % 1020,5 hPa 0,0 l/m 16,0 km/h (3 Bft) W-NW 288 2 min 0,000 mm 4,0 UV-I 957 W/m 13,1 C 14,1 C 29,0 km/h (5 Bft) 97,78 %
14.05.2017 11:14 17,4 C 18,3 C 75 % 1020,4 hPa 0,0 l/m 11,2 km/h (2 Bft) W 264 2 min 0,000 mm 4,4 UV-I 881 W/m 12,9 C 15,3 C 20,9 km/h (4 Bft) 96,00 %
14.05.2017 11:16 17,6 C 18,3 C 76 % 1020,4 hPa 0,0 l/m 9,0 km/h (2 Bft) W-SW 258 2 min 0,000 mm 4,4 UV-I 943 W/m 13,3 C 16,4 C 19,3 km/h (3 Bft) 95,74 %
14.05.2017 11:18 17,7 C 18,3 C 76 % 1020,4 hPa 0,0 l/m 7,1 km/h (2 Bft) SW 215 2 min 0,000 mm 3,7 UV-I 1015 W/m 13,4 C 17,4 C 17,7 km/h (3 Bft) 97,56 %
14.05.2017 11:20 17,9 C 18,3 C 76 % 1020,4 hPa 0,0 l/m 8,8 km/h (2 Bft) W-SW 239 2 min 0,000 mm 4,3 UV-I 1014 W/m 13,6 C 16,8 C 19,3 km/h (3 Bft) 98,00 %
14.05.2017 11:22 18,2 C 18,3 C 75 % 1020,5 hPa 0,0 l/m 15,8 km/h (3 Bft) W-SW 248 2 min 0,000 mm 4,9 UV-I 913 W/m 13,7 C 14,9 C 22,5 km/h (4 Bft) 97,56 %
14.05.2017 11:24 18,2 C 18,3 C 74 % 1020,5 hPa 0,0 l/m 16,5 km/h (3 Bft) W-NW 292 2 min 0,000 mm 4,9 UV-I 903 W/m 13,5 C 14,7 C 24,1 km/h (4 Bft) 96,43 %
14.05.2017 11:26 18,2 C 18,3 C 73 % 1020,4 hPa 0,0 l/m 12,1 km/h (2 Bft) W-SW 244 2 min 0,000 mm 4,7 UV-I 956 W/m 13,3 C 15,9 C 17,7 km/h (3 Bft) 95,12 %
14.05.2017 11:28 18,2 C 18,3 C 74 % 1020,5 hPa 0,0 l/m 18,0 km/h (3 Bft) W 263 2 min 0,000 mm 4,8 UV-I 980 W/m 13,5 C 14,3 C 27,4 km/h (4 Bft) 95,45 %
14.05.2017 11:30 18,2 C 18,3 C 72 % 1020,5 hPa 0,0 l/m 18,0 km/h (3 Bft) W-SW 250 2 min 0,000 mm 5,1 UV-I 950 W/m 13,1 C 14,3 C 27,4 km/h (4 Bft) 93,22 %
14.05.2017 11:32 18,2 C 18,3 C 73 % 1020,5 hPa 0,0 l/m 15,7 km/h (3 Bft) SW 219 2 min 0,000 mm 5,2 UV-I 964 W/m 13,3 C 14,9 C 25,7 km/h (4 Bft) 93,18 %
14.05.2017 11:34 18,2 C 18,3 C 74 % 1020,5 hPa 0,0 l/m 14,6 km/h (3 Bft) SW 231 2 min 0,000 mm 5,2 UV-I 970 W/m 13,5 C 15,2 C 22,5 km/h (4 Bft) 86,36 %
14.05.2017 11:36 18,3 C 18,3 C 73 % 1020,6 hPa 0,0 l/m 17,1 km/h (3 Bft) SW 235 2 min 0,000 mm 5,0 UV-I 965 W/m 13,4 C 14,7 C 22,5 km/h (4 Bft) 95,74 %
14.05.2017 11:38 18,2 C 18,3 C 73 % 1020,6 hPa 0,0 l/m 13,8 km/h (3 Bft) W-SW 241 2 min 0,000 mm 3,4 UV-I 528 W/m 13,3 C 15,4 C 20,9 km/h (4 Bft) 94,00 %
14.05.2017 11:40 18,3 C 18,3 C 73 % 1020,6 hPa 0,0 l/m 11,6 km/h (2 Bft) SW 219 0 min 0,000 mm 3,6 UV-I 397 W/m 13,4 C 16,2 C 17,7 km/h (3 Bft) 93,18 %
14.05.2017 11:42 18,3 C 18,3 C 74 % 1020,6 hPa 0,0 l/m 15,4 km/h (3 Bft) SW 236 0 min 0,000 mm 3,3 UV-I 318 W/m 13,6 C 15,1 C 20,9 km/h (4 Bft) 92,00 %
14.05.2017 11:44 18,4 C 18,3 C 73 % 1020,7 hPa 0,0 l/m 16,6 km/h (3 Bft) W 267 2 min 0,000 mm 5,3 UV-I 867 W/m 13,5 C 14,9 C 27,4 km/h (4 Bft) 89,47 %
14.05.2017 11:46 18,5 C 18,3 C 73 % 1020,6 hPa 0,0 l/m 14,4 km/h (3 Bft) SW 234 2 min 0,000 mm 5,3 UV-I 1046 W/m 13,6 C 15,6 C 19,3 km/h (3 Bft) 96,00 %
14.05.2017 11:48 18,4 C 18,3 C 73 % 1020,6 hPa 0,0 l/m 16,9 km/h (3 Bft) SW 233 2 min 0,000 mm 3,9 UV-I 1060 W/m 13,5 C 14,8 C 24,1 km/h (4 Bft) 94,00 %
14.05.2017 11:50 18,5 C 18,3 C 74 % 1020,6 hPa 0,0 l/m 11,0 km/h (2 Bft) SW 225 2 min 0,000 mm 4,9 UV-I 1059 W/m 13,8 C 16,6 C 16,1 km/h (3 Bft) 90,48 %
14.05.2017 11:52 18,7 C 18,3 C 72 % 1020,7 hPa 0,0 l/m 16,7 km/h (3 Bft) W-SW 254 2 min 0,000 mm 5,3 UV-I 1073 W/m 13,5 C 15,3 C 20,9 km/h (4 Bft) 95,45 %
14.05.2017 11:54 18,8 C 18,3 C 72 % 1020,6 hPa 0,0 l/m 12,4 km/h (3 Bft) SW 227 2 min 0,000 mm 5,3 UV-I 1115 W/m 13,6 C 16,5 C 22,5 km/h (4 Bft) 94,44 %
14.05.2017 11:56 18,8 C 18,3 C 70 % 1020,6 hPa 0,0 l/m 16,8 km/h (3 Bft) S-SW 205 2 min 0,000 mm 4,3 UV-I 962 W/m 13,2 C 15,4 C 25,7 km/h (4 Bft) 94,34 %
14.05.2017 11:58 18,8 C 18,3 C 71 % 1020,6 hPa 0,0 l/m 10,3 km/h (2 Bft) SW 228 2 min 0,000 mm 3,7 UV-I 580 W/m 13,4 C 17,2 C 16,1 km/h (3 Bft) 89,47 %
14.05.2017 12:00 18,8 C 18,3 C 72 % 1020,6 hPa 0,0 l/m 12,9 km/h (3 Bft) S-SW 205 2 min 0,482 mm 5,5 UV-I 584 W/m 13,6 C 16,4 C 20,9 km/h (4 Bft) 92,45 %
14.05.2017 12:02 18,7 C 18,3 C 72 % 1020,6 hPa 0,0 l/m 14,0 km/h (3 Bft) W-SW 243 2 min 0,000 mm 4,0 UV-I 508 W/m 13,5 C 15,9 C 22,5 km/h (4 Bft) 94,74 %
14.05.2017 12:04 18,8 C 18,3 C 73 % 1020,6 hPa 0,0 l/m 12,5 km/h (3 Bft) W 263 0 min 0,000 mm 4,6 UV-I 416 W/m 13,9 C 16,5 C 20,9 km/h (4 Bft) 96,23 %
14.05.2017 12:06 18,8 C 18,3 C 70 % 1020,6 hPa 0,0 l/m 12,2 km/h (2 Bft) W-SW 242 0 min 0,000 mm 3,1 UV-I 394 W/m 13,2 C 16,6 C 20,9 km/h (4 Bft) 92,00 %
14.05.2017 12:08 18,6 C 18,3 C 72 % 1020,6 hPa 0,0 l/m 10,6 km/h (2 Bft) W-SW 247 0 min 0,000 mm 2,4 UV-I 330 W/m 13,4 C 16,9 C 20,9 km/h (4 Bft) 100,00 %
14.05.2017 12:10 18,3 C 18,3 C 71 % 1020,6 hPa 0,0 l/m 9,8 km/h (2 Bft) SW 232 0 min 0,000 mm 2,0 UV-I 292 W/m 12,9 C 16,8 C 14,5 km/h (3 Bft) 100,00 %
14.05.2017 12:12 18,2 C 18,3 C 73 % 1020,6 hPa 0,0 l/m 11,7 km/h (2 Bft) W 269 0 min 0,000 mm 1,8 UV-I 279 W/m 13,3 C 16,1 C 19,3 km/h (3 Bft) 100,00 %
14.05.2017 12:14 18,1 C 18,3 C 73 % 1020,7 hPa 0,0 l/m 18,1 km/h (3 Bft) W-SW 251 0 min 0,000 mm 2,0 UV-I 303 W/m 13,2 C 14,2 C 24,1 km/h (4 Bft) 98,00 %
14.05.2017 12:16 18,0 C 18,3 C 74 % 1020,7 hPa 0,0 l/m 11,3 km/h (2 Bft) W-SW 257 0 min 0,000 mm 2,5 UV-I 366 W/m 13,3 C 16,0 C 16,1 km/h (3 Bft) 98,11 %
14.05.2017 12:18 18,1 C 18,3 C 75 % 1020,6 hPa 0,0 l/m 9,8 km/h (2 Bft) SW 219 0 min 0,000 mm 3,8 UV-I 439 W/m 13,6 C 16,6 C 16,1 km/h (3 Bft) 97,37 %
14.05.2017 12:20 18,3 C 18,3 C 76 % 1020,7 hPa 0,0 l/m 13,4 km/h (3 Bft) SW 225 0 min 0,000 mm 4,7 UV-I 439 W/m 14,0 C 15,6 C 22,5 km/h (4 Bft) 96,00 %
14.05.2017 12:22 18,7 C 18,3 C 74 % 1020,8 hPa 0,0 l/m 12,9 km/h (3 Bft) S 181 2 min 0,000 mm 5,7 UV-I 713 W/m 14,0 C 16,3 C 20,9 km/h (4 Bft) 97,73 %
14.05.2017 12:24 19,1 C 18,3 C 73 % 1020,7 hPa 0,0 l/m 14,2 km/h (3 Bft) W-SW 246 2 min 0,000 mm 5,8 UV-I 1184 W/m 14,1 C 16,4 C 22,5 km/h (4 Bft) 100,00 %
14.05.2017 12:26 19,3 C 18,3 C 72 % 1020,9 hPa 0,0 l/m 12,4 km/h (3 Bft) SW 215 2 min 0,000 mm 5,3 UV-I 1175 W/m 14,1 C 17,1 C 24,1 km/h (4 Bft) 97,73 %
14.05.2017 12:28 19,3 C 18,3 C 72 % 1020,8 hPa 0,0 l/m 15,4 km/h (3 Bft) W-SW 248 2 min 0,000 mm 5,6 UV-I 1139 W/m 14,1 C 16,3 C 24,1 km/h (4 Bft) 95,24 %
14.05.2017 12:30 19,3 C 18,3 C 70 % 1020,7 hPa 0,0 l/m 15,8 km/h (3 Bft) SW 236 2 min 0,000 mm 5,5 UV-I 991 W/m 13,7 C 16,2 C 24,1 km/h (4 Bft) 96,36 %
14.05.2017 12:32 19,2 C 18,3 C 71 % 1020,8 hPa 0,0 l/m 15,6 km/h (3 Bft) S 183 2 min 0,000 mm 5,7 UV-I 927 W/m 13,8 C 16,1 C 20,9 km/h (4 Bft) 97,44 %
14.05.2017 12:34 19,2 C 18,3 C 71 % 1020,7 hPa 0,0 l/m 17,0 km/h (3 Bft) W-SW 238 2 min 0,000 mm 5,2 UV-I 881 W/m 13,8 C 15,8 C 25,7 km/h (4 Bft) 100,00 %
14.05.2017 12:36 19,1 C 18,3 C 70 % 1020,7 hPa 0,0 l/m 11,9 km/h (2 Bft) SW 235 2 min 0,000 mm 5,6 UV-I 918 W/m 13,5 C 17,0 C 19,3 km/h (3 Bft) 96,43 %
14.05.2017 12:38 19,2 C 18,3 C 72 % 1020,7 hPa 0,0 l/m 13,1 km/h (3 Bft) SW 215 2 min 0,000 mm 5,8 UV-I 964 W/m 14,0 C 16,8 C 19,3 km/h (3 Bft) 97,37 %
14.05.2017 12:40 19,2 C 18,3 C 71 % 1020,7 hPa 0,0 l/m 12,0 km/h (2 Bft) W-SW 249 2 min 0,000 mm 3,7 UV-I 890 W/m 13,8 C 17,1 C 19,3 km/h (3 Bft) 94,34 %
14.05.2017 12:42 19,2 C 18,3 C 71 % 1020,7 hPa 0,0 l/m 8,9 km/h (2 Bft) SW 227 0 min 0,000 mm 3,1 UV-I 317 W/m 13,8 C 18,2 C 19,3 km/h (3 Bft) 97,87 %
14.05.2017 12:44 18,9 C 18,3 C 69 % 1020,6 hPa 0,0 l/m 11,2 km/h (2 Bft) W-SW 257 0 min 0,000 mm 3,7 UV-I 291 W/m 13,1 C 17,0 C 20,9 km/h (4 Bft) 98,00 %
14.05.2017 12:46 18,8 C 18,3 C 72 % 1020,7 hPa 0,0 l/m 8,7 km/h (2 Bft) W 259 0 min 0,000 mm 4,4 UV-I 380 W/m 13,6 C 17,8 C 14,5 km/h (3 Bft) 94,00 %
14.05.2017 12:48 18,9 C 18,3 C 69 % 1020,6 hPa 0,0 l/m 12,8 km/h (3 Bft) W 266 2 min 0,000 mm 5,5 UV-I 964 W/m 13,1 C 16,5 C 19,3 km/h (3 Bft) 94,74 %
14.05.2017 12:50 19,1 C 18,3 C 68 % 1020,6 hPa 0,0 l/m 10,7 km/h (2 Bft) SW 234 2 min 0,000 mm 5,7 UV-I 947 W/m 13,1 C 17,4 C 17,7 km/h (3 Bft) 100,00 %
14.05.2017 12:52 19,3 C 18,3 C 68 % 1020,5 hPa 0,0 l/m 6,1 km/h (2 Bft) W 260 2 min 0,000 mm 5,7 UV-I 928 W/m 13,2 C 19,3 C 14,5 km/h (3 Bft) 94,74 %
14.05.2017 12:54 19,6 C 18,3 C 69 % 1020,6 hPa 0,0 l/m 6,8 km/h (2 Bft) SW 219 2 min 0,000 mm 5,8 UV-I 944 W/m 13,8 C 19,4 C 19,3 km/h (3 Bft) 98,00 %
14.05.2017 12:56 19,8 C 18,3 C 68 % 1020,6 hPa 0,0 l/m 8,5 km/h (2 Bft) W-SW 250 2 min 0,000 mm 5,8 UV-I 991 W/m 13,7 C 18,9 C 17,7 km/h (3 Bft) 97,73 %
14.05.2017 12:58 19,9 C 18,3 C 67 % 1020,6 hPa 0,0 l/m 9,5 km/h (2 Bft) W-SW 246 2 min 0,000 mm 5,9 UV-I 1030 W/m 13,6 C 18,7 C 17,7 km/h (3 Bft) 100,00 %
14.05.2017 13:00 20,1 C 18,3 C 68 % 1020,6 hPa 0,0 l/m 10,8 km/h (2 Bft) W 273 2 min 0,458 mm 5,8 UV-I 982 W/m 14,0 C 18,5 C 19,3 km/h (3 Bft) 100,00 %
14.05.2017 13:03 20,0 C 18,3 C 66 % 1020,6 hPa 0,0 l/m 9,1 km/h (2 Bft) W-NW 292 3 min 0,000 mm 5,8 UV-I 940 W/m 13,4 C 18,9 C 19,3 km/h (3 Bft) 100,00 %
14.05.2017 13:04 20,0 C 18,3 C 67 % 1020,6 hPa 0,0 l/m 7,1 km/h (2 Bft) NW 309 1 min 0,000 mm 5,5 UV-I 953 W/m 13,7 C 19,7 C 9,7 km/h (2 Bft) 100,00 %
14.05.2017 13:06 19,9 C 18,3 C 67 % 1020,6 hPa 0,0 l/m 11,0 km/h (2 Bft) W-SW 254 2 min 0,000 mm 5,2 UV-I 857 W/m 13,6 C 18,2 C 24,1 km/h (4 Bft) 100,00 %
14.05.2017 13:08 19,8 C 18,3 C 66 % 1020,6 hPa 0,0 l/m 17,9 km/h (3 Bft) W-SW 256 2 min 0,000 mm 5,7 UV-I 909 W/m 13,3 C 16,4 C 22,5 km/h (4 Bft) 100,00 %
14.05.2017 13:10 19,8 C 18,3 C 67 % 1020,6 hPa 0,0 l/m 16,0 km/h (3 Bft) SW 236 2 min 0,000 mm 5,6 UV-I 921 W/m 13,5 C 16,8 C 20,9 km/h (4 Bft) 100,00 %
14.05.2017 13:12 19,7 C 18,3 C 66 % 1020,6 hPa 0,0 l/m 14,8 km/h (3 Bft) W-SW 257 2 min 0,000 mm 5,7 UV-I 939 W/m 13,2 C 16,9 C 22,5 km/h (4 Bft) 94,00 %
14.05.2017 13:14 19,7 C 18,3 C 68 % 1020,6 hPa 0,0 l/m 16,8 km/h (3 Bft) W 281 2 min 0,000 mm 5,7 UV-I 938 W/m 13,6 C 16,5 C 22,5 km/h (4 Bft) 90,91 %
14.05.2017 13:16 19,8 C 18,3 C 67 % 1020,6 hPa 0,0 l/m 14,3 km/h (3 Bft) W 271 2 min 0,000 mm 5,6 UV-I 930 W/m 13,5 C 17,2 C 22,5 km/h (4 Bft) 98,11 %
14.05.2017 13:18 19,9 C 18,3 C 66 % 1020,6 hPa 0,0 l/m 17,5 km/h (3 Bft) SW 225 2 min 0,000 mm 5,7 UV-I 940 W/m 13,4 C 16,6 C 25,7 km/h (4 Bft) 95,65 %
14.05.2017 13:20 19,9 C 18,3 C 67 % 1020,5 hPa 0,0 l/m 12,6 km/h (3 Bft) SW 236 2 min 0,000 mm 5,7 UV-I 962 W/m 13,6 C 17,7 C 17,7 km/h (3 Bft) 97,06 %
14.05.2017 13:22 20,2 C 18,3 C 67 % 1020,5 hPa 0,0 l/m 9,7 km/h (2 Bft) W 263 2 min 0,000 mm 5,7 UV-I 972 W/m 13,9 C 19,0 C 14,5 km/h (3 Bft) 95,12 %
14.05.2017 13:24 20,2 C 18,3 C 67 % 1020,5 hPa 0,0 l/m 13,4 km/h (3 Bft) S-SW 209 2 min 0,000 mm 5,8 UV-I 987 W/m 13,9 C 17,9 C 22,5 km/h (4 Bft) 90,57 %
14.05.2017 13:26 20,2 C 18,3 C 64 % 1020,6 hPa 0,0 l/m 16,4 km/h (3 Bft) SW 217 2 min 0,000 mm 4,8 UV-I 949 W/m 13,2 C 17,2 C 24,1 km/h (4 Bft) 94,00 %
14.05.2017 13:28 20,0 C 18,3 C 64 % 1020,5 hPa 0,0 l/m 14,8 km/h (3 Bft) W 277 0 min 0,000 mm 3,8 UV-I 267 W/m 13,0 C 17,3 C 24,1 km/h (4 Bft) 97,37 %
14.05.2017 13:30 19,8 C 18,3 C 65 % 1020,5 hPa 0,0 l/m 13,3 km/h (3 Bft) W-SW 253 0 min 0,000 mm 4,0 UV-I 267 W/m 13,0 C 17,4 C 20,9 km/h (4 Bft) 92,68 %
14.05.2017 13:32 19,7 C 18,3 C 65 % 1020,5 hPa 0,0 l/m 12,5 km/h (3 Bft) SW 218 2 min 0,000 mm 5,7 UV-I 932 W/m 12,9 C 17,5 C 17,7 km/h (3 Bft) 96,23 %
14.05.2017 13:34 19,8 C 18,3 C 65 % 1020,5 hPa 0,0 l/m 13,4 km/h (3 Bft) W 277 2 min 0,000 mm 5,5 UV-I 986 W/m 13,0 C 17,4 C 22,5 km/h (4 Bft) 92,86 %
14.05.2017 13:36 19,8 C 18,3 C 66 % 1020,5 hPa 0,0 l/m 9,0 km/h (2 Bft) W-NW 288 2 min 0,000 mm 5,6 UV-I 978 W/m 13,3 C 18,8 C 14,5 km/h (3 Bft) 93,18 %
14.05.2017 13:38 19,8 C 18,3 C 65 % 1020,5 hPa 0,0 l/m 9,8 km/h (2 Bft) N-NW 336 2 min 0,000 mm 5,6 UV-I 940 W/m 13,0 C 18,5 C 14,5 km/h (3 Bft) 95,45 %
14.05.2017 13:40 20,0 C 18,3 C 68 % 1020,4 hPa 0,0 l/m 10,1 km/h (2 Bft) SW 227 2 min 0,000 mm 5,6 UV-I 967 W/m 13,9 C 18,6 C 19,3 km/h (3 Bft) 97,56 %
14.05.2017 13:42 20,3 C 18,3 C 66 % 1020,5 hPa 0,0 l/m 9,6 km/h (2 Bft) W-SW 244 2 min 0,000 mm 4,4 UV-I 988 W/m 13,7 C 19,1 C 14,5 km/h (3 Bft) 92,45 %
14.05.2017 13:44 20,3 C 18,3 C 67 % 1020,5 hPa 0,0 l/m 5,4 km/h (1 Bft) W-SW 252 0 min 0,000 mm 3,0 UV-I 312 W/m 14,0 C 20,3 C 8,0 km/h (2 Bft) 96,67 %
14.05.2017 13:46 20,3 C 18,3 C 67 % 1020,5 hPa 0,0 l/m 10,8 km/h (2 Bft) W 271 2 min 0,000 mm 5,4 UV-I 756 W/m 14,0 C 18,7 C 17,7 km/h (3 Bft) 100,00 %
14.05.2017 13:48 20,4 C 18,3 C 66 % 1020,5 hPa 0,0 l/m 4,9 km/h (1 Bft) SW 232 2 min 0,000 mm 5,5 UV-I 999 W/m 13,8 C 20,4 C 14,5 km/h (3 Bft) 96,36 %
14.05.2017 13:50 20,6 C 18,3 C 64 % 1020,5 hPa 0,0 l/m 7,1 km/h (2 Bft) W 267 2 min 0,000 mm 3,9 UV-I 631 W/m 13,5 C 20,3 C 12,9 km/h (3 Bft) 100,00 %
14.05.2017 13:52 20,4 C 18,3 C 65 % 1020,4 hPa 0,0 l/m 10,8 km/h (2 Bft) SW 227 2 min 0,000 mm 5,5 UV-I 675 W/m 13,6 C 18,8 C 20,9 km/h (4 Bft) 100,00 %
14.05.2017 13:54 20,4 C 18,3 C 63 % 1020,5 hPa 0,0 l/m 10,9 km/h (2 Bft) SW 220 2 min 0,000 mm 5,4 UV-I 936 W/m 13,1 C 18,8 C 19,3 km/h (3 Bft) 100,00 %
14.05.2017 13:56 20,6 C 18,3 C 66 % 1020,5 hPa 0,0 l/m 10,0 km/h (2 Bft) W-SW 246 2 min 0,000 mm 5,4 UV-I 926 W/m 14,0 C 19,3 C 24,1 km/h (4 Bft) 100,00 %
14.05.2017 13:58 20,6 C 18,3 C 63 % 1020,4 hPa 0,0 l/m 13,4 km/h (3 Bft) SW 223 2 min 0,000 mm 5,4 UV-I 930 W/m 13,3 C 18,4 C 20,9 km/h (4 Bft) 100,00 %
14.05.2017 14:00 20,4 C 18,3 C 63 % 1020,5 hPa 0,0 l/m 12,1 km/h (2 Bft) W-SW 253 2 min 0,533 mm 3,8 UV-I 599 W/m 13,1 C 18,5 C 16,1 km/h (3 Bft) 98,11 %
14.05.2017 14:02 20,3 C 18,3 C 63 % 1020,4 hPa 0,0 l/m 15,5 km/h (3 Bft) W-SW 248 2 min 0,000 mm 5,2 UV-I 587 W/m 13,0 C 17,5 C 24,1 km/h (4 Bft) 100,00 %
14.05.2017 14:04 20,2 C 18,3 C 63 % 1020,5 hPa 0,0 l/m 12,0 km/h (2 Bft) W-SW 240 2 min 0,000 mm 5,3 UV-I 918 W/m 12,9 C 18,3 C 17,7 km/h (3 Bft) 95,74 %
14.05.2017 14:06 20,2 C 18,3 C 64 % 1020,4 hPa 0,0 l/m 13,0 km/h (3 Bft) SW 227 2 min 0,000 mm 5,3 UV-I 912 W/m 13,2 C 18,0 C 22,5 km/h (4 Bft) 94,92 %
14.05.2017 14:08 20,4 C 18,3 C 64 % 1020,5 hPa 0,0 l/m 16,8 km/h (3 Bft) W-SW 244 2 min 0,000 mm 5,3 UV-I 904 W/m 13,4 C 17,3 C 25,7 km/h (4 Bft) 97,87 %
14.05.2017 14:10 20,7 C 18,3 C 63 % 1020,5 hPa 0,0 l/m 9,1 km/h (2 Bft) W-SW 244 2 min 0,000 mm 5,3 UV-I 896 W/m 13,4 C 19,7 C 17,7 km/h (3 Bft) 97,37 %
14.05.2017 14:12 20,7 C 18,3 C 62 % 1020,4 hPa 0,0 l/m 12,8 km/h (3 Bft) W-SW 242 2 min 0,000 mm 5,2 UV-I 882 W/m 13,2 C 18,6 C 17,7 km/h (3 Bft) 98,11 %
14.05.2017 14:14 20,8 C 18,3 C 61 % 1020,5 hPa 0,0 l/m 11,7 km/h (2 Bft) W 263 2 min 0,000 mm 5,2 UV-I 871 W/m 13,0 C 19,0 C 19,3 km/h (3 Bft) 100,00 %
14.05.2017 14:16 20,7 C 18,3 C 60 % 1020,4 hPa 0,0 l/m 10,0 km/h (2 Bft) W-SW 255 2 min 0,000 mm 5,1 UV-I 862 W/m 12,7 C 19,4 C 17,7 km/h (3 Bft) 97,87 %
14.05.2017 14:18 20,6 C 20,0 C 58 % 1020,4 hPa 0,0 l/m 8,8 km/h (2 Bft) W-SW 258 2 min 0,000 mm 4,7 UV-I 860 W/m 12,0 C 19,7 C 17,7 km/h (3 Bft) 100,00 %
14.05.2017 14:20 20,4 C 20,0 C 59 % 1020,4 hPa 0,0 l/m 9,5 km/h (2 Bft) W-NW 303 0 min 0,000 mm 4,7 UV-I 346 W/m 12,1 C 19,2 C 14,5 km/h (3 Bft) 95,45 %
14.05.2017 14:22 20,3 C 20,0 C 61 % 1020,4 hPa 0,0 l/m 4,9 km/h (1 Bft) NW 315 2 min 0,000 mm 5,1 UV-I 859 W/m 12,5 C 20,3 C 11,3 km/h (2 Bft) 96,23 %
14.05.2017 14:24 20,6 C 20,0 C 61 % 1020,3 hPa 0,0 l/m 2,6 km/h (1 Bft) N-NO 24 2 min 0,000 mm 5,1 UV-I 852 W/m 12,8 C 20,6 C 8,0 km/h (2 Bft) 100,00 %
14.05.2017 14:26 20,7 C 20,0 C 63 % 1020,3 hPa 0,0 l/m 3,5 km/h (1 Bft) N-NW 343 2 min 0,000 mm 5,0 UV-I 856 W/m 13,4 C 20,7 C 8,0 km/h (2 Bft) 96,00 %
14.05.2017 14:28 20,8 C 20,0 C 62 % 1020,3 hPa 0,0 l/m 6,0 km/h (2 Bft) SW 220 2 min 0,000 mm 5,0 UV-I 860 W/m 13,2 C 20,8 C 9,7 km/h (2 Bft) 94,74 %
14.05.2017 14:30 20,8 C 20,0 C 60 % 1020,3 hPa 0,0 l/m 6,4 km/h (2 Bft) W 270 2 min 0,000 mm 5,0 UV-I 854 W/m 12,7 C 20,8 C 11,3 km/h (2 Bft) 98,21 %
14.05.2017 14:32 20,8 C 20,0 C 61 % 1020,3 hPa 0,0 l/m 8,9 km/h (2 Bft) W-SW 237 2 min 0,000 mm 5,0 UV-I 857 W/m 13,0 C 19,9 C 14,5 km/h (3 Bft) 100,00 %
14.05.2017 14:34 20,8 C 20,0 C 60 % 1020,3 hPa 0,0 l/m 15,0 km/h (3 Bft) W 261 2 min 0,000 mm 5,0 UV-I 868 W/m 12,7 C 18,2 C 24,1 km/h (4 Bft) 92,68 %
14.05.2017 14:36 20,8 C 20,0 C 59 % 1020,3 hPa 0,0 l/m 10,8 km/h (2 Bft) W 267 2 min 0,000 mm 4,9 UV-I 880 W/m 12,5 C 19,3 C 16,1 km/h (3 Bft) 95,12 %
14.05.2017 14:38 20,8 C 20,0 C 60 % 1020,3 hPa 0,0 l/m 10,2 km/h (2 Bft) W-SW 254 2 min 0,000 mm 4,9 UV-I 905 W/m 12,7 C 19,5 C 16,1 km/h (3 Bft) 93,85 %
14.05.2017 14:40 20,8 C 20,0 C 61 % 1020,2 hPa 0,0 l/m 9,6 km/h (2 Bft) W-SW 240 2 min 0,000 mm 4,8 UV-I 924 W/m 13,0 C 19,6 C 17,7 km/h (3 Bft) 100,00 %
14.05.2017 14:42 21,0 C 20,0 C 58 % 1020,3 hPa 0,0 l/m 13,0 km/h (3 Bft) S-SW 209 2 min 0,000 mm 4,4 UV-I 872 W/m 12,4 C 18,9 C 22,5 km/h (4 Bft) 97,14 %
14.05.2017 14:44 21,0 C 20,0 C 58 % 1020,3 hPa 0,0 l/m 12,3 km/h (3 Bft) W-SW 242 2 min 0,000 mm 4,9 UV-I 885 W/m 12,4 C 19,1 C 22,5 km/h (4 Bft) 96,43 %
14.05.2017 14:46 21,1 C 20,0 C 60 % 1020,2 hPa 0,0 l/m 9,3 km/h (2 Bft) W 259 2 min 0,000 mm 4,9 UV-I 921 W/m 13,0 C 20,1 C 19,3 km/h (3 Bft) 100,00 %
14.05.2017 14:48 21,2 C 20,0 C 59 % 1020,1 hPa 0,0 l/m 9,7 km/h (2 Bft) W 279 2 min 0,000 mm 4,6 UV-I 874 W/m 12,9 C 20,1 C 17,7 km/h (3 Bft) 95,12 %
14.05.2017 14:50 21,3 C 20,0 C 59 % 1020,2 hPa 0,0 l/m 7,4 km/h (2 Bft) NW 312 2 min 0,000 mm 4,3 UV-I 799 W/m 13,0 C 20,9 C 12,9 km/h (3 Bft) 94,00 %
14.05.2017 14:52 21,2 C 20,0 C 58 % 1020,2 hPa 0,0 l/m 11,1 km/h (2 Bft) SW 228 2 min 0,000 mm 4,5 UV-I 794 W/m 12,6 C 19,7 C 16,1 km/h (3 Bft) 89,36 %
14.05.2017 14:54 21,2 C 20,0 C 60 % 1020,2 hPa 0,0 l/m 11,4 km/h (2 Bft) W 263 2 min 0,000 mm 4,1 UV-I 750 W/m 13,1 C 19,6 C 17,7 km/h (3 Bft) 100,00 %
14.05.2017 14:56 21,1 C 20,0 C 60 % 1020,1 hPa 0,0 l/m 8,5 km/h (2 Bft) W-NW 296 2 min 0,000 mm 4,4 UV-I 633 W/m 13,0 C 20,3 C 12,9 km/h (3 Bft) 93,62 %
14.05.2017 14:58 20,9 C 20,0 C 59 % 1020,1 hPa 0,0 l/m 5,5 km/h (1 Bft) W-SW 257 2 min 0,000 mm 4,2 UV-I 652 W/m 12,6 C 20,9 C 12,9 km/h (3 Bft) 95,12 %
14.05.2017 15:00 20,9 C 20,0 C 60 % 1020,0 hPa 0,0 l/m 9,5 km/h (2 Bft) W 274 2 min 0,000 mm 4,7 UV-I 880 W/m 12,8 C 19,8 C 17,7 km/h (3 Bft) 98,00 %
14.05.2017 15:02 21,1 C 20,0 C 60 % 1020,1 hPa 0,0 l/m 10,5 km/h (2 Bft) W-SW 247 2 min 0,533 mm 4,5 UV-I 859 W/m 13,0 C 19,7 C 16,1 km/h (3 Bft) 97,73 %
14.05.2017 15:04 21,2 C 20,0 C 62 % 1020,0 hPa 0,0 l/m 8,5 km/h (2 Bft) W-SW 250 2 min 0,000 mm 4,5 UV-I 857 W/m 13,6 C 20,4 C 14,5 km/h (3 Bft) 92,86 %
14.05.2017 15:06 21,3 C 20,0 C 57 % 1019,9 hPa 0,0 l/m 13,8 km/h (3 Bft) W 265 2 min 0,000 mm 4,4 UV-I 860 W/m 12,4 C 19,1 C 17,7 km/h (3 Bft) 94,83 %
14.05.2017 15:08 21,3 C 20,0 C 55 % 1020,0 hPa 0,0 l/m 10,0 km/h (2 Bft) SW 225 2 min 0,000 mm 4,3 UV-I 848 W/m 11,9 C 20,1 C 16,1 km/h (3 Bft) 97,87 %
14.05.2017 15:10 21,4 C 20,0 C 55 % 1020,0 hPa 0,0 l/m 9,2 km/h (2 Bft) W 275 2 min 0,000 mm 4,3 UV-I 846 W/m 12,0 C 20,4 C 16,1 km/h (3 Bft) 95,83 %
14.05.2017 15:12 21,4 C 20,0 C 54 % 1020,0 hPa 0,0 l/m 10,3 km/h (2 Bft) W 264 2 min 0,000 mm 4,2 UV-I 836 W/m 11,7 C 20,1 C 19,3 km/h (3 Bft) 95,74 %
14.05.2017 15:14 21,4 C 20,0 C 57 % 1019,9 hPa 0,0 l/m 5,9 km/h (2 Bft) NW 311 2 min 0,000 mm 4,2 UV-I 835 W/m 12,5 C 21,4 C 12,9 km/h (3 Bft) 97,14 %
14.05.2017 15:16 21,4 C 20,0 C 58 % 1019,9 hPa 0,0 l/m 5,7 km/h (1 Bft) W-NW 283 2 min 0,000 mm 4,2 UV-I 847 W/m 12,8 C 21,4 C 9,7 km/h (2 Bft) 96,43 %
14.05.2017 15:18 21,3 C 20,0 C 56 % 1019,8 hPa 0,0 l/m 9,2 km/h (2 Bft) NW 309 2 min 0,000 mm 4,1 UV-I 827 W/m 12,2 C 20,3 C 12,9 km/h (3 Bft) 96,00 %
14.05.2017 15:20 21,4 C 20,0 C 60 % 1019,9 hPa 0,0 l/m 5,4 km/h (1 Bft) W-NW 287 2 min 0,000 mm 4,1 UV-I 882 W/m 13,3 C 21,4 C 11,3 km/h (2 Bft) 95,45 %
14.05.2017 15:22 21,7 C 20,0 C 57 % 1019,8 hPa 0,0 l/m 2,7 km/h (1 Bft) N-NW 343 2 min 0,000 mm 3,9 UV-I 896 W/m 12,8 C 21,7 C 6,4 km/h (2 Bft) 95,74 %
14.05.2017 15:24 21,7 C 20,0 C 59 % 1019,8 hPa 0,0 l/m 2,3 km/h (1 Bft) N-NO 13 2 min 0,000 mm 3,3 UV-I 888 W/m 13,3 C 21,7 C 3,2 km/h (1 Bft) 92,68 %
14.05.2017 15:26 21,6 C 20,0 C 60 % 1019,7 hPa 0,0 l/m 4,7 km/h (1 Bft) NW 325 2 min 0,000 mm 2,2 UV-I 428 W/m 13,5 C 21,6 C 14,5 km/h (3 Bft) 88,00 %
14.05.2017 15:28 21,2 C 20,0 C 60 % 1019,8 hPa 0,0 l/m 3,0 km/h (1 Bft) NW 319 0 min 0,000 mm 2,8 UV-I 248 W/m 13,1 C 21,2 C 8,0 km/h (2 Bft) 92,68 %
14.05.2017 15:30 21,2 C 20,0 C 61 % 1019,7 hPa 0,0 l/m 3,6 km/h (1 Bft) NW 315 2 min 0,000 mm 3,7 UV-I 885 W/m 13,4 C 21,2 C 8,0 km/h (2 Bft) 98,00 %
14.05.2017 15:32 21,4 C 20,0 C 61 % 1019,7 hPa 0,0 l/m 5,1 km/h (1 Bft) N-NO 29 2 min 0,000 mm 3,9 UV-I 898 W/m 13,6 C 21,4 C 11,3 km/h (2 Bft) 94,00 %
14.05.2017 15:34 21,7 C 20,0 C 56 % 1019,7 hPa 0,0 l/m 10,3 km/h (2 Bft) SW 235 2 min 0,000 mm 3,8 UV-I 854 W/m 12,5 C 20,4 C 17,7 km/h (3 Bft) 92,68 %
14.05.2017 15:36 21,7 C 20,0 C 55 % 1019,7 hPa 0,0 l/m 8,9 km/h (2 Bft) W-SW 250 2 min 0,000 mm 3,7 UV-I 811 W/m 12,3 C 20,8 C 16,1 km/h (3 Bft) 98,21 %
14.05.2017 15:38 21,5 C 20,0 C 55 % 1019,6 hPa 0,0 l/m 8,3 km/h (2 Bft) N-NW 330 2 min 0,000 mm 3,7 UV-I 785 W/m 12,1 C 20,8 C 16,1 km/h (3 Bft) 94,74 %
14.05.2017 15:40 21,3 C 20,0 C 56 % 1019,6 hPa 0,0 l/m 6,0 km/h (2 Bft) W-SW 254 2 min 0,000 mm 3,6 UV-I 773 W/m 12,2 C 21,3 C 11,3 km/h (2 Bft) 98,00 %
14.05.2017 15:42 21,6 C 20,0 C 58 % 1019,7 hPa 0,0 l/m 3,7 km/h (1 Bft) NW 325 2 min 0,000 mm 3,6 UV-I 762 W/m 13,0 C 21,6 C 9,7 km/h (2 Bft) 97,87 %
14.05.2017 15:44 21,7 C 20,0 C 60 % 1019,7 hPa 0,0 l/m 2,8 km/h (1 Bft) W-NW 296 2 min 0,000 mm 3,5 UV-I 750 W/m 13,6 C 21,7 C 6,4 km/h (2 Bft) 95,83 %
14.05.2017 15:46 21,7 C 20,0 C 56 % 1019,7 hPa 0,0 l/m 4,0 km/h (1 Bft) NW 304 2 min 0,000 mm 3,5 UV-I 745 W/m 12,5 C 21,7 C 9,7 km/h (2 Bft) 96,15 %
14.05.2017 15:48 21,7 C 20,0 C 61 % 1019,7 hPa 0,0 l/m 3,6 km/h (1 Bft) W-NW 294 2 min 0,000 mm 3,4 UV-I 741 W/m 13,8 C 21,7 C 8,0 km/h (2 Bft) 94,87 %
14.05.2017 15:50 21,7 C 20,0 C 59 % 1019,7 hPa 0,0 l/m 4,3 km/h (1 Bft) W-SW 254 2 min 0,000 mm 3,4 UV-I 735 W/m 13,3 C 21,7 C 9,7 km/h (2 Bft) 96,23 %
14.05.2017 15:53 21,7 C 20,0 C 58 % 1019,7 hPa 0,0 l/m 6,3 km/h (2 Bft) W 274 3 min 0,000 mm 3,4 UV-I 735 W/m 13,1 C 21,7 C 12,9 km/h (3 Bft) 98,57 %
14.05.2017 15:54 21,7 C 20,0 C 57 % 1019,7 hPa 0,0 l/m 5,6 km/h (1 Bft) W-NW 297 1 min 0,000 mm 3,3 UV-I 738 W/m 12,8 C 21,7 C 9,7 km/h (2 Bft) 95,83 %
14.05.2017 15:56 21,6 C 20,0 C 58 % 1019,7 hPa 0,0 l/m 5,3 km/h (1 Bft) NW 309 2 min 0,000 mm 3,3 UV-I 739 W/m 13,0 C 21,6 C 12,9 km/h (3 Bft) 98,00 %
14.05.2017 15:58 21,4 C 20,0 C 55 % 1019,7 hPa 0,0 l/m 4,6 km/h (1 Bft) N-NW 345 2 min 0,000 mm 3,2 UV-I 734 W/m 12,0 C 21,4 C 11,3 km/h (2 Bft) 97,56 %
14.05.2017 16:00 21,4 C 20,0 C 57 % 1019,7 hPa 0,0 l/m 6,5 km/h (2 Bft) NW 311 2 min 0,508 mm 3,2 UV-I 746 W/m 12,5 C 21,4 C 12,9 km/h (3 Bft) 96,00 %
14.05.2017 16:02 21,6 C 20,0 C 57 % 1019,7 hPa 0,0 l/m 3,9 km/h (1 Bft) NW 306 2 min 0,000 mm 3,2 UV-I 764 W/m 12,7 C 21,6 C 9,7 km/h (2 Bft) 92,11 %
14.05.2017 16:04 21,6 C 20,0 C 57 % 1019,7 hPa 0,0 l/m 3,3 km/h (1 Bft) W-NW 290 2 min 0,000 mm 3,0 UV-I 755 W/m 12,7 C 21,6 C 6,4 km/h (2 Bft) 95,74 %
14.05.2017 16:06 21,6 C 20,0 C 59 % 1019,7 hPa 0,0 l/m 2,7 km/h (1 Bft) NW 314 2 min 0,000 mm 2,6 UV-I 489 W/m 13,2 C 21,6 C 6,4 km/h (2 Bft) 96,00 %
14.05.2017 16:08 21,7 C 20,0 C 58 % 1019,7 hPa 0,0 l/m 4,5 km/h (1 Bft) W-NW 294 2 min 0,000 mm 3,0 UV-I 709 W/m 13,1 C 21,7 C 11,3 km/h (2 Bft) 98,00 %
14.05.2017 16:10 21,6 C 20,0 C 56 % 1019,7 hPa 0,0 l/m 2,9 km/h (1 Bft) NW 304 2 min 0,000 mm 3,0 UV-I 709 W/m 12,4 C 21,6 C 8,0 km/h (2 Bft) 93,62 %
14.05.2017 16:12 21,6 C 20,6 C 56 % 1019,7 hPa 0,0 l/m 1,6 km/h (1 Bft) W-NW 298 2 min 0,000 mm 2,9 UV-I 697 W/m 12,4 C 21,6 C 6,4 km/h (2 Bft) 97,56 %
14.05.2017 16:14 21,7 C 20,6 C 59 % 1019,6 hPa 0,0 l/m 4,8 km/h (1 Bft) W-SW 251 2 min 0,000 mm 2,8 UV-I 694 W/m 13,3 C 21,7 C 11,3 km/h (2 Bft) 96,00 %
14.05.2017 16:16 22,0 C 20,6 C 57 % 1019,6 hPa 0,0 l/m 10,3 km/h (2 Bft) W 272 2 min 0,000 mm 2,8 UV-I 699 W/m 13,1 C 20,8 C 16,1 km/h (3 Bft) 100,00 %
14.05.2017 16:18 22,0 C 20,6 C 58 % 1019,6 hPa 0,0 l/m 5,9 km/h (2 Bft) W-NW 284 2 min 0,000 mm 2,1 UV-I 580 W/m 13,3 C 22,0 C 11,3 km/h (2 Bft) 97,14 %
14.05.2017 16:20 21,8 C 20,6 C 56 % 1019,7 hPa 0,0 l/m 6,2 km/h (2 Bft) SW 223 0 min 0,000 mm 2,5 UV-I 179 W/m 12,6 C 21,8 C 12,9 km/h (3 Bft) 95,74 %
14.05.2017 16:23 21,8 C 20,6 C 55 % 1019,5 hPa 0,0 l/m 6,4 km/h (2 Bft) SW 221 3 min 0,000 mm 2,7 UV-I 692 W/m 12,4 C 21,8 C 12,9 km/h (3 Bft) 89,19 %
14.05.2017 16:24 21,8 C 20,6 C 54 % 1019,5 hPa 0,0 l/m 6,8 km/h (2 Bft) NW 304 1 min 0,000 mm 2,6 UV-I 703 W/m 12,1 C 21,7 C 11,3 km/h (2 Bft) 100,00 %
14.05.2017 16:26 21,8 C 20,6 C 54 % 1019,6 hPa 0,0 l/m 7,6 km/h (2 Bft) NW 304 2 min 0,000 mm 2,1 UV-I 591 W/m 12,1 C 21,4 C 12,9 km/h (3 Bft) 94,55 %
14.05.2017 16:28 21,6 C 20,6 C 53 % 1019,6 hPa 0,0 l/m 5,5 km/h (1 Bft) W-NW 296 0 min 0,000 mm 1,6 UV-I 284 W/m 11,6 C 21,6 C 11,3 km/h (2 Bft) 95,56 %
14.05.2017 16:30 21,2 C 20,6 C 54 % 1019,6 hPa 0,0 l/m 2,5 km/h (1 Bft) W 275 0 min 0,000 mm 1,5 UV-I 110 W/m 11,5 C 21,2 C 4,8 km/h (1 Bft) 97,56 %
14.05.2017 16:32 20,9 C 20,6 C 55 % 1019,6 hPa 0,0 l/m 6,2 km/h (2 Bft) W 259 0 min 0,000 mm 1,7 UV-I 115 W/m 11,5 C 20,9 C 14,5 km/h (3 Bft) 96,23 %
14.05.2017 16:34 20,8 C 20,6 C 58 % 1019,6 hPa 0,0 l/m 4,0 km/h (1 Bft) W 278 0 min 0,000 mm 2,3 UV-I 333 W/m 12,2 C 20,8 C 6,4 km/h (2 Bft) 90,00 %
14.05.2017 16:36 20,9 C 20,6 C 56 % 1019,6 hPa 0,0 l/m 4,1 km/h (1 Bft) W-NW 282 2 min 0,000 mm 1,8 UV-I 550 W/m 11,8 C 20,9 C 11,3 km/h (2 Bft) 93,62 %
14.05.2017 16:38 21,1 C 20,6 C 57 % 1019,6 hPa 0,0 l/m 4,9 km/h (1 Bft) W 278 2 min 0,000 mm 2,3 UV-I 618 W/m 12,2 C 21,1 C 12,9 km/h (3 Bft) 95,12 %
14.05.2017 16:40 21,2 C 20,6 C 55 % 1019,6 hPa 0,0 l/m 7,1 km/h (2 Bft) W 281 2 min 0,000 mm 2,3 UV-I 618 W/m 11,8 C 20,9 C 12,9 km/h (3 Bft) 96,23 %
14.05.2017 16:42 21,3 C 20,6 C 54 % 1019,6 hPa 0,0 l/m 5,2 km/h (1 Bft) W-NW 300 2 min 0,000 mm 2,3 UV-I 602 W/m 11,6 C 21,3 C 9,7 km/h (2 Bft) 87,23 %
14.05.2017 16:44 21,4 C 20,6 C 55 % 1019,5 hPa 0,0 l/m 4,2 km/h (1 Bft) W 273 2 min 0,000 mm 2,2 UV-I 591 W/m 12,0 C 21,4 C 8,0 km/h (2 Bft) 90,24 %
14.05.2017 16:46 21,6 C 20,6 C 56 % 1019,5 hPa 0,0 l/m 9,6 km/h (2 Bft) S 181 2 min 0,000 mm 2,1 UV-I 594 W/m 12,4 C 20,5 C 17,7 km/h (3 Bft) 96,23 %
14.05.2017 16:48 21,6 C 20,6 C 52 % 1019,5 hPa 0,0 l/m 11,7 km/h (2 Bft) W-SW 258 2 min 0,000 mm 1,4 UV-I 474 W/m 11,3 C 19,9 C 16,1 km/h (3 Bft) 97,73 %
14.05.2017 16:50 21,4 C 20,6 C 53 % 1019,5 hPa 0,0 l/m 9,0 km/h (2 Bft) W-SW 248 0 min 0,000 mm 1,3 UV-I 127 W/m 11,4 C 20,5 C 14,5 km/h (3 Bft) 93,62 %
14.05.2017 16:52 21,2 C 20,6 C 54 % 1019,6 hPa 0,0 l/m 7,2 km/h (2 Bft) W 271 0 min 0,000 mm 1,3 UV-I 120 W/m 11,5 C 20,9 C 14,5 km/h (3 Bft) 97,73 %
14.05.2017 16:54 20,9 C 20,6 C 55 % 1019,6 hPa 0,0 l/m 4,3 km/h (1 Bft) W 275 0 min 0,000 mm 1,2 UV-I 120 W/m 11,5 C 20,9 C 8,0 km/h (2 Bft) 100,00 %
14.05.2017 16:56 20,7 C 20,6 C 55 % 1019,6 hPa 0,0 l/m 6,2 km/h (2 Bft) W-SW 254 0 min 0,000 mm 1,1 UV-I 129 W/m 11,3 C 20,7 C 8,0 km/h (2 Bft) 100,00 %
14.05.2017 16:58 20,6 C 20,6 C 57 % 1019,6 hPa 0,0 l/m 4,7 km/h (1 Bft) W-SW 253 0 min 0,000 mm 1,1 UV-I 148 W/m 11,8 C 20,6 C 9,7 km/h (2 Bft) 97,73 %
14.05.2017 17:00 20,5 C 20,6 C 58 % 1019,6 hPa 0,0 l/m 3,4 km/h (1 Bft) NW 311 0 min 0,305 mm 1,2 UV-I 190 W/m 11,9 C 20,5 C 8,0 km/h (2 Bft) 98,11 %
14.05.2017 17:02 20,6 C 20,6 C 57 % 1019,6 hPa 0,0 l/m 3,7 km/h (1 Bft) W-SW 246 0 min 0,000 mm 1,4 UV-I 293 W/m 11,8 C 20,6 C 11,3 km/h (2 Bft) 94,12 %
14.05.2017 17:04 20,7 C 20,6 C 58 % 1019,6 hPa 0,0 l/m 8,2 km/h (2 Bft) W 260 2 min 0,000 mm 1,3 UV-I 313 W/m 12,1 C 20,0 C 12,9 km/h (3 Bft) 97,22 %
14.05.2017 17:06 20,8 C 20,6 C 57 % 1019,6 hPa 0,0 l/m 5,7 km/h (1 Bft) SW 215 0 min 0,000 mm 1,2 UV-I 223 W/m 12,0 C 20,8 C 11,3 km/h (2 Bft) 98,00 %
14.05.2017 17:08 20,9 C 20,6 C 57 % 1019,6 hPa 0,0 l/m 5,0 km/h (1 Bft) W 265 0 min 0,000 mm 1,2 UV-I 235 W/m 12,1 C 20,9 C 9,7 km/h (2 Bft) 97,87 %
14.05.2017 17:10 20,9 C 20,6 C 56 % 1019,6 hPa 0,0 l/m 5,9 km/h (2 Bft) W-SW 248 0 min 0,000 mm 1,2 UV-I 236 W/m 11,8 C 20,9 C 11,3 km/h (2 Bft) 94,74 %
14.05.2017 17:12 20,9 C 20,6 C 56 % 1019,6 hPa 0,0 l/m 7,1 km/h (2 Bft) SW 225 0 min 0,000 mm 1,2 UV-I 241 W/m 11,8 C 20,6 C 11,3 km/h (2 Bft) 94,34 %
14.05.2017 17:14 20,9 C 20,6 C 54 % 1019,6 hPa 0,0 l/m 5,3 km/h (1 Bft) W 262 0 min 0,000 mm 1,2 UV-I 248 W/m 11,2 C 20,9 C 12,9 km/h (3 Bft) 93,18 %
14.05.2017 17:16 20,9 C 20,6 C 55 % 1019,6 hPa 0,0 l/m 4,7 km/h (1 Bft) W 259 0 min 0,000 mm 1,1 UV-I 257 W/m 11,5 C 20,9 C 8,0 km/h (2 Bft) 94,64 %
14.05.2017 17:18 20,9 C 20,6 C 57 % 1019,5 hPa 0,0 l/m 6,1 km/h (2 Bft) W-SW 253 0 min 0,000 mm 1,1 UV-I 269 W/m 12,1 C 20,9 C 11,3 km/h (2 Bft) 98,00 %
14.05.2017 17:20 21,0 C 20,6 C 55 % 1019,5 hPa 0,0 l/m 4,9 km/h (1 Bft) SW 232 0 min 0,000 mm 1,2 UV-I 274 W/m 11,6 C 21,0 C 8,0 km/h (2 Bft) 94,74 %
14.05.2017 17:22 21,0 C 20,6 C 58 % 1019,5 hPa 0,0 l/m 4,7 km/h (1 Bft) SW 220 0 min 0,000 mm 1,1 UV-I 255 W/m 12,4 C 21,0 C 11,3 km/h (2 Bft) 97,87 %
14.05.2017 17:24 21,1 C 20,6 C 56 % 1019,5 hPa 0,0 l/m 4,8 km/h (1 Bft) W-SW 255 0 min 0,000 mm 1,1 UV-I 245 W/m 12,0 C 21,1 C 8,0 km/h (2 Bft) 94,64 %
14.05.2017 17:26 21,1 C 20,6 C 57 % 1019,5 hPa 0,0 l/m 6,7 km/h (2 Bft) W-SW 255 0 min 0,000 mm 1,0 UV-I 231 W/m 12,2 C 21,0 C 11,3 km/h (2 Bft) 100,00 %
14.05.2017 17:28 21,1 C 20,6 C 56 % 1019,5 hPa 0,0 l/m 7,2 km/h (2 Bft) W 270 0 min 0,000 mm 1,0 UV-I 215 W/m 12,0 C 20,8 C 11,3 km/h (2 Bft) 96,23 %
14.05.2017 17:30 21,1 C 20,6 C 56 % 1019,5 hPa 0,0 l/m 4,5 km/h (1 Bft) W 272 0 min 0,000 mm 0,9 UV-I 206 W/m 12,0 C 21,1 C 9,7 km/h (2 Bft) 97,56 %
14.05.2017 17:32 21,0 C 20,6 C 58 % 1019,5 hPa 0,0 l/m 2,3 km/h (1 Bft) W 272 0 min 0,000 mm 0,9 UV-I 200 W/m 12,4 C 21,0 C 4,8 km/h (1 Bft) 100,00 %
14.05.2017 17:34 20,9 C 20,6 C 56 % 1019,5 hPa 0,0 l/m 5,6 km/h (1 Bft) W 260 0 min 0,000 mm 0,9 UV-I 194 W/m 11,8 C 20,9 C 9,7 km/h (2 Bft) 100,00 %
14.05.2017 17:36 20,8 C 20,6 C 56 % 1019,4 hPa 0,0 l/m 4,8 km/h (1 Bft) W-SW 249 0 min 0,000 mm 0,9 UV-I 193 W/m 11,7 C 20,8 C 9,7 km/h (2 Bft) 96,00 %
14.05.2017 17:38 20,8 C 20,6 C 56 % 1019,5 hPa 0,0 l/m 2,2 km/h (1 Bft) W-SW 245 0 min 0,000 mm 0,8 UV-I 199 W/m 11,7 C 20,8 C 6,4 km/h (2 Bft) 100,00 %
14.05.2017 17:40 20,8 C 20,6 C 61 % 1019,5 hPa 0,0 l/m 0,6 km/h (0 Bft) W-SW 245 0 min 0,000 mm 0,8 UV-I 204 W/m 13,0 C 20,8 C 1,6 km/h (1 Bft) 97,96 %
14.05.2017 17:42 20,6 C 20,6 C 61 % 1019,5 hPa 0,0 l/m 2,4 km/h (1 Bft) W 273 0 min 0,000 mm 0,8 UV-I 205 W/m 12,8 C 20,6 C 4,8 km/h (1 Bft) 98,11 %
14.05.2017 17:44 20,7 C 20,6 C 60 % 1019,5 hPa 0,0 l/m 3,7 km/h (1 Bft) W 275 0 min 0,000 mm 0,8 UV-I 204 W/m 12,7 C 20,7 C 6,4 km/h (2 Bft) 97,62 %
14.05.2017 17:46 20,7 C 20,6 C 61 % 1019,5 hPa 0,0 l/m 5,9 km/h (2 Bft) W-SW 244 0 min 0,000 mm 0,8 UV-I 205 W/m 12,9 C 20,7 C 11,3 km/h (2 Bft) 98,11 %
14.05.2017 17:48 20,8 C 20,6 C 60 % 1019,5 hPa 0,0 l/m 4,1 km/h (1 Bft) W-NW 298 0 min 0,000 mm 0,8 UV-I 211 W/m 12,7 C 20,8 C 8,0 km/h (2 Bft) 97,87 %
14.05.2017 17:50 20,8 C 20,6 C 63 % 1019,5 hPa 0,0 l/m 1,1 km/h (1 Bft) W-NW 288 0 min 0,000 mm 0,8 UV-I 212 W/m 13,5 C 20,8 C 6,4 km/h (2 Bft) 100,00 %
14.05.2017 17:52 20,7 C 20,6 C 63 % 1019,5 hPa 0,0 l/m 1,6 km/h (1 Bft) W 270 0 min 0,000 mm 0,7 UV-I 213 W/m 13,4 C 20,7 C 6,4 km/h (2 Bft) 100,00 %
14.05.2017 17:54 20,7 C 20,6 C 60 % 1019,5 hPa 0,0 l/m 5,6 km/h (1 Bft) W-SW 240 0 min 0,000 mm 0,7 UV-I 211 W/m 12,7 C 20,7 C 11,3 km/h (2 Bft) 95,74 %
14.05.2017 17:56 20,7 C 20,6 C 61 % 1019,5 hPa 0,0 l/m 2,5 km/h (1 Bft) W 273 0 min 0,000 mm 0,7 UV-I 205 W/m 12,9 C 20,7 C 4,8 km/h (1 Bft) 100,00 %
14.05.2017 17:58 20,7 C 20,6 C 60 % 1019,5 hPa 0,0 l/m 5,9 km/h (2 Bft) W-NW 286 0 min 0,000 mm 0,7 UV-I 198 W/m 12,7 C 20,7 C 11,3 km/h (2 Bft) 97,73 %
14.05.2017 18:00 20,6 C 20,6 C 61 % 1019,5 hPa 0,0 l/m 6,6 km/h (2 Bft) W 263 0 min 0,000 mm 0,7 UV-I 193 W/m 12,8 C 20,5 C 11,3 km/h (2 Bft) 97,56 %
14.05.2017 18:02 20,6 C 20,6 C 63 % 1019,5 hPa 0,0 l/m 1,0 km/h (0 Bft) W-NW 284 0 min 0,178 mm 0,6 UV-I 195 W/m 13,3 C 20,6 C 3,2 km/h (1 Bft) 96,43 %
14.05.2017 18:04 20,4 C 20,6 C 63 % 1019,5 hPa 0,0 l/m 1,5 km/h (1 Bft) W-NW 285 0 min 0,000 mm 0,6 UV-I 194 W/m 13,1 C 20,4 C 4,8 km/h (1 Bft) 100,00 %
14.05.2017 18:06 20,4 C 20,6 C 61 % 1019,5 hPa 0,0 l/m 3,4 km/h (1 Bft) NW 307 0 min 0,000 mm 0,6 UV-I 190 W/m 12,6 C 20,4 C 6,4 km/h (2 Bft) 98,00 %
14.05.2017 18:08 20,3 C 20,6 C 61 % 1019,5 hPa 0,0 l/m 2,2 km/h (1 Bft) W-NW 287 0 min 0,000 mm 0,6 UV-I 187 W/m 12,5 C 20,3 C 4,8 km/h (1 Bft) 97,56 %
14.05.2017 18:10 20,3 C 20,6 C 62 % 1019,5 hPa 0,0 l/m 3,1 km/h (1 Bft) W-NW 293 0 min 0,000 mm 0,6 UV-I 181 W/m 12,8 C 20,3 C 8,0 km/h (2 Bft) 98,11 %
14.05.2017 18:12 20,3 C 20,6 C 63 % 1019,5 hPa 0,0 l/m 0,9 km/h (0 Bft) W-NW 293 0 min 0,000 mm 0,6 UV-I 171 W/m 13,0 C 20,3 C 3,2 km/h (1 Bft) 100,00 %
14.05.2017 18:14 20,3 C 20,6 C 63 % 1019,5 hPa 0,0 l/m 1,2 km/h (1 Bft) W-NW 290 0 min 0,000 mm 0,5 UV-I 157 W/m 13,0 C 20,3 C 4,8 km/h (1 Bft) 100,00 %
14.05.2017 18:16 20,3 C 20,6 C 62 % 1019,4 hPa 0,0 l/m 2,2 km/h (1 Bft) NW 306 0 min 0,000 mm 0,5 UV-I 145 W/m 12,8 C 20,3 C 6,4 km/h (2 Bft) 97,73 %
14.05.2017 18:18 20,2 C 20,6 C 60 % 1019,5 hPa 0,0 l/m 1,6 km/h (1 Bft) NW 307 0 min 0,000 mm 0,5 UV-I 136 W/m 12,2 C 20,2 C 4,8 km/h (1 Bft) 91,49 %
14.05.2017 18:20 20,2 C 20,6 C 62 % 1019,5 hPa 0,0 l/m 2,2 km/h (1 Bft) W-NW 288 0 min 0,000 mm 0,5 UV-I 134 W/m 12,7 C 20,2 C 4,8 km/h (1 Bft) 97,92 %
14.05.2017 18:22 20,2 C 20,6 C 61 % 1019,5 hPa 0,0 l/m 5,0 km/h (1 Bft) W 267 0 min 0,000 mm 0,5 UV-I 142 W/m 12,4 C 20,2 C 16,1 km/h (3 Bft) 95,92 %
14.05.2017 18:24 20,2 C 20,6 C 60 % 1019,5 hPa 0,0 l/m 4,4 km/h (1 Bft) W-NW 286 0 min 0,000 mm 0,3 UV-I 153 W/m 12,2 C 20,2 C 11,3 km/h (2 Bft) 97,56 %
14.05.2017 18:26 20,2 C 20,6 C 60 % 1019,5 hPa 0,0 l/m 0,8 km/h (0 Bft) W-NW 285 2 min 0,000 mm 0,3 UV-I 214 W/m 12,2 C 20,2 C 4,8 km/h (1 Bft) 98,11 %
14.05.2017 18:28 20,3 C 20,6 C 61 % 1019,6 hPa 0,0 l/m 2,2 km/h (1 Bft) NW 304 2 min 0,000 mm 0,5 UV-I 301 W/m 12,5 C 20,3 C 9,7 km/h (2 Bft) 100,00 %
14.05.2017 18:30 20,5 C 20,6 C 59 % 1019,6 hPa 0,0 l/m 1,9 km/h (1 Bft) W 273 2 min 0,000 mm 0,5 UV-I 310 W/m 12,2 C 20,5 C 4,8 km/h (1 Bft) 92,11 %
14.05.2017 18:32 20,7 C 20,6 C 60 % 1019,6 hPa 0,0 l/m 4,6 km/h (1 Bft) W-NW 298 2 min 0,000 mm 0,5 UV-I 345 W/m 12,7 C 20,7 C 8,0 km/h (2 Bft) 97,87 %
14.05.2017 18:34 20,8 C 20,6 C 59 % 1019,6 hPa 0,0 l/m 1,7 km/h (1 Bft) W-NW 286 2 min 0,000 mm 0,0 UV-I 216 W/m 12,5 C 20,8 C 3,2 km/h (1 Bft) 96,00 %
14.05.2017 18:36 20,8 C 20,6 C 59 % 1019,6 hPa 0,0 l/m 4,8 km/h (1 Bft) W 280 2 min 0,000 mm 0,0 UV-I 167 W/m 12,5 C 20,8 C 11,3 km/h (2 Bft) 98,00 %
14.05.2017 18:38 20,7 C 20,6 C 61 % 1019,6 hPa 0,0 l/m 1,4 km/h (1 Bft) W-NW 288 2 min 0,000 mm 0,0 UV-I 222 W/m 12,9 C 20,7 C 4,8 km/h (1 Bft) 97,56 %
14.05.2017 18:40 20,7 C 20,6 C 60 % 1019,7 hPa 0,0 l/m 4,8 km/h (1 Bft) W-NW 302 2 min 0,000 mm 0,0 UV-I 320 W/m 12,7 C 20,7 C 11,3 km/h (2 Bft) 98,00 %
14.05.2017 18:42 20,8 C 20,6 C 61 % 1019,7 hPa 0,0 l/m 3,3 km/h (1 Bft) W-SW 250 2 min 0,000 mm 0,0 UV-I 326 W/m 13,0 C 20,8 C 6,4 km/h (2 Bft) 100,00 %
14.05.2017 18:44 20,9 C 20,6 C 59 % 1019,7 hPa 0,0 l/m 3,8 km/h (1 Bft) W-SW 253 2 min 0,000 mm 0,0 UV-I 305 W/m 12,6 C 20,9 C 8,0 km/h (2 Bft) 100,00 %
14.05.2017 18:46 21,1 C 20,6 C 60 % 1019,7 hPa 0,0 l/m 4,0 km/h (1 Bft) W 278 2 min 0,000 mm 0,0 UV-I 325 W/m 13,0 C 21,1 C 8,0 km/h (2 Bft) 95,74 %
14.05.2017 18:48 21,2 C 20,6 C 59 % 1019,7 hPa 0,0 l/m 4,6 km/h (1 Bft) W 268 2 min 0,000 mm 0,0 UV-I 297 W/m 12,9 C 21,2 C 9,7 km/h (2 Bft) 96,00 %
14.05.2017 18:50 21,2 C 20,6 C 59 % 1019,7 hPa 0,0 l/m 3,5 km/h (1 Bft) W-NW 285 2 min 0,000 mm 0,0 UV-I 241 W/m 12,9 C 21,2 C 12,9 km/h (3 Bft) 97,37 %
14.05.2017 18:52 21,1 C 20,6 C 58 % 1019,8 hPa 0,0 l/m 3,9 km/h (1 Bft) W-SW 242 2 min 0,000 mm 0,0 UV-I 230 W/m 12,5 C 21,1 C 8,0 km/h (2 Bft) 100,00 %
14.05.2017 18:54 20,9 C 20,6 C 61 % 1019,7 hPa 0,0 l/m 2,5 km/h (1 Bft) W 271 2 min 0,000 mm 0,0 UV-I 202 W/m 13,1 C 20,9 C 9,7 km/h (2 Bft) 97,37 %
14.05.2017 18:56 20,8 C 20,6 C 63 % 1019,7 hPa 0,0 l/m 2,9 km/h (1 Bft) W-NW 294 2 min 0,000 mm 0,0 UV-I 163 W/m 13,5 C 20,8 C 9,7 km/h (2 Bft) 98,21 %
14.05.2017 18:58 20,7 C 20,6 C 63 % 1019,7 hPa 0,0 l/m 3,7 km/h (1 Bft) W-NW 285 2 min 0,000 mm 0,0 UV-I 142 W/m 13,4 C 20,7 C 9,7 km/h (2 Bft) 94,87 %
14.05.2017 19:00 20,5 C 20,6 C 62 % 1019,8 hPa 0,0 l/m 3,6 km/h (1 Bft) S-SO 157 2 min 0,152 mm 0,0 UV-I 136 W/m 13,0 C 20,5 C 6,4 km/h (2 Bft) 97,87 %
14.05.2017 19:02 20,4 C 20,6 C 61 % 1019,8 hPa 0,0 l/m 3,2 km/h (1 Bft) W 262 2 min 0,000 mm 0,0 UV-I 128 W/m 12,6 C 20,4 C 6,4 km/h (2 Bft) 96,23 %
14.05.2017 19:04 20,3 C 20,6 C 61 % 1019,8 hPa 0,0 l/m 3,6 km/h (1 Bft) W-NW 283 0 min 0,000 mm 0,0 UV-I 121 W/m 12,5 C 20,3 C 9,7 km/h (2 Bft) 97,56 %
14.05.2017 19:06 20,2 C 20,6 C 62 % 1019,9 hPa 0,0 l/m 0,7 km/h (0 Bft) N-NW 331 0 min 0,000 mm 0,0 UV-I 112 W/m 12,7 C 20,2 C 3,2 km/h (1 Bft) 96,00 %
14.05.2017 19:08 20,1 C 20,6 C 63 % 1019,9 hPa 0,0 l/m 3,7 km/h (1 Bft) W 267 0 min 0,000 mm 0,0 UV-I 105 W/m 12,8 C 20,1 C 9,7 km/h (2 Bft) 97,87 %
14.05.2017 19:10 20,0 C 20,6 C 64 % 1019,9 hPa 0,0 l/m 1,2 km/h (1 Bft) W-SW 246 0 min 0,000 mm 0,0 UV-I 102 W/m 13,0 C 20,0 C 4,8 km/h (1 Bft) 95,74 %
14.05.2017 19:12 19,9 C 20,6 C 66 % 1020,0 hPa 0,0 l/m 1,9 km/h (1 Bft) W 277 0 min 0,000 mm 0,0 UV-I 99 W/m 13,4 C 19,9 C 4,8 km/h (1 Bft) 95,12 %
14.05.2017 19:14 19,8 C 20,6 C 65 % 1020,0 hPa 0,0 l/m 5,9 km/h (2 Bft) W 259 0 min 0,000 mm 0,0 UV-I 93 W/m 13,0 C 19,8 C 11,3 km/h (2 Bft) 96,43 %
14.05.2017 19:16 19,7 C 20,6 C 64 % 1020,0 hPa 0,0 l/m 4,5 km/h (1 Bft) S-SW 211 0 min 0,000 mm 0,0 UV-I 89 W/m 12,7 C 19,7 C 8,0 km/h (2 Bft) 97,87 %
14.05.2017 19:18 19,7 C 20,6 C 63 % 1020,1 hPa 0,0 l/m 3,5 km/h (1 Bft) W-SW 252 0 min 0,000 mm 0,0 UV-I 81 W/m 12,5 C 19,7 C 6,4 km/h (2 Bft) 95,74 %
14.05.2017 19:20 19,6 C 20,6 C 62 % 1020,1 hPa 0,0 l/m 5,1 km/h (1 Bft) W 261 0 min 0,000 mm 0,0 UV-I 72 W/m 12,1 C 19,6 C 12,9 km/h (3 Bft) 91,49 %
14.05.2017 19:22 19,5 C 20,6 C 62 % 1020,1 hPa 0,0 l/m 3,3 km/h (1 Bft) W 261 0 min 0,000 mm 0,0 UV-I 67 W/m 12,0 C 19,5 C 6,4 km/h (2 Bft) 97,56 %
14.05.2017 19:24 19,4 C 20,6 C 61 % 1020,1 hPa 0,0 l/m 3,3 km/h (1 Bft) SW 219 0 min 0,000 mm 0,0 UV-I 63 W/m 11,7 C 19,4 C 6,4 km/h (2 Bft) 96,00 %
14.05.2017 19:26 19,3 C 20,6 C 61 % 1020,2 hPa 0,0 l/m 5,0 km/h (1 Bft) W-SW 240 0 min 0,000 mm 0,0 UV-I 63 W/m 11,6 C 19,3 C 9,7 km/h (2 Bft) 96,00 %
14.05.2017 19:28 19,3 C 20,6 C 62 % 1020,1 hPa 0,0 l/m 4,8 km/h (1 Bft) W-SW 248 0 min 0,000 mm 0,0 UV-I 61 W/m 11,8 C 19,3 C 6,4 km/h (2 Bft) 100,00 %
14.05.2017 19:30 19,3 C 20,6 C 62 % 1020,1 hPa 0,0 l/m 3,5 km/h (1 Bft) W-SW 249 0 min 0,000 mm 0,0 UV-I 58 W/m 11,8 C 19,3 C 4,8 km/h (1 Bft) 95,74 %
14.05.2017 19:32 19,3 C 20,6 C 62 % 1020,2 hPa 0,0 l/m 5,6 km/h (1 Bft) SW 229 0 min 0,000 mm 0,0 UV-I 55 W/m 11,8 C 19,3 C 9,7 km/h (2 Bft) 97,37 %
14.05.2017 19:34 19,3 C 20,6 C 63 % 1020,2 hPa 0,0 l/m 4,5 km/h (1 Bft) W-SW 250 0 min 0,000 mm 0,0 UV-I 49 W/m 12,1 C 19,3 C 6,4 km/h (2 Bft) 96,23 %
14.05.2017 19:36 19,2 C 20,6 C 63 % 1020,3 hPa 0,0 l/m 5,3 km/h (1 Bft) W-SW 246 0 min 0,000 mm 0,0 UV-I 41 W/m 12,0 C 19,2 C 8,0 km/h (2 Bft) 94,00 %
14.05.2017 19:38 19,3 C 20,6 C 63 % 1020,3 hPa 0,0 l/m 3,9 km/h (1 Bft) W 261 0 min 0,000 mm 0,0 UV-I 35 W/m 12,1 C 19,3 C 6,4 km/h (2 Bft) 100,00 %
14.05.2017 19:40 19,2 C 20,6 C 63 % 1020,4 hPa 0,0 l/m 3,9 km/h (1 Bft) W 267 0 min 0,000 mm 0,0 UV-I 31 W/m 12,0 C 19,2 C 6,4 km/h (2 Bft) 89,47 %
14.05.2017 19:42 19,2 C 20,6 C 64 % 1020,3 hPa 0,0 l/m 5,4 km/h (1 Bft) W-SW 256 0 min 0,000 mm 0,0 UV-I 27 W/m 12,2 C 19,2 C 9,7 km/h (2 Bft) 100,00 %
14.05.2017 19:44 19,2 C 20,6 C 65 % 1020,4 hPa 0,0 l/m 5,8 km/h (2 Bft) W 281 0 min 0,000 mm 0,0 UV-I 27 W/m 12,5 C 19,2 C 9,7 km/h (2 Bft) 100,00 %
14.05.2017 19:46 19,1 C 20,6 C 65 % 1020,4 hPa 0,0 l/m 5,3 km/h (1 Bft) W 263 0 min 0,000 mm 0,0 UV-I 29 W/m 12,4 C 19,1 C 6,4 km/h (2 Bft) 91,49 %
14.05.2017 19:48 19,1 C 20,6 C 65 % 1020,4 hPa 0,0 l/m 5,0 km/h (1 Bft) W-NW 282 0 min 0,000 mm 0,0 UV-I 30 W/m 12,4 C 19,1 C 9,7 km/h (2 Bft) 98,00 %
14.05.2017 19:50 19,1 C 20,6 C 66 % 1020,4 hPa 0,0 l/m 4,1 km/h (1 Bft) W 260 0 min 0,000 mm 0,0 UV-I 30 W/m 12,6 C 19,1 C 4,8 km/h (1 Bft) 95,12 %
14.05.2017 19:52 19,0 C 20,6 C 66 % 1020,4 hPa 0,0 l/m 4,3 km/h (1 Bft) W 259 0 min 0,000 mm 0,0 UV-I 32 W/m 12,5 C 19,0 C 6,4 km/h (2 Bft) 100,00 %
14.05.2017 19:54 18,9 C 20,6 C 66 % 1020,4 hPa 0,0 l/m 4,3 km/h (1 Bft) W 259 0 min 0,000 mm 0,0 UV-I 32 W/m 12,4 C 18,9 C 6,4 km/h (2 Bft) 98,00 %
14.05.2017 19:56 18,9 C 20,6 C 67 % 1020,5 hPa 0,0 l/m 5,5 km/h (1 Bft) W-SW 242 0 min 0,000 mm 0,0 UV-I 33 W/m 12,6 C 18,9 C 8,0 km/h (2 Bft) 100,00 %
14.05.2017 19:58 18,9 C 20,6 C 66 % 1020,5 hPa 0,0 l/m 6,5 km/h (2 Bft) W-SW 244 0 min 0,000 mm 0,0 UV-I 32 W/m 12,4 C 18,9 C 11,3 km/h (2 Bft) 94,74 %
14.05.2017 20:00 18,9 C 20,6 C 67 % 1020,6 hPa 0,0 l/m 6,9 km/h (2 Bft) W-SW 253 0 min 0,000 mm 0,0 UV-I 30 W/m 12,6 C 18,7 C 11,3 km/h (2 Bft) 98,00 %
14.05.2017 20:02 18,9 C 20,6 C 67 % 1020,6 hPa 0,0 l/m 6,8 km/h (2 Bft) W 261 0 min 0,051 mm 0,0 UV-I 28 W/m 12,6 C 18,7 C 11,3 km/h (2 Bft) 100,00 %
14.05.2017 20:04 18,8 C 20,6 C 67 % 1020,6 hPa 0,0 l/m 5,8 km/h (2 Bft) W-SW 258 0 min 0,000 mm 0,0 UV-I 28 W/m 12,5 C 18,8 C 8,0 km/h (2 Bft) 94,74 %
14.05.2017 20:06 18,8 C 20,6 C 67 % 1020,6 hPa 0,0 l/m 7,4 km/h (2 Bft) W-SW 257 0 min 0,000 mm 0,0 UV-I 28 W/m 12,5 C 18,4 C 11,3 km/h (2 Bft) 96,23 %
14.05.2017 20:08 18,8 C 20,6 C 67 % 1020,6 hPa 0,0 l/m 6,2 km/h (2 Bft) W-SW 255 0 min 0,000 mm 0,0 UV-I 28 W/m 12,5 C 18,8 C 9,7 km/h (2 Bft) 92,00 %
14.05.2017 20:10 18,8 C 20,6 C 68 % 1020,7 hPa 0,0 l/m 5,6 km/h (1 Bft) W-SW 253 0 min 0,000 mm 0,0 UV-I 25 W/m 12,8 C 18,8 C 11,3 km/h (2 Bft) 98,00 %
14.05.2017 20:12 18,7 C 20,6 C 68 % 1020,7 hPa 0,0 l/m 5,2 km/h (1 Bft) W 265 0 min 0,000 mm 0,0 UV-I 21 W/m 12,7 C 18,7 C 9,7 km/h (2 Bft) 92,68 %
14.05.2017 20:14 18,7 C 20,6 C 68 % 1020,7 hPa 0,0 l/m 6,7 km/h (2 Bft) W 260 0 min 0,000 mm 0,0 UV-I 18 W/m 12,7 C 18,6 C 12,9 km/h (3 Bft) 98,11 %
14.05.2017 20:16 18,7 C 20,6 C 68 % 1020,8 hPa 0,0 l/m 6,4 km/h (2 Bft) W-SW 254 0 min 0,000 mm 0,0 UV-I 16 W/m 12,7 C 18,7 C 12,9 km/h (3 Bft) 95,12 %
14.05.2017 20:18 18,6 C 20,6 C 68 % 1020,8 hPa 0,0 l/m 5,5 km/h (1 Bft) W 267 0 min 0,000 mm 0,0 UV-I 11 W/m 12,6 C 18,6 C 9,7 km/h (2 Bft) 94,00 %
14.05.2017 20:20 18,6 C 20,6 C 69 % 1020,8 hPa 0,0 l/m 7,0 km/h (2 Bft) W 276 0 min 0,000 mm 0,0 UV-I 9 W/m 12,8 C 18,3 C 11,3 km/h (2 Bft) 94,44 %
14.05.2017 20:22 18,6 C 20,6 C 69 % 1020,8 hPa 0,0 l/m 5,7 km/h (1 Bft) W-SW 257 0 min 0,000 mm 0,0 UV-I 6 W/m 12,8 C 18,6 C 12,9 km/h (3 Bft) 98,21 %
14.05.2017 20:24 18,5 C 20,6 C 69 % 1020,8 hPa 0,0 l/m 6,9 km/h (2 Bft) W-SW 250 0 min 0,000 mm 0,0 UV-I 5 W/m 12,7 C 18,3 C 11,3 km/h (2 Bft) 98,00 %
14.05.2017 20:26 18,4 C 20,6 C 70 % 1020,8 hPa 0,0 l/m 5,7 km/h (1 Bft) W 263 0 min 0,000 mm 0,0 UV-I 7 W/m 12,8 C 18,4 C 9,7 km/h (2 Bft) 94,74 %
14.05.2017 20:28 18,4 C 20,6 C 69 % 1020,8 hPa 0,0 l/m 7,6 km/h (2 Bft) W-SW 257 0 min 0,000 mm 0,0 UV-I 9 W/m 12,6 C 17,8 C 12,9 km/h (3 Bft) 98,00 %
14.05.2017 20:30 18,4 C 20,6 C 69 % 1020,9 hPa 0,0 l/m 8,2 km/h (2 Bft) W 269 0 min 0,000 mm 0,0 UV-I 9 W/m 12,6 C 17,6 C 12,9 km/h (3 Bft) 95,74 %
14.05.2017 20:32 18,3 C 20,6 C 70 % 1020,9 hPa 0,0 l/m 7,5 km/h (2 Bft) W 273 0 min 0,000 mm 0,0 UV-I 6 W/m 12,7 C 17,8 C 11,3 km/h (2 Bft) 95,74 %
14.05.2017 20:34 18,3 C 20,6 C 70 % 1021,0 hPa 0,0 l/m 9,0 km/h (2 Bft) SW 232 0 min 0,000 mm 0,0 UV-I 2 W/m 12,7 C 17,1 C 11,3 km/h (2 Bft) 97,87 %
14.05.2017 20:36 18,3 C 20,6 C 70 % 1021,0 hPa 0,0 l/m 9,4 km/h (2 Bft) SW 236 0 min 0,000 mm 0,0 UV-I 0 W/m 12,7 C 17,0 C 14,5 km/h (3 Bft) 95,45 %
14.05.2017 20:38 18,3 C 20,6 C 71 % 1021,0 hPa 0,0 l/m 13,0 km/h (3 Bft) W-SW 257 0 min 0,000 mm 0,0 UV-I 0 W/m 12,9 C 15,8 C 19,3 km/h (3 Bft) 94,34 %
14.05.2017 20:40 18,2 C 20,6 C 72 % 1021,1 hPa 0,0 l/m 9,3 km/h (2 Bft) W-SW 242 0 min 0,000 mm 0,0 UV-I 0 W/m 13,1 C 16,9 C 12,9 km/h (3 Bft) 97,73 %
14.05.2017 20:42 18,0 C 20,6 C 73 % 1021,1 hPa 0,0 l/m 9,6 km/h (2 Bft) W-SW 240 0 min 0,000 mm 0,0 UV-I 0 W/m 13,1 C 16,6 C 12,9 km/h (3 Bft) 98,00 %
14.05.2017 20:44 17,8 C 20,6 C 74 % 1021,1 hPa 0,0 l/m 9,7 km/h (2 Bft) W 259 0 min 0,000 mm 0,0 UV-I 0 W/m 13,1 C 16,3 C 12,9 km/h (3 Bft) 98,00 %
14.05.2017 20:46 17,7 C 20,6 C 75 % 1021,1 hPa 0,0 l/m 9,6 km/h (2 Bft) W 262 0 min 0,000 mm 0,0 UV-I 0 W/m 13,2 C 16,3 C 14,5 km/h (3 Bft) 94,74 %
14.05.2017 20:48 17,5 C 20,6 C 75 % 1021,2 hPa 0,0 l/m 10,2 km/h (2 Bft) W-SW 255 0 min 0,000 mm 0,0 UV-I 0 W/m 13,0 C 15,8 C 14,5 km/h (3 Bft) 98,00 %
14.05.2017 20:50 17,4 C 20,6 C 74 % 1021,2 hPa 0,0 l/m 8,3 km/h (2 Bft) W-SW 246 0 min 0,000 mm 0,0 UV-I 0 W/m 12,7 C 16,5 C 14,5 km/h (3 Bft) 95,45 %
14.05.2017 20:52 17,3 C 20,6 C 74 % 1021,3 hPa 0,0 l/m 9,9 km/h (2 Bft) W-SW 250 0 min 0,000 mm 0,0 UV-I 0 W/m 12,6 C 15,7 C 14,5 km/h (3 Bft) 94,00 %
14.05.2017 20:54 17,3 C 20,6 C 73 % 1021,3 hPa 0,0 l/m 8,2 km/h (2 Bft) W-SW 252 0 min 0,000 mm 0,0 UV-I 0 W/m 12,4 C 16,4 C 12,9 km/h (3 Bft) 92,86 %
14.05.2017 20:56 17,2 C 20,6 C 73 % 1021,3 hPa 0,0 l/m 7,0 km/h (2 Bft) W-SW 247 0 min 0,000 mm 0,0 UV-I 0 W/m 12,3 C 16,9 C 11,3 km/h (2 Bft) 92,00 %
14.05.2017 20:58 17,2 C 20,6 C 73 % 1021,4 hPa 0,0 l/m 6,6 km/h (2 Bft) SW 234 0 min 0,000 mm 0,0 UV-I 0 W/m 12,3 C 17,1 C 9,7 km/h (2 Bft) 96,15 %
14.05.2017 21:00 17,2 C 20,6 C 72 % 1021,3 hPa 0,0 l/m 8,4 km/h (2 Bft) W-SW 250 0 min 0,051 mm 0,0 UV-I 0 W/m 12,1 C 16,2 C 12,9 km/h (3 Bft) 95,92 %
14.05.2017 21:02 17,2 C 20,6 C 72 % 1021,3 hPa 0,0 l/m 8,0 km/h (2 Bft) W-SW 253 0 min 0,000 mm 0,0 UV-I 0 W/m 12,1 C 16,4 C 12,9 km/h (3 Bft) 95,56 %
14.05.2017 21:04 17,2 C 20,6 C 71 % 1021,4 hPa 0,0 l/m 8,9 km/h (2 Bft) W-SW 249 0 min 0,000 mm 0,0 UV-I 0 W/m 11,9 C 16,0 C 14,5 km/h (3 Bft) 97,73 %
14.05.2017 21:06 17,2 C 20,6 C 71 % 1021,4 hPa 0,0 l/m 9,0 km/h (2 Bft) W-SW 258 0 min 0,000 mm 0,0 UV-I 0 W/m 11,9 C 16,0 C 12,9 km/h (3 Bft) 96,00 %
14.05.2017 21:08 17,2 C 20,6 C 71 % 1021,4 hPa 0,0 l/m 9,2 km/h (2 Bft) W-SW 242 0 min 0,000 mm 0,0 UV-I 0 W/m 11,9 C 15,9 C 12,9 km/h (3 Bft) 92,11 %
14.05.2017 21:10 17,2 C 20,6 C 70 % 1021,4 hPa 0,0 l/m 9,7 km/h (2 Bft) W-SW 258 0 min 0,000 mm 0,0 UV-I 0 W/m 11,7 C 15,7 C 14,5 km/h (3 Bft) 96,00 %
14.05.2017 21:12 17,2 C 20,6 C 70 % 1021,4 hPa 0,0 l/m 9,4 km/h (2 Bft) W 268 0 min 0,000 mm 0,0 UV-I 0 W/m 11,7 C 15,8 C 16,1 km/h (3 Bft) 96,00 %
14.05.2017 21:14 17,2 C 20,6 C 70 % 1021,4 hPa 0,0 l/m 8,6 km/h (2 Bft) W-SW 257 0 min 0,000 mm 0,0 UV-I 0 W/m 11,7 C 16,1 C 14,5 km/h (3 Bft) 97,73 %
14.05.2017 21:16 17,2 C 20,6 C 70 % 1021,6 hPa 0,0 l/m 9,7 km/h (2 Bft) W 267 0 min 0,000 mm 0,0 UV-I 0 W/m 11,7 C 15,7 C 12,9 km/h (3 Bft) 97,56 %
14.05.2017 21:18 17,2 C 20,6 C 70 % 1021,6 hPa 0,0 l/m 9,7 km/h (2 Bft) W-SW 251 0 min 0,000 mm 0,0 UV-I 0 W/m 11,7 C 15,7 C 14,5 km/h (3 Bft) 96,00 %
14.05.2017 21:20 17,2 C 20,6 C 69 % 1021,7 hPa 0,0 l/m 10,3 km/h (2 Bft) W-SW 244 0 min 0,000 mm 0,0 UV-I 0 W/m 11,5 C 15,4 C 14,5 km/h (3 Bft) 98,21 %
14.05.2017 21:22 17,2 C 20,6 C 69 % 1021,8 hPa 0,0 l/m 9,0 km/h (2 Bft) W 262 0 min 0,000 mm 0,0 UV-I 0 W/m 11,5 C 16,0 C 14,5 km/h (3 Bft) 97,73 %
14.05.2017 21:24 17,2 C 20,6 C 69 % 1021,8 hPa 0,0 l/m 9,7 km/h (2 Bft) W 263 0 min 0,000 mm 0,0 UV-I 0 W/m 11,5 C 15,7 C 14,5 km/h (3 Bft) 92,11 %
14.05.2017 21:26 17,2 C 20,6 C 69 % 1021,8 hPa 0,0 l/m 9,2 km/h (2 Bft) W-SW 245 0 min 0,000 mm 0,0 UV-I 0 W/m 11,5 C 15,9 C 14,5 km/h (3 Bft) 95,74 %
14.05.2017 21:28 17,2 C 20,0 C 69 % 1021,8 hPa 0,0 l/m 9,7 km/h (2 Bft) W-SW 256 0 min 0,000 mm 0,0 UV-I 0 W/m 11,5 C 15,7 C 16,1 km/h (3 Bft) 100,00 %
14.05.2017 21:30 17,2 C 20,0 C 68 % 1021,9 hPa 0,0 l/m 8,2 km/h (2 Bft) W-NW 282 0 min 0,000 mm 0,0 UV-I 0 W/m 11,2 C 16,3 C 14,5 km/h (3 Bft) 96,00 %
14.05.2017 21:32 17,1 C 20,0 C 68 % 1021,9 hPa 0,0 l/m 8,5 km/h (2 Bft) W-SW 246 0 min 0,000 mm 0,0 UV-I 0 W/m 11,1 C 16,1 C 12,9 km/h (3 Bft) 100,00 %
14.05.2017 21:34 17,1 C 20,0 C 69 % 1022,0 hPa 0,0 l/m 9,9 km/h (2 Bft) W 260 0 min 0,000 mm 0,0 UV-I 0 W/m 11,4 C 15,5 C 16,1 km/h (3 Bft) 100,00 %
14.05.2017 21:36 17,1 C 20,0 C 69 % 1022,0 hPa 0,0 l/m 8,7 km/h (2 Bft) SW 225 0 min 0,000 mm 0,0 UV-I 0 W/m 11,4 C 16,0 C 12,9 km/h (3 Bft) 100,00 %
14.05.2017 21:38 17,1 C 20,0 C 69 % 1022,1 hPa 0,0 l/m 10,5 km/h (2 Bft) W 267 0 min 0,000 mm 0,0 UV-I 0 W/m 11,4 C 15,2 C 12,9 km/h (3 Bft) 100,00 %
14.05.2017 21:40 17,1 C 20,6 C 69 % 1022,1 hPa 0,0 l/m 9,1 km/h (2 Bft) W-SW 252 0 min 0,000 mm 0,0 UV-I 0 W/m 11,4 C 15,8 C 12,9 km/h (3 Bft) 100,00 %
14.05.2017 21:42 17,1 C 20,6 C 69 % 1022,2 hPa 0,0 l/m 9,0 km/h (2 Bft) W-SW 258 0 min 0,000 mm 0,0 UV-I 0 W/m 11,4 C 15,9 C 12,9 km/h (3 Bft) 98,00 %
14.05.2017 21:44 17,1 C 20,6 C 69 % 1022,1 hPa 0,0 l/m 6,8 km/h (2 Bft) W-SW 241 0 min 0,000 mm 0,0 UV-I 0 W/m 11,4 C 16,9 C 11,3 km/h (2 Bft) 100,00 %
14.05.2017 21:46 17,1 C 20,0 C 69 % 1022,2 hPa 0,0 l/m 7,7 km/h (2 Bft) W-SW 254 0 min 0,000 mm 0,0 UV-I 0 W/m 11,4 C 16,5 C 12,9 km/h (3 Bft) 100,00 %
14.05.2017 21:48 17,0 C 20,0 C 70 % 1022,3 hPa 0,0 l/m 6,7 km/h (2 Bft) W 261 0 min 0,000 mm 0,0 UV-I 0 W/m 11,5 C 16,9 C 12,9 km/h (3 Bft) 98,11 %
14.05.2017 21:50 17,0 C 20,0 C 70 % 1022,3 hPa 0,0 l/m 7,5 km/h (2 Bft) W-SW 258 0 min 0,000 mm 0,0 UV-I 0 W/m 11,5 C 16,4 C 11,3 km/h (2 Bft) 100,00 %
14.05.2017 21:52 16,9 C 20,0 C 70 % 1022,4 hPa 0,0 l/m 8,2 km/h (2 Bft) W-SW 248 0 min 0,000 mm 0,0 UV-I 0 W/m 11,4 C 16,0 C 12,9 km/h (3 Bft) 100,00 %
14.05.2017 21:54 16,9 C 20,0 C 70 % 1022,4 hPa 0,0 l/m 7,6 km/h (2 Bft) W-SW 242 0 min 0,000 mm 0,0 UV-I 0 W/m 11,4 C 16,3 C 11,3 km/h (2 Bft) 100,00 %
14.05.2017 21:56 16,9 C 20,0 C 70 % 1022,3 hPa 0,0 l/m 5,6 km/h (1 Bft) SW 225 0 min 0,000 mm 0,0 UV-I 0 W/m 11,4 C 16,9 C 8,0 km/h (2 Bft) 100,00 %
14.05.2017 21:58 16,9 C 20,0 C 71 % 1022,4 hPa 0,0 l/m 5,2 km/h (1 Bft) W-SW 246 0 min 0,000 mm 0,0 UV-I 0 W/m 11,6 C 16,9 C 8,0 km/h (2 Bft) 100,00 %
14.05.2017 22:00 16,8 C 20,0 C 72 % 1022,4 hPa 0,0 l/m 5,7 km/h (1 Bft) W-SW 241 0 min 0,051 mm 0,0 UV-I 0 W/m 11,7 C 16,8 C 8,0 km/h (2 Bft) 97,56 %
14.05.2017 22:02 16,8 C 20,0 C 73 % 1022,4 hPa 0,0 l/m 6,5 km/h (2 Bft) SW 227 0 min 0,000 mm 0,0 UV-I 0 W/m 11,9 C 16,8 C 11,3 km/h (2 Bft) 97,87 %
14.05.2017 22:04 16,7 C 20,0 C 73 % 1022,5 hPa 0,0 l/m 7,3 km/h (2 Bft) SW 236 0 min 0,000 mm 0,0 UV-I 0 W/m 11,8 C 16,2 C 11,3 km/h (2 Bft) 97,87 %
14.05.2017 22:06 16,7 C 20,0 C 73 % 1022,5 hPa 0,0 l/m 6,0 km/h (2 Bft) W-SW 250 0 min 0,000 mm 0,0 UV-I 0 W/m 11,8 C 16,7 C 9,7 km/h (2 Bft) 100,00 %
14.05.2017 22:08 16,6 C 20,0 C 74 % 1022,5 hPa 0,0 l/m 5,9 km/h (2 Bft) SW 229 0 min 0,000 mm 0,0 UV-I 0 W/m 11,9 C 16,6 C 9,7 km/h (2 Bft) 100,00 %
14.05.2017 22:10 16,6 C 20,0 C 74 % 1022,5 hPa 0,0 l/m 7,4 km/h (2 Bft) SW 217 0 min 0,000 mm 0,0 UV-I 0 W/m 11,9 C 16,1 C 11,3 km/h (2 Bft) 100,00 %
14.05.2017 22:12 16,5 C 20,0 C 74 % 1022,5 hPa 0,0 l/m 7,9 km/h (2 Bft) W-SW 237 0 min 0,000 mm 0,0 UV-I 0 W/m 11,8 C 15,7 C 9,7 km/h (2 Bft) 100,00 %
14.05.2017 22:14 16,5 C 20,0 C 74 % 1022,5 hPa 0,0 l/m 7,8 km/h (2 Bft) W-SW 252 0 min 0,000 mm 0,0 UV-I 0 W/m 11,8 C 15,8 C 11,3 km/h (2 Bft) 96,36 %
14.05.2017 22:16 16,4 C 20,0 C 74 % 1022,6 hPa 0,0 l/m 7,8 km/h (2 Bft) SW 217 0 min 0,000 mm 0,0 UV-I 0 W/m 11,8 C 15,7 C 11,3 km/h (2 Bft) 100,00 %
14.05.2017 22:18 16,4 C 20,0 C 74 % 1022,6 hPa 0,0 l/m 7,3 km/h (2 Bft) W-SW 241 0 min 0,000 mm 0,0 UV-I 0 W/m 11,8 C 15,9 C 9,7 km/h (2 Bft) 100,00 %
14.05.2017 22:20 16,4 C 20,0 C 74 % 1022,6 hPa 0,0 l/m 6,6 km/h (2 Bft) SW 226 0 min 0,000 mm 0,0 UV-I 0 W/m 11,8 C 16,3 C 9,7 km/h (2 Bft) 97,37 %
14.05.2017 22:22 16,4 C 20,0 C 74 % 1022,7 hPa 0,0 l/m 6,4 km/h (2 Bft) W-SW 253 0 min 0,000 mm 0,0 UV-I 0 W/m 11,8 C 16,4 C 9,7 km/h (2 Bft) 98,11 %
14.05.2017 22:24 16,4 C 20,0 C 75 % 1022,7 hPa 0,0 l/m 5,7 km/h (1 Bft) W-SW 257 0 min 0,000 mm 0,0 UV-I 0 W/m 12,0 C 16,4 C 8,0 km/h (2 Bft) 100,00 %
14.05.2017 22:26 16,3 C 20,0 C 75 % 1022,7 hPa 0,0 l/m 5,2 km/h (1 Bft) SW 234 0 min 0,000 mm 0,0 UV-I 0 W/m 11,9 C 16,3 C 8,0 km/h (2 Bft) 100,00 %
14.05.2017 22:28 16,3 C 20,0 C 74 % 1022,8 hPa 0,0 l/m 5,5 km/h (1 Bft) SW 234 0 min 0,000 mm 0,0 UV-I 0 W/m 11,7 C 16,3 C 8,0 km/h (2 Bft) 98,11 %
14.05.2017 22:30 16,3 C 20,0 C 74 % 1022,8 hPa 0,0 l/m 4,5 km/h (1 Bft) W-SW 240 0 min 0,000 mm 0,0 UV-I 0 W/m 11,7 C 16,3 C 6,4 km/h (2 Bft) 100,00 %
14.05.2017 22:32 16,3 C 20,0 C 75 % 1022,8 hPa 0,0 l/m 4,7 km/h (1 Bft) SW 224 0 min 0,000 mm 0,0 UV-I 0 W/m 11,9 C 16,3 C 8,0 km/h (2 Bft) 100,00 %
14.05.2017 22:34 16,3 C 20,0 C 75 % 1022,8 hPa 0,0 l/m 6,1 km/h (2 Bft) SW 229 0 min 0,000 mm 0,0 UV-I 0 W/m 11,9 C 16,3 C 9,7 km/h (2 Bft) 100,00 %
14.05.2017 22:36 16,3 C 20,6 C 75 % 1022,8 hPa 0,0 l/m 7,6 km/h (2 Bft) SW 215 0 min 0,000 mm 0,0 UV-I 0 W/m 11,9 C 15,7 C 9,7 km/h (2 Bft) 100,00 %
14.05.2017 22:38 16,2 C 20,0 C 76 % 1022,8 hPa 0,0 l/m 7,0 km/h (2 Bft) W-SW 238 0 min 0,000 mm 0,0 UV-I 0 W/m 12,0 C 15,9 C 9,7 km/h (2 Bft) 100,00 %
14.05.2017 22:40 16,2 C 20,0 C 77 % 1022,8 hPa 0,0 l/m 7,1 km/h (2 Bft) SW 232 0 min 0,000 mm 0,0 UV-I 0 W/m 12,2 C 15,8 C 9,7 km/h (2 Bft) 100,00 %
14.05.2017 22:42 16,2 C 20,0 C 77 % 1022,8 hPa 0,0 l/m 8,0 km/h (2 Bft) SW 229 0 min 0,000 mm 0,0 UV-I 0 W/m 12,2 C 15,4 C 11,3 km/h (2 Bft) 100,00 %
14.05.2017 22:44 16,2 C 20,0 C 78 % 1022,9 hPa 0,0 l/m 7,6 km/h (2 Bft) SW 231 0 min 0,000 mm 0,0 UV-I 0 W/m 12,4 C 15,6 C 11,3 km/h (2 Bft) 100,00 %
14.05.2017 22:46 16,1 C 20,0 C 79 % 1022,9 hPa 0,0 l/m 7,3 km/h (2 Bft) SW 219 0 min 0,000 mm 0,0 UV-I 0 W/m 12,5 C 15,6 C 9,7 km/h (2 Bft) 97,87 %
14.05.2017 22:48 16,1 C 20,0 C 79 % 1022,9 hPa 0,0 l/m 6,8 km/h (2 Bft) SW 228 0 min 0,000 mm 0,0 UV-I 0 W/m 12,5 C 15,9 C 9,7 km/h (2 Bft) 98,00 %
14.05.2017 22:50 16,1 C 20,0 C 80 % 1022,9 hPa 0,0 l/m 7,8 km/h (2 Bft) SW 236 0 min 0,000 mm 0,0 UV-I 0 W/m 12,6 C 15,4 C 9,7 km/h (2 Bft) 97,62 %
14.05.2017 22:52 16,1 C 20,0 C 81 % 1022,9 hPa 0,0 l/m 7,6 km/h (2 Bft) SW 232 0 min 0,000 mm 0,0 UV-I 0 W/m 12,8 C 15,5 C 9,7 km/h (2 Bft) 100,00 %
14.05.2017 22:54 16,0 C 20,0 C 81 % 1022,8 hPa 0,0 l/m 5,9 km/h (2 Bft) SW 227 0 min 0,000 mm 0,0 UV-I 0 W/m 12,7 C 16,0 C 8,0 km/h (2 Bft) 95,92 %
14.05.2017 22:56 15,9 C 20,0 C 81 % 1022,9 hPa 0,0 l/m 6,8 km/h (2 Bft) SW 229 0 min 0,000 mm 0,0 UV-I 0 W/m 12,6 C 15,7 C 12,9 km/h (3 Bft) 97,44 %
14.05.2017 22:58 15,9 C 20,0 C 82 % 1022,8 hPa 0,0 l/m 6,3 km/h (2 Bft) S-SW 211 0 min 0,000 mm 0,0 UV-I 0 W/m 12,8 C 15,9 C 9,7 km/h (2 Bft) 95,74 %
14.05.2017 23:00 15,9 C 20,0 C 82 % 1022,9 hPa 0,0 l/m 7,5 km/h (2 Bft) S 169 0 min 0,000 mm 0,0 UV-I 0 W/m 12,8 C 15,3 C 9,7 km/h (2 Bft) 97,73 %
14.05.2017 23:02 15,9 C 20,0 C 82 % 1022,9 hPa 0,0 l/m 6,7 km/h (2 Bft) S-SW 207 0 min 0,025 mm 0,0 UV-I 0 W/m 12,8 C 15,7 C 9,7 km/h (2 Bft) 98,21 %
14.05.2017 23:04 15,8 C 20,0 C 82 % 1022,9 hPa 0,0 l/m 8,1 km/h (2 Bft) S-SW 207 0 min 0,000 mm 0,0 UV-I 0 W/m 12,7 C 14,9 C 14,5 km/h (3 Bft) 95,12 %
14.05.2017 23:06 15,8 C 20,0 C 82 % 1022,9 hPa 0,0 l/m 6,0 km/h (2 Bft) SW 215 0 min 0,000 mm 0,0 UV-I 0 W/m 12,7 C 15,8 C 9,7 km/h (2 Bft) 98,11 %
14.05.2017 23:08 15,8 C 20,0 C 82 % 1023,0 hPa 0,0 l/m 6,1 km/h (2 Bft) S-SW 210 0 min 0,000 mm 0,0 UV-I 0 W/m 12,7 C 15,8 C 9,7 km/h (2 Bft) 97,87 %
14.05.2017 23:10 15,8 C 20,0 C 82 % 1022,9 hPa 0,0 l/m 4,4 km/h (1 Bft) S-SW 213 0 min 0,000 mm 0,0 UV-I 0 W/m 12,7 C 15,8 C 8,0 km/h (2 Bft) 97,56 %
14.05.2017 23:12 15,8 C 20,0 C 82 % 1022,9 hPa 0,0 l/m 5,1 km/h (1 Bft) S-SW 212 0 min 0,000 mm 0,0 UV-I 0 W/m 12,7 C 15,8 C 6,4 km/h (2 Bft) 94,00 %
14.05.2017 23:14 15,8 C 20,0 C 83 % 1022,9 hPa 0,0 l/m 4,3 km/h (1 Bft) S-SW 202 0 min 0,000 mm 0,0 UV-I 0 W/m 12,9 C 15,8 C 8,0 km/h (2 Bft) 95,74 %
14.05.2017 23:16 15,7 C 20,0 C 83 % 1022,9 hPa 0,0 l/m 3,2 km/h (1 Bft) S-SW 202 0 min 0,000 mm 0,0 UV-I 0 W/m 12,8 C 15,7 C 6,4 km/h (2 Bft) 97,56 %
14.05.2017 23:18 15,7 C 20,0 C 83 % 1022,9 hPa 0,0 l/m 2,3 km/h (1 Bft) S-SW 202 0 min 0,000 mm 0,0 UV-I 0 W/m 12,8 C 15,7 C 4,8 km/h (1 Bft) 96,43 %
14.05.2017 23:20 15,7 C 20,0 C 83 % 1022,9 hPa 0,0 l/m 2,7 km/h (1 Bft) S-SW 202 0 min 0,000 mm 0,0 UV-I 0 W/m 12,8 C 15,7 C 4,8 km/h (1 Bft) 93,62 %
14.05.2017 23:22 15,6 C 20,0 C 83 % 1022,9 hPa 0,0 l/m 1,6 km/h (1 Bft) S-SW 202 0 min 0,000 mm 0,0 UV-I 0 W/m 12,7 C 15,6 C 4,8 km/h (1 Bft) 94,74 %
14.05.2017 23:24 15,5 C 20,0 C 83 % 1022,9 hPa 0,0 l/m 2,6 km/h (1 Bft) S-SW 202 0 min 0,000 mm 0,0 UV-I 0 W/m 12,6 C 15,5 C 6,4 km/h (2 Bft) 98,00 %
14.05.2017 23:26 15,5 C 20,0 C 83 % 1023,0 hPa 0,0 l/m 4,1 km/h (1 Bft) S-SW 202 0 min 0,000 mm 0,0 UV-I 0 W/m 12,6 C 15,5 C 6,4 km/h (2 Bft) 98,00 %
14.05.2017 23:28 15,5 C 20,0 C 83 % 1023,0 hPa 0,0 l/m 3,3 km/h (1 Bft) S 184 0 min 0,000 mm 0,0 UV-I 0 W/m 12,6 C 15,5 C 6,4 km/h (2 Bft) 96,67 %
14.05.2017 23:30 15,4 C 20,0 C 83 % 1023,0 hPa 0,0 l/m 4,3 km/h (1 Bft) S 189 0 min 0,000 mm 0,0 UV-I 0 W/m 12,5 C 15,4 C 8,0 km/h (2 Bft) 100,00 %
14.05.2017 23:32 15,4 C 20,0 C 83 % 1023,0 hPa 0,0 l/m 4,6 km/h (1 Bft) S 175 0 min 0,000 mm 0,0 UV-I 0 W/m 12,5 C 15,4 C 6,4 km/h (2 Bft) 100,00 %
14.05.2017 23:34 15,4 C 20,0 C 83 % 1023,0 hPa 0,0 l/m 4,5 km/h (1 Bft) S 181 0 min 0,000 mm 0,0 UV-I 0 W/m 12,5 C 15,4 C 6,4 km/h (2 Bft) 100,00 %
14.05.2017 23:36 15,3 C 20,0 C 83 % 1023,0 hPa 0,0 l/m 4,3 km/h (1 Bft) S 181 0 min 0,000 mm 0,0 UV-I 0 W/m 12,4 C 15,3 C 4,8 km/h (1 Bft) 97,87 %
14.05.2017 23:38 15,3 C 20,0 C 83 % 1023,0 hPa 0,0 l/m 4,2 km/h (1 Bft) S 181 0 min 0,000 mm 0,0 UV-I 0 W/m 12,4 C 15,3 C 4,8 km/h (1 Bft) 100,00 %
14.05.2017 23:40 15,3 C 20,0 C 83 % 1023,0 hPa 0,0 l/m 4,7 km/h (1 Bft) S-SW 192 0 min 0,000 mm 0,0 UV-I 0 W/m 12,4 C 15,3 C 6,4 km/h (2 Bft) 100,00 %
14.05.2017 23:42 15,2 C 20,0 C 84 % 1023,0 hPa 0,0 l/m 4,8 km/h (1 Bft) S-SW 195 0 min 0,000 mm 0,0 UV-I 0 W/m 12,5 C 15,2 C 6,4 km/h (2 Bft) 100,00 %
14.05.2017 23:44 15,2 C 20,0 C 84 % 1023,1 hPa 0,0 l/m 5,5 km/h (1 Bft) SW 218 0 min 0,000 mm 0,0 UV-I 0 W/m 12,5 C 15,2 C 8,0 km/h (2 Bft) 100,00 %
14.05.2017 23:46 15,2 C 20,0 C 84 % 1023,1 hPa 0,0 l/m 2,5 km/h (1 Bft) SW 218 0 min 0,000 mm 0,0 UV-I 0 W/m 12,5 C 15,2 C 4,8 km/h (1 Bft) 100,00 %
14.05.2017 23:48 15,2 C 20,0 C 84 % 1023,1 hPa 0,0 l/m 2,6 km/h (1 Bft) SW 218 0 min 0,000 mm 0,0 UV-I 0 W/m 12,5 C 15,2 C 4,8 km/h (1 Bft) 98,00 %
14.05.2017 23:50 15,2 C 20,0 C 83 % 1023,1 hPa 0,0 l/m 2,1 km/h (1 Bft) SW 218 0 min 0,000 mm 0,0 UV-I 0 W/m 12,3 C 15,2 C 3,2 km/h (1 Bft) 97,56 %
14.05.2017 23:52 15,2 C 20,0 C 83 % 1023,1 hPa 0,0 l/m 2,7 km/h (1 Bft) S 177 0 min 0,000 mm 0,0 UV-I 0 W/m 12,3 C 15,2 C 4,8 km/h (1 Bft) 97,56 %
14.05.2017 23:54 15,3 C 20,0 C 83 % 1023,2 hPa 0,0 l/m 3,0 km/h (1 Bft) S 177 0 min 0,000 mm 0,0 UV-I 0 W/m 12,4 C 15,3 C 6,4 km/h (2 Bft) 98,00 %
14.05.2017 23:56 15,3 C 20,0 C 83 % 1023,2 hPa 0,0 l/m 1,5 km/h (1 Bft) S 177 0 min 0,000 mm 0,0 UV-I 0 W/m 12,4 C 15,3 C 3,2 km/h (1 Bft) 98,11 %
14.05.2017 23:58 15,3 C 20,0 C 83 % 1023,1 hPa 0,0 l/m 0,2 km/h (0 Bft) S 177 0 min 0,000 mm 0,0 UV-I 0 W/m 12,4 C 15,3 C 1,6 km/h (1 Bft) 97,87 %
_ Min-Zeit 05:16 02:58 16:48 00:00 - 00:00 - - - - - - 05:14 06:36 00:52 08:12
Minimum _ 8,6 C 18,3 C 52 % 1014,7 hPa - 0,0 km/h (0 Bft) - - - - - - 7,6 C 7,2 C 0,0 km/h (0 Bft) 85,71 %
_ Max-Zeit 16:18 16:12 01:36 23:54 00:00 10:02 - - 07:44 14:00 12:58 12:24 12:24 16:18 10:42 00:04
Maximum _ 22,1 C 20,6 C 95 % 1023,2 hPa 0,0 l/m 19,9 km/h
W-SW (4 Bft)
- - 4 min 0,533 mm 5,9 UV-I 1184 W/m 14,1 C 22,0 C 29,0 km/h
W-NW (5 Bft)
100,00 %
Durchschnitt _ 16,0 C 19,2 C 77 % 1019,2 hPa #0,0 l/m 6,8 km/h (2 Bft) W-SW - #9:22 h #4,267 mm 2,9 UV-I 424 W/m 11,7 C 15,1 C 11,4 km/h (2 Bft) 96,78 %